[[{"header":{"parameterUnit":"m.s-1","parameterCategory":1,"la1":30.6,"la2":29.2853,"lo1":-89.7004,"lo2":-87.6739,"dy":0.0162,"dx":0.0183,"nx":112,"ny":82,"refTime":"2023-08-24T06:00:00:Z","depth":0,"parameterNumber":2,"parameterNumberName":"U-component_of_WINDS"},"data":[0.0,0.0,0.0,0.0,0.0,0.0,0.0,0.0,0.0,0.0,0.0,0.0,0.0,0.0,0.0,0.0,0.0,0.0,0.0,0.0,0.0,0.0,0.0,0.0,0.0,0.0,0.0,0.0,0.0,0.0,0.0,0.0,0.0,0.0,0.0,0.0,0.0,0.0,0.0,0.0,0.0,0.0,0.0,0.0,0.0,0.0,0.0,0.0,0.0,0.0,0.0,0.0,0.0,0.0,0.0,0.0,0.0,0.0,0.0,0.0,0.0,0.0,0.0,0.0,0.0,0.0,0.0,0.0,0.0,0.0,0.0,0.0,0.0,0.0,0.0,0.0,0.0,0.0,0.0,0.0,0.0,0.0,0.0,0.0,0.0,0.0,0.0,0.0,0.0,0.0,-1.2334,-1.3513,-1.449,-1.531,-1.5712,-1.4991,-1.5132,-1.6503,0.0,0.0,0.0,0.0,0.0,0.0,0.0,0.0,0.0,0.0,0.0,0.0,0.0,0.0,0.0,0.0,0.0,0.0,0.0,0.0,0.0,0.0,0.0,0.0,0.0,0.0,0.0,0.0,0.0,0.0,0.0,0.0,0.0,0.0,0.0,0.0,0.0,0.0,0.0,0.0,0.0,0.0,0.0,0.0,0.0,0.0,0.0,0.0,0.0,0.0,0.0,0.0,0.0,0.0,0.0,0.0,0.0,0.0,0.0,0.0,0.0,0.0,0.0,0.0,0.0,0.0,0.0,0.0,0.0,0.0,0.0,0.0,0.0,0.0,0.0,0.0,0.0,0.0,0.0,0.0,0.0,0.0,0.0,0.0,0.0,0.0,0.0,0.0,0.0,0.0,0.0,0.0,0.0,0.0,0.0,0.0,0.0,0.0,0.0,0.0,0.0,0.0,0.0,0.0,-1.2833,-1.3961,-1.4977,-1.5455,-1.5154,-1.5329,-1.5785,-1.6561,0.0,0.0,0.0,0.0,0.0,0.0,0.0,0.0,0.0,0.0,0.0,0.0,0.0,0.0,0.0,0.0,0.0,0.0,0.0,0.0,0.0,0.0,0.0,0.0,0.0,0.0,0.0,0.0,0.0,0.0,0.0,0.0,0.0,0.0,0.0,0.0,0.0,0.0,0.0,0.0,0.0,0.0,0.0,0.0,0.0,0.0,0.0,0.0,0.0,0.0,0.0,0.0,0.0,0.0,0.0,0.0,0.0,0.0,0.0,0.0,0.0,0.0,0.0,0.0,0.0,0.0,0.0,0.0,0.0,0.0,0.0,0.0,0.0,0.0,0.0,0.0,0.0,0.0,0.0,0.0,0.0,0.0,0.0,0.0,0.0,0.0,0.0,0.0,0.0,0.0,0.0,0.0,0.0,0.0,0.0,0.0,0.0,0.0,0.0,0.0,0.0,0.0,0.0,-1.2793,-1.3653,-1.4739,-1.5612,-1.6104,-1.6191,-1.5871,-1.6186,-1.7346,-1.6448,0.0,0.0,0.0,0.0,0.0,0.0,0.0,0.0,0.0,0.0,0.0,0.0,0.0,0.0,0.0,0.0,0.0,0.0,0.0,0.0,0.0,0.0,0.0,0.0,0.0,0.0,0.0,0.0,0.0,0.0,0.0,0.0,0.0,0.0,0.0,0.0,0.0,0.0,0.0,0.0,0.0,0.0,0.0,0.0,0.0,0.0,0.0,0.0,0.0,0.0,0.0,0.0,0.0,0.0,0.0,0.0,0.0,0.0,0.0,0.0,0.0,0.0,0.0,0.0,0.0,0.0,0.0,0.0,0.0,0.0,0.0,0.0,0.0,0.0,0.0,0.0,0.0,0.0,0.0,0.0,0.0,0.0,0.0,0.0,0.0,0.0,0.0,0.0,0.0,0.0,0.0,0.0,0.0,0.0,0.0,0.0,0.0,0.0,0.0,0.0,0.0,0.0,-1.3647,-1.44,-1.5313,-1.6019,-1.6591,-1.7,-1.6311,-1.6428,-1.7821,-1.719,0.0,0.0,0.0,0.0,0.0,0.0,0.0,0.0,0.0,0.0,0.0,0.0,0.0,0.0,0.0,0.0,0.0,0.0,0.0,0.0,0.0,0.0,0.0,0.0,0.0,0.0,0.0,0.0,0.0,0.0,0.0,0.0,0.0,0.0,0.0,0.0,0.0,0.0,0.0,0.0,0.0,0.0,0.0,0.0,0.0,0.0,0.0,0.0,0.0,0.0,0.0,0.0,0.0,0.0,0.0,0.0,0.0,0.0,0.0,0.0,0.0,0.0,0.0,0.0,0.0,0.0,0.0,0.0,0.0,0.0,0.0,0.0,0.0,0.0,0.0,0.0,0.0,0.0,0.0,0.0,0.0,0.0,0.0,0.0,0.0,0.0,0.0,0.0,0.0,0.0,0.0,0.0,0.0,0.0,0.0,0.0,0.0,0.0,0.0,0.0,0.0,0.0,-1.3948,-1.4669,-1.5352,-1.6019,-1.6441,-1.6431,-1.64,-1.6585,-1.7203,-1.7247,0.0,0.0,0.0,0.0,0.0,0.0,0.0,0.0,0.0,0.0,0.0,0.0,0.0,0.0,0.0,0.0,0.0,0.0,0.0,0.0,0.0,0.0,0.0,0.0,0.0,0.0,0.0,0.0,0.0,0.0,0.0,0.0,0.0,0.0,0.0,0.0,0.0,0.0,0.0,0.0,0.0,0.0,0.0,0.0,0.0,0.0,0.0,0.0,0.0,0.0,0.0,0.0,0.0,0.0,0.0,0.0,0.0,0.0,0.0,0.0,0.0,0.0,0.0,0.0,0.0,0.0,0.0,0.0,0.0,0.0,0.0,0.0,0.0,0.0,0.0,0.0,0.0,0.0,0.0,0.0,0.0,0.0,0.0,0.0,0.0,0.0,0.0,0.0,0.0,0.0,0.0,0.0,0.0,0.0,0.0,0.0,0.0,0.0,0.0,0.0,0.0,0.0,-1.3631,-1.4282,-1.5294,-1.5652,-1.5961,-1.6374,-1.6384,-1.6637,-1.7146,0.0,0.0,0.0,0.0,0.0,0.0,0.0,0.0,0.0,0.0,0.0,0.0,0.0,0.0,0.0,0.0,0.0,0.0,0.0,0.0,0.0,0.0,0.0,0.0,0.0,0.0,0.0,0.0,0.0,0.0,0.0,0.0,0.0,0.0,0.0,0.0,0.0,0.0,0.0,0.0,0.0,0.0,0.0,0.0,0.0,0.0,0.0,0.0,0.0,0.0,0.0,0.0,0.0,0.0,0.0,0.0,0.0,0.0,0.0,0.0,0.0,0.0,0.0,0.0,0.0,0.0,0.0,0.0,0.0,0.0,0.0,0.0,0.0,0.0,0.0,0.0,0.0,0.0,0.0,0.0,0.0,0.0,0.0,0.0,0.0,0.0,0.0,0.0,0.0,0.0,0.0,0.0,0.0,0.0,0.0,0.0,0.0,0.0,0.0,0.0,0.0,0.0,-1.2964,-1.3442,-1.4172,-1.5001,-1.5478,-1.5894,-1.6374,-1.6384,-1.6534,-1.6944,0.0,0.0,0.0,0.0,0.0,0.0,0.0,0.0,0.0,0.0,0.0,0.0,0.0,0.0,0.0,0.0,0.0,0.0,0.0,0.0,0.0,0.0,0.0,0.0,0.0,0.0,0.0,0.0,0.0,0.0,0.0,0.0,0.0,0.0,0.0,0.0,0.0,0.0,0.0,0.0,0.0,0.0,0.0,0.0,0.0,0.0,0.0,0.0,0.0,0.0,0.0,0.0,0.0,0.0,0.0,0.0,0.0,0.0,0.0,0.0,0.0,0.0,0.0,0.0,0.0,0.0,0.0,0.0,0.0,0.0,0.0,0.0,0.0,0.0,0.0,0.0,0.0,0.0,0.0,0.0,0.0,0.0,0.0,0.0,0.0,0.0,0.0,0.0,0.0,0.0,0.0,0.0,0.0,0.0,0.0,0.0,0.0,0.0,0.0,0.0,0.0,0.0,-1.2305,-1.3571,-1.4469,-1.4469,-1.5604,-1.6374,-1.6384,-1.6384,-1.6384,0.0,0.0,0.0,0.0,0.0,0.0,0.0,0.0,0.0,0.0,0.0,0.0,0.0,0.0,0.0,0.0,0.0,0.0,0.0,0.0,0.0,0.0,0.0,0.0,0.0,0.0,0.0,0.0,0.0,0.0,0.0,0.0,0.0,0.0,0.0,0.0,0.0,0.0,0.0,0.0,0.0,0.0,0.0,0.0,0.0,0.0,0.0,0.0,0.0,0.0,0.0,0.0,0.0,0.0,0.0,0.0,0.0,0.0,0.0,0.0,0.0,0.0,0.0,0.0,0.0,0.0,0.0,0.0,0.0,0.0,0.0,0.0,0.0,0.0,0.0,0.0,0.0,0.0,0.0,0.0,0.0,0.0,0.0,0.0,0.0,0.0,0.0,0.0,0.0,0.0,0.0,0.0,0.0,0.0,0.0,0.0,0.0,0.0,0.0,0.0,0.0,0.0,0.0,-1.2305,-1.2797,-1.3519,-1.441,-1.4824,-1.542,-1.6316,-1.6384,-1.6384,-1.6384,0.0,0.0,0.0,0.0,0.0,0.0,0.0,0.0,0.0,0.0,0.0,0.0,0.0,0.0,0.0,0.0,0.0,0.0,0.0,0.0,0.0,0.0,0.0,0.0,0.0,0.0,0.0,0.0,0.0,0.0,0.0,0.0,0.0,0.0,0.0,0.0,0.0,0.0,0.0,0.0,0.0,0.0,0.0,0.0,0.0,0.0,0.0,0.0,0.0,0.0,0.0,0.0,0.0,0.0,0.0,0.0,0.0,0.0,0.0,0.0,0.0,0.0,0.0,0.0,0.0,0.0,0.0,0.0,0.0,0.0,0.0,0.0,0.0,0.0,0.0,0.0,0.0,0.0,0.0,0.0,0.0,0.0,0.0,0.0,0.0,0.0,0.0,0.0,0.0,0.0,0.0,0.0,0.0,0.0,0.0,0.0,0.0,0.0,0.0,0.0,0.0,0.0,-1.2428,-1.2972,-1.364,-1.441,-1.4942,-1.5546,-1.6316,-1.6384,-1.6384,-1.6384,0.0,0.0,0.0,0.0,0.0,0.0,0.0,0.0,0.0,0.0,0.0,0.0,0.0,0.0,0.0,0.0,0.0,0.0,0.0,0.0,0.0,0.0,0.0,0.0,0.0,0.0,0.0,0.0,0.0,0.0,0.0,0.0,0.0,0.0,0.0,0.0,0.0,0.0,0.0,0.0,0.0,0.0,0.0,0.0,0.0,0.0,0.0,0.0,0.0,0.0,0.0,0.0,0.0,0.0,0.0,0.0,0.0,0.0,0.0,0.0,0.0,0.0,0.0,0.0,0.0,0.0,0.0,0.0,0.0,0.0,0.0,0.0,0.0,0.0,0.0,0.0,0.0,0.0,0.0,0.0,0.0,0.0,0.0,0.0,0.0,0.0,0.0,0.0,0.0,0.0,0.0,0.0,0.0,0.0,0.0,0.0,0.0,0.0,0.0,0.0,0.0,0.0,-1.2647,-1.3649,-1.4423,-1.4579,-1.5625,-1.6321,-1.6446,-1.6405,-1.6384,-1.6384,0.0,0.0,0.0,0.0,0.0,0.0,0.0,0.0,0.0,0.0,0.0,0.0,0.0,0.0,0.0,0.0,0.0,0.0,0.0,0.0,0.0,0.0,0.0,0.0,0.0,0.0,0.0,0.0,0.0,0.0,0.0,0.0,0.0,0.0,0.0,0.0,0.0,0.0,0.0,0.0,0.0,0.0,0.0,0.0,0.0,0.0,0.0,0.0,0.0,0.0,0.0,0.0,0.0,0.0,0.0,0.0,0.0,0.0,0.0,0.0,-0.3857,-0.392,0.0,0.0,0.0,0.0,0.0,0.0,0.0,0.0,0.0,0.0,0.0,0.0,0.0,0.0,0.0,0.0,0.0,0.0,0.0,0.0,0.0,0.0,0.0,0.0,0.0,0.0,0.0,0.0,0.0,0.0,0.0,0.0,0.0,0.0,0.0,0.0,0.0,0.0,0.0,0.0,-1.3298,-1.3388,-1.3895,-1.5332,-1.5386,-1.5747,-1.6773,-1.6581,-1.6384,-1.6384,-1.6384,0.0,0.0,0.0,0.0,0.0,0.0,0.0,0.0,0.0,0.0,0.0,0.0,0.0,0.0,0.0,0.0,0.0,0.0,0.0,0.0,0.0,0.0,0.0,0.0,0.0,0.0,0.0,0.0,0.0,0.0,0.0,0.0,0.0,0.0,0.0,0.0,0.0,0.0,0.0,0.0,0.0,0.0,0.0,0.0,0.0,0.0,0.0,0.0,0.0,0.0,0.0,0.0,0.0,0.0,0.0,0.0,0.0,0.0,0.0,-0.3985,-0.3936,0.0,0.0,0.0,0.0,0.0,0.0,0.0,0.0,0.0,0.0,0.0,0.0,0.0,0.0,0.0,0.0,0.0,0.0,0.0,0.0,0.0,0.0,0.0,0.0,0.0,0.0,0.0,0.0,0.0,0.0,0.0,0.0,0.0,0.0,0.0,0.0,0.0,0.0,0.0,0.0,-1.3537,-1.3754,-1.4168,-1.5071,-1.5541,-1.6038,-1.6727,-1.697,-1.6933,-1.6715,-1.6694,0.0,0.0,0.0,0.0,0.0,0.0,0.0,0.0,0.0,0.0,0.0,0.0,0.0,0.0,0.0,0.0,0.0,0.0,0.0,0.0,0.0,0.0,0.0,0.0,0.0,0.0,0.0,0.0,0.0,0.0,0.0,0.0,0.0,0.0,0.0,0.0,0.0,0.0,0.0,0.0,0.0,0.0,0.0,0.0,0.0,0.0,0.0,0.0,0.0,0.0,0.0,0.0,0.0,-0.417,-0.4232,-0.433,-0.4352,-0.4363,-0.4352,-0.4148,-0.4099,-0.419,-0.419,0.0,0.0,0.0,0.0,0.0,0.0,0.0,0.0,0.0,0.0,0.0,0.0,0.0,0.0,0.0,0.0,0.0,0.0,0.0,0.0,0.0,0.0,-0.9556,-0.9568,-0.9968,-1.0174,-0.9746,0.0,0.0,0.0,0.0,0.0,0.0,0.0,0.0,0.0,0.0,0.0,-1.3751,-1.4239,-1.462,-1.4812,-1.5854,-1.6587,-1.6714,-1.7314,-1.7503,-1.7131,-1.71,-1.6964,0.0,0.0,0.0,0.0,0.0,0.0,0.0,0.0,0.0,0.0,0.0,0.0,0.0,0.0,0.0,0.0,0.0,0.0,0.0,0.0,0.0,0.0,0.0,0.0,0.0,0.0,0.0,0.0,0.0,0.0,0.0,0.0,-0.427,-0.4254,0.0,0.0,0.0,0.0,0.0,0.0,0.0,0.0,0.0,0.0,0.0,0.0,0.0,-0.4251,-0.4251,-0.4251,-0.4259,-0.4278,-0.4376,-0.4431,-0.4452,-0.4629,-0.4679,-0.4676,-0.4643,0.0,-0.432,-0.432,0.0,0.0,0.0,0.0,0.0,0.0,0.0,0.0,0.0,0.0,0.0,0.0,0.0,0.0,0.0,0.0,0.0,0.0,0.0,0.0,0.0,0.0,-0.9838,-0.9837,-1.0109,-1.0293,-1.0224,-1.1176,-1.2042,-1.2106,-1.2825,-1.3454,0.0,0.0,0.0,0.0,0.0,0.0,-1.4418,-1.4305,-1.4563,-1.5513,-1.5981,-1.6506,-1.7161,-1.7496,-1.7647,-1.7585,-1.7636,-1.7368,-1.6915,-1.6894,0.0,0.0,0.0,0.0,0.0,0.0,0.0,0.0,0.0,0.0,0.0,0.0,0.0,0.0,0.0,0.0,0.0,0.0,0.0,0.0,0.0,0.0,0.0,0.0,0.0,0.0,0.0,0.0,0.0,-0.43,-0.43,-0.43,-0.43,-0.43,0.0,0.0,0.0,0.0,0.0,0.0,0.0,0.0,0.0,-0.43,-0.4363,-0.4395,-0.4395,-0.4463,-0.4499,-0.4499,-0.4618,-0.4643,-0.4646,-0.4701,-0.4726,-0.4726,-0.4726,-0.4665,-0.4493,-0.4425,-0.449,-0.4691,0.0,0.0,0.0,0.0,-0.8252,-0.8182,-0.7852,-0.7852,-0.8002,-0.8129,0.0,0.0,0.0,0.0,0.0,0.0,0.0,-0.9688,-0.9897,-1.0007,-1.0136,-1.013,-1.0459,-1.0805,-1.1155,-1.2072,-1.2661,-1.2217,-1.3103,-1.3878,-1.3878,-1.4045,0.0,0.0,0.0,-1.4291,-1.453,-1.4506,-1.4749,-1.5675,-1.6294,-1.6868,-1.7609,-1.8187,-1.8371,-1.8112,-1.8092,-1.7895,-1.7389,-1.7121,-1.6894,0.0,0.0,0.0,0.0,0.0,0.0,0.0,0.0,0.0,0.0,0.0,0.0,0.0,0.0,0.0,0.0,0.0,0.0,0.0,0.0,0.0,0.0,0.0,0.0,0.0,0.0,0.0,0.0,-0.439,-0.4393,-0.4324,-0.4393,-0.4393,0.0,0.0,0.0,0.0,0.0,0.0,-0.439,-0.439,-0.439,-0.439,-0.4471,-0.4515,-0.4515,-0.4679,-0.4726,-0.4726,-0.4686,-0.47,-0.47,-0.4732,-0.4746,-0.4746,-0.4746,-0.473,-0.4692,-0.4567,-0.4671,-0.4993,-0.6004,-0.6408,-0.6538,-0.7915,-0.824,-0.8037,-0.8037,-0.8037,-0.8067,-0.8195,-0.8528,-0.8885,-0.9108,0.0,0.0,0.0,0.0,-0.9988,-1.0252,-1.0325,-1.0426,-1.0601,-1.1019,-1.151,-1.2075,-1.281,-1.3164,-1.2633,-1.3454,-1.4252,-1.4252,-1.4466,0.0,-1.4569,-1.4569,-1.4569,-1.4569,-1.4569,-1.4856,-1.5417,-1.6315,-1.7139,-1.7687,-1.8586,-1.892,-1.8578,-1.8557,-1.8361,-1.7916,-1.7564,-1.7276,-1.7162,0.0,0.0,0.0,0.0,0.0,0.0,0.0,0.0,0.0,0.0,0.0,0.0,0.0,0.0,0.0,0.0,0.0,0.0,0.0,0.0,0.0,0.0,0.0,0.0,0.0,0.0,0.0,0.0,0.0,-0.4499,-0.4565,0.0,0.0,0.0,0.0,-0.4706,-0.4706,-0.4706,-0.4706,-0.4706,-0.4706,-0.4706,-0.4712,-0.4715,-0.4715,-0.4723,-0.4726,-0.4726,-0.477,-0.4825,-0.4828,-0.4944,-0.4999,-0.4999,-0.4999,-0.4934,-0.4817,-0.4694,-0.4997,-0.563,-0.6204,-0.6777,-0.7332,-0.7914,-0.8078,-0.8078,-0.8078,-0.8078,-0.8098,-0.8093,-0.8328,-0.8664,-0.9114,-0.9459,0.0,0.0,-1.0272,-1.0263,-1.0329,-1.0518,-1.0836,-1.143,-1.1788,-1.2111,-1.2705,-1.3368,-1.3784,-1.3948,-1.43,-1.4537,-1.4537,0.0,-1.4569,-1.4569,-1.4569,-1.4569,-1.4569,-1.4569,-1.4641,-1.4641,-1.6035,-1.6932,-1.6932,-1.824,-1.9054,-1.9044,-1.9034,-1.8827,-1.8361,-1.8319,-1.8112,-1.7647,-1.7183,0.0,0.0,0.0,0.0,0.0,0.0,0.0,0.0,0.0,0.0,0.0,0.0,0.0,0.0,0.0,0.0,0.0,0.0,0.0,0.0,0.0,0.0,0.0,0.0,0.0,0.0,0.0,0.0,-0.4656,-0.4654,0.0,-0.4656,-0.4654,-0.4726,-0.4726,-0.4726,-0.4726,-0.4726,-0.4726,-0.4726,-0.4726,-0.4727,-0.477,-0.477,-0.4847,-0.4887,-0.4887,-0.4931,-0.4953,-0.4953,-0.4996,-0.5018,-0.5018,-0.5018,-0.4991,-0.495,-0.5296,-0.5541,-0.5653,-0.6162,-0.6944,-0.7778,-0.8305,-0.8672,-0.8845,-0.8836,-0.8697,-0.8538,-0.8918,-0.9389,-0.9871,-1.0329,-1.0495,-1.0622,-1.0783,-1.0777,-1.0833,-1.0816,-1.0882,-1.101,-1.1261,-1.1335,-1.1706,-1.2673,-1.3039,-1.344,-1.4261,-1.4554,-1.4569,-1.4569,-1.4569,-1.4569,-1.4569,-1.4569,-1.4569,-1.4569,-1.4569,-1.4776,-1.5338,-1.5833,-1.6594,-1.755,-1.8104,-1.8586,-1.9075,-1.9075,-1.8992,-1.8837,-1.855,-1.8311,-1.8154,-1.7709,-1.7469,0.0,0.0,0.0,0.0,0.0,0.0,0.0,0.0,0.0,0.0,0.0,0.0,0.0,0.0,0.0,0.0,0.0,0.0,0.0,0.0,0.0,0.0,0.0,0.0,0.0,-0.4776,-0.4776,-0.4776,-0.4776,-0.4776,-0.4776,-0.4776,-0.4776,-0.4776,-0.4776,-0.4776,-0.4776,-0.4776,-0.4776,-0.4776,-0.4855,-0.4896,-0.4896,-0.4977,-0.5018,-0.5018,-0.5056,-0.5072,-0.5075,-0.5116,-0.5135,-0.5135,-0.5135,-0.5192,-0.539,-0.5795,-0.6113,-0.6386,-0.6764,-0.7419,-0.8201,-0.8551,-0.8878,-0.913,-0.9066,-0.9001,-0.8983,-0.94,-0.9878,-1.0371,-1.0773,-1.0887,-1.0944,-1.1031,-1.1111,-1.1111,-1.1111,-1.1111,-1.1117,-1.136,-1.1422,-1.1706,-1.2966,-1.3185,-1.3477,-1.4418,-1.4569,-1.4569,-1.4569,-1.4569,-1.4569,-1.4569,-1.4569,-1.4569,-1.4569,-1.4569,-1.4776,-1.5338,-1.5621,-1.6175,-1.7179,-1.7503,-1.7968,-1.8706,-1.8706,-1.887,-1.9065,-1.8778,-1.8622,-1.8609,-1.8161,-1.7864,-1.7707,0.0,0.0,0.0,0.0,0.0,0.0,0.0,0.0,0.0,0.0,0.0,0.0,0.0,0.0,0.0,0.0,0.0,0.0,0.0,0.0,0.0,0.0,0.0,-0.5018,-0.5018,-0.5018,-0.5018,-0.5018,-0.5018,-0.5018,-0.5018,-0.5018,-0.5018,-0.5018,-0.5018,-0.5018,-0.5018,-0.5018,-0.5018,-0.5018,-0.5018,-0.5023,-0.5023,-0.5023,-0.5029,-0.514,-0.5192,-0.5197,-0.5314,-0.5368,-0.5368,-0.5368,-0.5632,-0.6086,-0.616,-0.6785,-0.7799,-0.7804,-0.8178,-0.8694,-0.8727,-0.8718,-0.8737,-0.8689,-0.9013,-0.9327,-0.9342,-0.9635,-1.0003,-1.0408,-1.0519,-1.0616,-1.1025,-1.1111,-1.1111,-1.1111,-1.1111,-1.1273,-1.1857,-1.1974,-1.2298,-1.3535,-1.376,-1.3905,-1.4489,-1.4569,-1.4569,-1.4569,-1.4569,-1.4569,-1.4569,-1.4569,0.0,-1.4569,-1.4569,-1.4569,-1.4569,-1.5267,-1.5745,-1.5773,-1.6477,-1.7175,-1.7915,-1.7982,-1.8328,-1.9054,-1.9065,-1.9075,-1.9075,-1.8675,-1.8185,-1.7726,0.0,0.0,0.0,0.0,0.0,0.0,0.0,0.0,0.0,0.0,0.0,0.0,0.0,0.0,0.0,0.0,0.0,0.0,0.0,0.0,0.0,-0.5018,-0.5018,-0.5018,-0.5018,-0.5018,-0.5018,-0.5018,-0.5018,-0.5018,-0.5018,-0.5018,-0.5018,-0.5018,-0.5018,-0.5018,-0.5018,-0.5018,-0.5018,-0.5018,-0.5056,-0.5137,-0.514,-0.5184,-0.5273,-0.5303,-0.532,-0.532,-0.5355,-0.5368,-0.5368,-0.5368,-0.5713,-0.6386,-0.6813,-0.7488,-0.8209,-0.7897,-0.8336,-0.917,-0.9165,-0.9316,-0.9544,-0.9256,-0.9554,-1.0143,-0.9852,-1.0218,-1.0812,-1.0899,-1.0962,-1.095,-1.1031,-1.1111,-1.1111,-1.1111,-1.1111,-1.1117,-1.1279,-1.1347,-1.1706,-1.2893,-1.3185,-1.3404,-1.4425,-1.4569,-1.4569,-1.4569,-1.4569,-1.4569,-1.4569,-1.4569,-1.4569,-1.4569,-1.4569,-1.4569,-1.4569,-1.4776,-1.5174,-1.5757,-1.6493,-1.7003,-1.7161,-1.8237,-1.8675,-1.8328,-1.8793,-1.9075,-1.9075,-1.8967,-1.8685,0.0,0.0,0.0,0.0,0.0,0.0,0.0,0.0,0.0,0.0,0.0,0.0,0.0,0.0,0.0,0.0,0.0,0.0,0.0,0.0,0.0,0.0,-0.5018,-0.5018,-0.5018,-0.5018,-0.5018,-0.5018,-0.5018,-0.5018,-0.5018,-0.5018,-0.5018,-0.5018,-0.5018,-0.5018,-0.5018,-0.5061,-0.5089,-0.5089,-0.5137,-0.5197,-0.5262,-0.5262,-0.5298,-0.5368,-0.542,-0.5445,-0.5447,-0.5499,-0.5521,-0.5521,-0.5858,-0.6275,-0.6936,-0.7623,-0.8277,-0.8716,0.0,0.0,0.0,0.0,-0.9175,-0.9402,-0.9103,-0.9549,-1.0218,-0.9986,-1.0438,-1.1111,-1.1111,-1.1111,-1.1111,-1.1111,-1.1111,-1.1111,-1.1111,-1.1111,-1.1111,-1.1111,-1.126,-1.1706,-1.2673,-1.3112,-1.355,-1.4425,-1.4569,0.0,-1.4569,-1.4569,-1.4569,-1.4569,-1.4569,-1.4569,-1.4569,-1.4569,-1.4569,-1.4569,-1.4569,-1.4816,-1.5256,-1.569,0.0,0.0,0.0,-1.8241,-1.8425,-1.887,0.0,0.0,0.0,-1.8975,-1.8718,-1.8553,0.0,0.0,-1.6957,-1.6711,0.0,0.0,0.0,0.0,0.0,0.0,0.0,0.0,0.0,0.0,0.0,0.0,0.0,0.0,0.0,0.0,-0.5018,-0.5018,-0.5018,-0.5029,-0.5031,-0.5018,-0.5018,-0.5018,-0.5018,-0.5018,-0.5023,-0.5034,-0.5037,-0.5042,-0.5056,-0.5151,0.0,0.0,0.0,-0.5377,-0.539,-0.539,-0.5398,-0.5412,-0.5521,-0.5486,-0.5489,-0.5684,-0.5733,-0.5733,-0.652,-0.7058,-0.7625,-0.8344,-0.8949,-0.9309,-0.9076,-0.9053,-0.9009,-0.8799,-0.878,-0.878,-0.878,0.0,0.0,-0.9981,-1.0507,-1.1111,-1.1111,-1.1111,-1.1111,-1.1111,-1.1111,-1.1111,-1.1111,-1.1111,-1.1111,-1.1186,-1.1632,-1.215,-1.2893,-1.3404,-1.3977,-1.4497,-1.4569,-1.4569,-1.4569,-1.4569,-1.4569,-1.4569,-1.4569,-1.4569,-1.4569,-1.4569,-1.4569,-1.4569,-1.4569,0.0,-1.4569,-1.4657,-1.5309,-1.6575,-1.6788,-1.7521,-1.889,-1.9054,-1.9131,-1.9131,-1.9131,-1.9131,-1.9131,-1.8901,-1.8786,-1.8765,-1.7685,-1.7238,0.0,0.0,0.0,0.0,0.0,0.0,0.0,0.0,0.0,0.0,0.0,0.0,0.0,0.0,0.0,-0.5018,-0.5018,-0.5018,-0.5018,-0.5097,-0.5121,-0.5029,-0.5018,-0.5018,-0.5018,-0.5018,-0.5056,-0.5146,-0.5154,-0.5197,-0.5295,-0.5322,-0.5333,-0.5333,-0.5358,-0.5417,-0.5515,-0.5515,-0.5564,-0.5662,-0.5687,0.0,-0.5697,-0.5722,-0.5733,-0.5733,-0.652,-0.7126,-0.7815,-0.8499,-0.9147,-0.954,-0.9329,-0.9228,-0.9247,-0.899,-0.917,-0.9392,-0.9231,-0.9679,-1.0368,-1.0396,-1.0686,-1.1111,-1.1111,-1.1111,0.0,-1.1111,-1.1111,-1.1111,-1.1111,-1.1111,-1.1186,-1.1706,-1.1929,-1.2298,-1.3397,-1.3688,-1.3977,-1.4497,-1.4569,-1.4569,-1.4569,-1.4569,-1.4569,-1.4569,-1.4569,-1.4569,-1.4569,-1.4569,-1.4569,-1.4569,-1.4569,-1.4569,-1.4569,-1.5168,-1.5446,-1.5051,-1.6242,-1.7264,-1.8155,-1.8783,-1.9131,-1.9243,-1.9264,-1.9341,-1.9473,-1.9433,-1.9445,-1.9413,-1.8426,-1.8002,0.0,0.0,0.0,0.0,0.0,0.0,0.0,0.0,0.0,0.0,0.0,-0.5018,0.0,0.0,-0.5034,-0.5094,-0.5102,-0.5124,-0.5184,-0.5243,-0.5235,-0.5116,-0.5156,-0.5192,-0.5192,-0.5192,-0.5216,-0.5273,-0.5279,-0.5303,-0.5366,-0.5426,-0.5461,-0.5461,-0.5518,-0.5581,-0.5643,-0.5643,-0.5673,-0.5733,-0.5733,-0.5733,-0.5733,-0.5733,-0.5733,-0.5733,-0.6792,-0.7496,-0.7929,-0.899,-0.9602,-0.9812,-0.9668,-0.9537,-0.9294,-0.9184,-0.9314,-0.9453,-0.9209,-0.9666,-1.0302,-1.0203,-1.0605,-1.1111,-1.1111,-1.1111,-1.1111,-1.1111,-1.1111,-1.1111,-1.1111,-1.1111,-1.1186,-1.1484,-1.2003,-1.2599,-1.3258,-1.3768,-1.4274,-1.4569,-1.4569,-1.4569,-1.4569,-1.4569,-1.4569,-1.4569,-1.4569,-1.4569,-1.4569,-1.4569,-1.4569,-1.4569,-1.4569,-1.4569,-1.4569,-1.5345,-1.564,-1.5251,-1.6647,-1.7639,-1.7967,-1.868,-1.9131,-1.9187,-1.9274,-1.9351,-1.9473,-1.9671,-1.9736,-1.9726,-1.9318,-1.8975,0.0,0.0,0.0,0.0,0.0,0.0,0.0,0.0,-0.5018,-0.5018,-0.5034,-0.505,-0.505,-0.5069,-0.5116,-0.5208,-0.5222,-0.5257,-0.5355,-0.539,-0.5368,-0.5268,-0.5325,-0.5368,-0.5368,-0.5368,-0.5379,-0.5404,-0.5404,-0.5415,-0.5439,-0.5532,-0.5499,-0.5499,-0.5681,-0.5733,-0.5733,-0.5733,-0.5733,-0.5733,-0.5733,-0.5733,-0.5733,-0.5733,-0.5733,-0.5733,-0.7064,-0.7753,-0.8074,-0.9318,-0.9854,-1.0038,-1.0038,-0.9763,-0.9411,-0.9365,-0.9412,-0.9471,-0.936,-0.9756,-1.0301,-1.0225,-1.0594,-1.1111,-1.1111,-1.1111,-1.1111,-1.1111,-1.1111,-1.1111,-1.1111,-1.1111,-1.1111,-1.126,-1.2003,-1.2753,-1.29,-1.3695,-1.4418,-1.4418,-1.4497,-1.4569,-1.4569,-1.4569,-1.4569,-1.4569,-1.4569,-1.4569,-1.4569,-1.4569,-1.4569,-1.4569,-1.4569,-1.4569,-1.4569,-1.5168,-1.5598,-1.557,-1.6811,-1.7598,-1.756,-1.8452,-1.8931,-1.8998,-1.9208,-1.9351,-1.9417,-1.9736,-1.9868,-1.9868,-2.0009,-1.9814,-0.337,-0.4075,-0.4229,-0.3919,-0.4153,-0.4462,0.0,0.0,-0.5018,-0.5018,-0.5097,-0.5167,-0.5167,-0.5257,-0.5333,-0.5347,-0.5349,-0.5355,-0.5368,-0.5464,-0.5526,-0.5424,-0.5426,-0.5368,-0.5368,-0.5368,-0.5415,-0.5523,-0.5529,-0.5578,-0.5687,-0.5706,-0.5711,-0.5711,-0.5727,-0.5733,-0.5733,-0.5733,-0.5733,-0.5733,-0.5733,-0.5733,-0.5733,-0.5733,-0.5733,-0.5733,-0.652,-0.7647,-0.8761,-0.8939,-0.9396,-1.0038,-1.0038,-0.9951,-0.9932,-0.9661,-0.9838,-1.0105,-1.0377,-1.0546,-1.0784,-1.1226,-1.1204,-1.1111,-1.1111,-1.1111,-1.1111,-1.1111,-1.1111,-1.1111,-1.1111,-1.1111,-1.126,-1.1781,-1.2003,-1.2231,-1.2746,-1.3404,-1.3905,-1.3905,-1.4274,-1.4569,-1.4569,-1.4569,-1.4569,-1.4569,-1.4569,-1.4569,-1.4569,-1.4569,-1.4569,-1.4569,-1.4569,-1.4569,-1.4569,-1.4657,-1.4721,-1.4697,-1.5551,-1.6044,-1.6044,-1.7491,-1.8375,-1.8576,-1.9198,-1.9671,-1.9802,-1.9868,-1.9868,-1.9868,-2.0009,-2.0053,-0.3137,-0.3919,0.0,0.0,-0.4117,-0.4793,-0.4557,-0.4849,-0.5222,-0.5222,-0.526,-0.5292,-0.5292,-0.5333,-0.5393,0.0,-0.5474,-0.5499,-0.557,-0.5624,-0.5657,-0.5657,-0.561,-0.5581,-0.5581,-0.5581,-0.5602,-0.5654,-0.5657,-0.5681,-0.573,-0.5733,-0.5733,-0.5733,-0.5733,-0.5733,-0.5733,-0.5733,-0.5733,-0.5733,-0.5733,-0.5733,-0.5733,-0.5733,-0.5916,-0.6367,-0.7044,-0.7918,-0.8894,-0.9318,-0.9763,-1.0038,-1.0038,-1.0038,-0.9951,-0.9859,-0.9946,-1.0111,-1.0066,-1.0264,-1.0603,-1.0744,-1.0942,-1.1111,-1.1111,-1.1111,-1.1111,-1.1111,-1.1111,-1.1111,-1.1111,-1.1111,-1.1186,-1.1409,-1.1706,-1.2077,-1.2298,-1.3105,-1.3833,-1.3833,-1.4201,-1.4569,-1.4569,-1.4569,-1.4569,-1.4569,-1.4569,-1.4569,-1.4569,-1.4569,-1.4569,-1.4569,-1.4569,-1.4569,-1.4569,-1.4569,-1.4569,-1.4569,-1.5338,-1.5833,-1.5833,-1.6872,-1.7687,-1.8307,-1.871,-1.9264,-1.9868,-2.0009,-2.0009,-2.0009,-2.0074,-2.0085,-0.3372,0.0,0.0,-0.3638,-0.4248,-0.5036,-0.4824,-0.5141,-0.5368,-0.5368,-0.5396,-0.542,-0.542,-0.5447,-0.5499,-0.5586,-0.5515,-0.5632,-0.5722,-0.5733,-0.5733,-0.5733,-0.5733,-0.5733,-0.5733,-0.5733,-0.5733,-0.5733,-0.5733,-0.5733,-0.5733,-0.5733,-0.5733,-0.5733,-0.5733,-0.5733,-0.5733,-0.5733,-0.5733,-0.5733,-0.5733,-0.5733,-0.5733,-0.5733,-0.6005,-0.6551,-0.7221,-0.7921,-0.8652,-0.9428,-0.9772,-1.0038,-1.0038,-1.0038,-1.0038,-1.0038,-1.0038,-0.9946,-0.9937,-1.0124,-1.0437,-1.0439,-1.0744,-1.1057,-1.1061,-1.1111,-1.1111,-1.1111,-1.1111,-1.1111,-1.1111,-1.1111,-1.1111,-1.1111,-1.1409,-1.1781,-1.1781,-1.2586,-1.3324,-1.3542,-1.384,-1.4201,-1.4569,-1.4497,-1.4418,-1.4569,-1.4569,-1.4569,-1.4569,-1.4569,-1.4569,-1.4569,-1.4569,-1.4569,-1.4569,-1.4569,-1.4569,-1.4569,-1.5267,-1.5621,-1.5621,-1.6455,-1.7345,-1.8104,-1.8509,-1.9054,-1.9868,-2.0009,-2.0009,-2.0074,-2.0074,-2.0085,-0.4384,0.0,-0.4408,-0.4513,-0.4622,-0.4732,-0.5256,-0.5366,-0.5368,-0.5368,-0.5464,-0.5459,-0.5459,-0.5643,-0.5725,-0.5727,-0.5727,-0.573,-0.5733,-0.5733,-0.5733,-0.5733,-0.5733,-0.5733,-0.5733,-0.5733,-0.5733,-0.5733,-0.5733,-0.5733,-0.5733,-0.5733,-0.5733,-0.5733,-0.5733,-0.5733,-0.5733,-0.5733,-0.5733,-0.5733,-0.5733,-0.5733,-0.5733,-0.5733,-0.5733,-0.5733,-0.6517,-0.7217,-0.7921,-0.8627,-0.9331,-1.0038,-1.0038,-1.0038,-1.0038,-1.0038,-1.0038,-1.0038,-1.0463,-1.0404,-1.0345,-1.0935,-1.1016,-1.0844,-1.1045,-1.1111,-1.1111,-1.1111,-1.1111,-1.1111,-1.1111,-1.1111,-1.1111,-1.1111,-1.1111,-1.1111,-1.1111,-1.1632,-1.2224,-1.2826,-1.2973,-1.3331,-1.4425,-1.4201,-1.3977,-1.4497,-1.4569,-1.4569,-1.4569,-1.4569,-1.4569,-1.4569,-1.4569,-1.4569,-1.4569,-1.4569,-1.4569,-1.4569,-1.4991,-1.5204,-1.5204,-1.6446,-1.7345,-1.7969,-1.8721,-1.933,-1.9868,-1.9868,-1.9933,-1.9933,-2.0009,-2.0085,-0.4552,0.0,-0.4916,-0.4705,-0.4951,-0.527,-0.5395,-0.5553,-0.5589,-0.5507,-0.5586,-0.5648,-0.548,-0.5497,-0.5526,-0.5526,-0.5545,-0.5521,-0.5602,-0.5526,-0.5643,-0.5725,-0.5733,0.0,-0.5733,-0.5733,-0.5733,-0.5733,-0.5733,-0.5733,-0.5733,-0.5733,-0.5733,-0.5733,-0.5733,-0.5733,-0.5733,-0.5733,-0.5733,-0.5733,-0.5733,-0.5733,-0.5733,-0.5733,-0.5733,-0.5733,-0.6956,-0.757,-0.7921,-0.9157,-0.9772,-1.0038,-1.0038,-1.0038,-1.0038,-1.0038,-1.0038,-1.0038,-1.012,-1.0238,-1.0188,-1.03,-1.0386,-1.0456,-1.0604,-1.0686,-1.0755,-1.1043,-1.1111,-1.1111,-1.1111,-1.1111,-1.1111,-1.1111,-1.1111,-1.1111,-1.1111,-1.1558,-1.2077,-1.2224,-1.2599,-1.3046,-1.3404,-1.3615,-1.3977,-1.4497,-1.4569,-1.4569,-1.4569,-1.4569,-1.4569,-1.4569,-1.4569,-1.4569,-1.4569,-1.4569,-1.4705,-1.4991,-1.5133,-1.5338,-1.5621,-1.6035,-1.6585,-1.7423,-1.8037,-1.871,-1.9518,-1.9868,-2.0009,-2.0009,-2.0074,-2.0085,-0.4846,-0.5057,-0.5199,-0.5068,-0.5238,-0.5475,-0.5518,-0.5643,-0.5646,-0.548,-0.5526,-0.5643,-0.5478,-0.5499,-0.5529,-0.5529,-0.5551,-0.5526,-0.5605,-0.5529,-0.5646,-0.5725,-0.5733,-0.5733,0.0,0.0,-0.5733,-0.5733,-0.5733,-0.5733,-0.5733,-0.5733,-0.5733,-0.5733,-0.5733,-0.5733,-0.5733,-0.5733,-0.5733,-0.5733,-0.5733,-0.5733,-0.5733,-0.5733,-0.5819,-0.6171,-0.7309,-0.7925,-0.8281,-0.951,-1.0038,-1.0038,-1.0038,-1.0038,-1.0038,-1.0038,-1.0038,-1.0038,-1.0038,-1.0034,-1.0139,-1.001,-1.0029,-1.0184,-1.0498,-1.0547,-1.0617,-1.0968,-1.1111,-1.1111,-1.1111,-1.1111,-1.1111,-1.1111,-1.1111,-1.1111,-1.1111,-1.1409,-1.1706,-1.1929,-1.215,-1.2378,-1.282,-1.3404,-1.3977,-1.4497,-1.4569,-1.4569,-1.4569,-1.4569,-1.4569,-1.4569,-1.4569,-1.4641,-1.4776,-1.4776,-1.4919,-1.5204,-1.5417,-1.563,-1.5762,-1.6044,-1.6533,-1.7285,-1.7891,-1.8566,-1.9299,-1.9868,-2.0085,-2.0085,-2.0085,-2.0085,-0.5195,-0.5284,-0.5409,-0.5529,-0.5475,-0.5502,-0.57,-0.5632,-0.5462,-0.5456,-0.5459,-0.5464,0.0,0.0,-0.5725,-0.5725,-0.5719,-0.5716,-0.5725,-0.5725,-0.5727,0.0,0.0,0.0,0.0,0.0,0.0,-0.5733,-0.5733,-0.5733,-0.5733,-0.5733,-0.5733,-0.5733,-0.5733,-0.5733,-0.5733,-0.5733,-0.5733,-0.5733,-0.5733,-0.5733,-0.5733,-0.5733,-0.6083,-0.6868,-0.7482,-0.8193,-0.8999,-0.9689,-1.0038,-1.0038,-1.0038,-1.0038,-1.0038,-1.0038,-1.0038,-1.0038,-1.0038,-1.0038,-1.0,-1.0124,-1.0,-0.9999,-1.0565,-1.0634,-1.0541,-1.0968,-1.1111,-1.1111,-1.1111,-1.1111,-1.1111,-1.1111,-1.1111,-1.1111,-1.1111,-1.1111,-1.126,-1.1855,-1.1484,-1.1484,-1.2673,-1.3404,-1.3977,-1.4489,-1.4569,-1.4569,-1.4569,-1.4569,-1.4569,-1.4569,-1.4569,-1.4776,-1.5204,-1.5204,-1.5204,-1.5204,-1.5921,-1.6123,-1.5833,-1.6473,-1.7107,-1.7638,-1.8172,-1.87,-1.9233,-1.9802,-2.0074,-2.0085,-2.0085,-2.0085,-0.5298,-0.5412,-0.5534,-0.5657,-0.5687,-0.567,-0.5523,-0.5486,-0.5526,-0.5434,-0.5488,-0.5464,0.0,0.0,0.0,-0.551,-0.5521,0.0,-0.5583,-0.551,0.0,-0.5722,0.0,-0.5733,-0.5733,-0.5733,0.0,-0.5733,-0.5733,-0.5733,-0.5733,-0.5733,-0.5733,-0.5733,-0.5733,-0.5733,-0.5733,-0.5733,-0.5733,-0.5733,-0.5733,-0.5733,-0.5733,-0.5733,-0.6094,-0.6815,-0.751,-0.8216,-0.8928,-0.9694,-1.0038,-1.0038,-1.0038,-1.0038,-1.0038,-1.0038,-1.0038,-1.0038,-1.0038,-1.0038,-0.9995,-0.9827,-0.9707,-0.9736,-1.0004,-1.0225,-1.0366,-1.0738,-1.095,-1.1111,-1.1111,-1.1111,-1.1111,-1.1111,-1.1111,-1.1111,-1.1111,-1.1111,-1.1186,-1.1335,-1.1186,-1.1484,-1.2673,-1.3039,-1.3477,-1.4425,-1.4569,-1.4569,-1.4569,-1.4569,-1.4569,-1.4569,-1.4569,-1.4776,-1.5204,-1.5204,-1.5346,-1.5621,-1.5833,-1.5982,-1.6202,-1.6342,-1.6691,-1.7107,-1.7638,-1.8172,-1.87,-1.9243,-1.9726,-2.0085,-2.0085,-2.0085,-0.5415,-0.5537,-0.5648,-0.5716,-0.5692,-0.5635,-0.548,-0.551,-0.5453,-0.5382,-0.5466,0.0,-0.5464,-0.5507,0.0,0.0,0.0,0.0,-0.5621,-0.5629,-0.5657,0.0,-0.5733,0.0,-0.5733,-0.5733,-0.5733,-0.5733,-0.5733,-0.5733,-0.5733,-0.5733,-0.5733,-0.5733,-0.5733,-0.5733,-0.5733,-0.5733,-0.5733,-0.5733,-0.5733,-0.5733,-0.5733,-0.5733,-0.6266,-0.7245,-0.768,-0.8384,-0.9441,-0.9868,-1.0038,-1.0038,-1.0038,-1.0038,-1.0038,-1.0038,-1.0038,-1.0038,-1.0038,-1.0038,-1.0014,-0.9862,-0.9667,-0.9638,-0.9927,-1.0178,-1.0404,-1.0738,-1.1057,-1.1235,-1.1154,-1.1111,-1.1111,-1.1111,-1.1111,-1.1111,-1.1111,-1.1111,-1.1111,-1.1111,-1.1111,-1.1409,-1.2305,-1.2746,-1.3185,-1.4129,-1.4425,-1.4569,-1.4569,-1.4569,-1.4569,-1.4569,-1.4569,-1.4848,-1.5409,-1.5267,-1.5338,-1.5762,-1.5903,-1.6053,-1.6053,-1.6412,-1.67,-1.6908,-1.7442,-1.7842,-1.8172,-1.89,-1.9441,-1.9726,-2.0009,-2.0085,-0.5496,-0.5627,-0.573,-0.5714,-0.5629,-0.5456,-0.5424,-0.5434,-0.5368,-0.5368,0.0,-0.547,-0.5486,-0.5662,-0.5733,-0.5733,0.0,-0.5733,-0.5733,-0.5733,-0.5733,-0.5733,-0.5733,-0.5733,-0.5733,-0.5733,-0.5733,-0.5733,-0.5733,-0.5733,-0.5733,-0.5733,-0.5733,-0.5733,-0.5733,-0.5733,-0.5733,-0.5733,-0.5733,-0.5733,-0.5733,-0.5733,-0.5733,-0.5733,-0.6435,-0.7837,-0.7834,-0.8627,-1.0038,-1.0038,-1.0038,-1.0038,-1.0038,-1.0038,-1.0038,-1.0038,-1.0038,-1.0038,-1.0038,-1.0038,-1.0038,-1.0038,-0.9833,-0.9719,-1.0082,-1.0384,-1.0635,-1.0804,-1.1124,-1.142,-1.1175,-1.1141,-1.1111,-1.1111,-1.1111,-1.1111,-1.1111,-1.1111,-1.1111,-1.1111,-1.1111,-1.126,-1.1929,-1.2526,-1.3112,-1.3688,-1.4274,-1.4569,-1.4497,-1.4569,-1.4569,-1.4569,-1.4569,-1.4919,-1.5762,-1.548,-1.5488,-1.5833,-1.6123,-1.6202,-1.5903,-1.6473,-1.6839,-1.6908,-1.7373,-1.7638,-1.7706,-1.87,-1.9233,-1.9299,-1.9868,-2.0085,-0.5396,-0.5564,-0.5708,-0.5521,-0.548,-0.5496,-0.5295,-0.5311,0.0,0.0,-0.5466,-0.5494,-0.5684,-0.5719,-0.5733,-0.5733,0.0,0.0,0.0,0.0,-0.5733,0.0,0.0,-0.5733,-0.5733,-0.5733,0.0,-0.5733,-0.5733,-0.5733,-0.5733,-0.5733,-0.5733,-0.5733,-0.5733,-0.5733,-0.5733,-0.5733,-0.5733,-0.5733,-0.5733,-0.5733,-0.5733,-0.5733,-0.6444,-0.7775,-0.7841,-0.8627,-1.0038,-1.0038,-1.0038,-1.0038,-1.0038,-1.0038,-1.0038,-1.0038,-1.0038,-1.0038,-1.0038,-1.0038,-1.0038,-1.0038,-0.9927,-0.9904,-1.0028,-1.0423,-1.0889,-1.0865,-1.1175,-1.1462,-1.1414,-1.1286,-1.1111,-1.1111,-1.1111,-1.1111,-1.1111,-1.1111,-1.1111,-1.1111,-1.1111,-1.126,-1.1929,-1.2526,-1.3112,-1.3688,-1.4274,-1.4418,-1.3977,-1.4346,-1.4569,-1.4569,-1.4569,-1.4919,-1.5762,-1.5762,-1.5833,-1.6202,-1.6272,-1.6272,-1.6202,-1.6342,-1.6551,-1.6908,-1.6968,-1.7245,-1.7706,-1.8307,-1.8834,-1.9299,-1.9868,-2.0085,-0.5445,-0.5551,-0.5624,-0.5478,-0.5455,-0.533,-0.5214,0.0,0.0,0.0,-0.5515,-0.5662,-0.5722,0.0,0.0,0.0,0.0,0.0,0.0,0.0,0.0,0.0,0.0,0.0,0.0,-0.5733,-0.5733,-0.5733,-0.5733,-0.5733,-0.5733,-0.5733,-0.5733,-0.5733,-0.5733,-0.5733,-0.5733,-0.5733,-0.5733,-0.5733,-0.5733,-0.5733,-0.5733,-0.5733,-0.6456,-0.7808,-0.7826,-0.8599,-1.0038,-1.0038,-1.0038,-1.0038,-1.0038,-1.0038,-1.0038,-1.0038,-1.0038,-1.0038,-1.0038,-1.0038,-1.0038,-1.0038,-1.0038,-1.0038,-1.0038,-1.0386,-1.0752,-1.0856,-1.1182,-1.1519,-1.1534,-1.1431,-1.1292,-1.1148,-1.1111,-1.1111,-1.1111,-1.1111,-1.1111,-1.1111,-1.1111,-1.1186,-1.1484,-1.2003,-1.2519,-1.2806,-1.3324,-1.3622,-1.3331,-1.355,-1.384,-1.4129,-1.4346,-1.4848,-1.5692,-1.5833,-1.5903,-1.6272,-1.6272,-1.6272,-1.6272,-1.6482,-1.67,-1.6908,-1.6908,-1.7038,-1.7304,-1.7842,-1.8375,-1.89,-1.9452,-1.9868,-0.5447,-0.5491,-0.5504,-0.548,-0.5328,-0.5178,-0.5156,-0.5262,0.0,0.0,-0.5564,-0.5733,-0.5733,0.0,-0.5733,0.0,-0.5733,0.0,0.0,0.0,0.0,0.0,0.0,0.0,-0.5733,-0.5733,0.0,-0.5733,-0.5733,-0.5733,-0.5733,-0.5733,-0.5733,-0.5733,-0.5733,-0.5733,-0.5733,-0.5733,-0.5733,-0.5733,-0.5733,-0.5733,-0.5733,-0.5733,-0.6459,-0.7819,-0.783,-0.8599,-1.0038,-1.0038,-1.0038,-1.0038,-1.0038,-1.0038,-1.0038,-1.0038,-1.0038,-1.0038,-1.0038,-1.0038,-1.0038,-1.0038,-1.0038,-1.0038,-1.0038,-1.0313,-1.0621,-1.0942,-1.1294,-1.164,-1.1647,-1.1618,-1.1461,-1.1178,-1.1111,-1.1111,-1.1111,-1.1111,-1.1111,-1.1111,-1.1111,-1.1111,-1.1111,-1.1632,-1.2003,-1.2003,-1.2526,-1.2826,-1.2746,-1.2673,-1.2893,-1.339,-1.376,-1.441,-1.5551,-1.5621,-1.5833,-1.6412,-1.6421,-1.6421,-1.6421,-1.676,-1.6908,-1.6908,-1.6908,-1.6908,-1.6908,-1.7442,-1.7978,-1.8499,-1.9034,-1.9584,-0.5216,-0.5301,-0.536,-0.5249,-0.5203,-0.5159,-0.5056,0.0,0.0,-0.5368,-0.5564,-0.5733,-0.5733,-0.5733,-0.5733,-0.5733,0.0,-0.5733,0.0,0.0,0.0,0.0,0.0,0.0,-0.5733,-0.5733,-0.5733,-0.5733,-0.5733,-0.5733,-0.5733,-0.5733,-0.5733,-0.5733,-0.5733,-0.5733,-0.5733,-0.5733,-0.5733,-0.5733,-0.5733,-0.5733,-0.5733,-0.5733,-0.6447,-0.7786,-0.7812,-0.8681,-1.0038,-1.0038,-1.0038,-1.0038,-1.0038,-1.0038,-1.0038,-1.0038,-1.0038,-1.0038,-1.0038,-1.0038,-1.0038,-1.0038,-1.0038,-1.0038,-1.0038,-1.0294,-1.0722,-1.1117,-1.1472,-1.1721,-1.2087,-1.189,-1.1461,-1.1178,-1.1111,-1.1111,-1.1111,-1.1111,-1.1111,-1.1111,-1.1111,-1.1111,-1.1111,-1.1632,-1.2003,-1.2003,-1.2526,-1.2673,-1.215,-1.2077,-1.2077,-1.215,-1.2673,-1.3542,-1.4903,-1.4974,-1.5542,-1.676,-1.6839,-1.6839,-1.6839,-1.6908,-1.6908,-1.6908,-1.6908,-1.6908,-1.6908,-1.7442,-1.7978,-1.8499,-1.9034,-1.9584,-0.5186,-0.5222,-0.5246,-0.52,-0.5135,-0.5072,-0.5026,0.0,-0.5281,-0.5355,-0.5504,-0.5646,-0.5719,-0.5733,-0.5733,-0.5733,-0.5733,0.0,-0.5733,0.0,0.0,0.0,0.0,0.0,0.0,0.0,-0.5733,-0.5733,-0.5733,-0.5733,-0.5733,-0.5733,-0.5733,-0.5733,-0.5733,-0.5733,-0.5733,-0.5733,-0.5733,-0.5733,-0.5733,-0.5733,-0.5733,-0.6169,-0.689,-0.7812,-0.8251,-0.902,-1.0038,-1.0038,-1.0038,-1.0038,-1.0038,-1.0038,-1.0038,-1.0038,-1.0038,-1.0038,-1.0038,-1.0038,-1.0038,-1.0038,-1.0038,-1.0038,-1.0038,-1.012,-1.0294,-1.0722,-1.1171,-1.1494,-1.1767,-1.168,-1.1461,-1.1178,-1.1111,-1.1111,-1.1111,-1.1111,-1.1111,-1.1111,-1.1111,-1.1111,-1.1111,-1.1335,-1.1484,-1.1484,-1.1632,-1.1706,-1.1484,-1.1484,-1.1484,-1.1484,-1.2218,-1.3091,-1.4106,-1.4824,-1.5542,-1.6193,-1.6621,-1.6908,-1.6908,-1.6908,-1.6908,-1.6908,-1.6908,-1.6908,-1.6908,-1.7107,-1.751,-1.8037,-1.8576,-1.911,-0.5137,-0.5137,-0.5137,-0.5137,-0.5075,-0.5018,0.0,0.0,-0.5222,-0.5344,-0.5466,-0.5502,-0.5711,-0.5733,-0.5733,-0.5733,-0.5733,-0.5733,-0.5733,0.0,0.0,0.0,0.0,-0.5733,0.0,-0.5733,-0.5733,-0.5733,-0.5733,-0.5733,-0.5733,-0.5733,-0.5733,-0.5733,-0.5733,-0.5733,-0.5733,-0.5733,-0.5733,-0.5733,-0.5733,-0.5733,-0.5733,-0.6428,-0.7153,-0.7808,-0.8572,-0.934,-1.0038,-1.0038,-1.0038,-1.0038,-1.0038,-1.0038,-1.0038,-1.0038,-1.0038,-1.0038,-1.0038,-1.0038,-1.0038,-1.0038,-1.0038,-1.0038,-1.0038,-1.0038,-1.0125,-1.0463,-1.1063,-1.1514,-1.1621,-1.168,-1.1558,-1.1196,-1.1111,-1.1111,-1.1111,-1.1111,-1.1111,-1.1111,-1.1111,-1.1111,-1.1111,-1.1111,-1.1111,-1.1111,-1.1111,-1.1111,-1.1111,-1.1111,-1.1111,-1.1111,-1.1768,-1.2572,-1.3375,-1.453,-1.5321,-1.5762,-1.6403,-1.6769,-1.6908,-1.6769,-1.6769,-1.6908,-1.6908,-1.6908,-1.6908,-1.6908,-1.7176,-1.7706,-1.824,-1.8844,-0.5018,-0.5018,-0.5018,-0.5018,-0.5018,-0.5018,0.0,0.0,-0.5222,-0.5344,-0.5466,-0.5502,-0.5711,-0.5733,-0.5733,-0.5733,-0.5733,-0.5733,-0.5733,0.0,0.0,0.0,0.0,-0.5733,-0.5733,-0.5733,-0.5733,-0.5733,-0.5733,-0.5733,-0.5733,-0.5733,-0.5733,-0.5733,-0.5733,-0.5733,-0.5733,-0.5733,-0.5733,-0.5733,-0.5733,-0.5733,-0.5733,-0.6428,-0.7129,-0.7834,-0.8599,-0.9305,-1.0038,-1.0038,-1.0038,-1.0038,-1.0038,-1.0038,-1.0038,-1.0038,-1.0038,-1.0038,-1.0038,-1.0038,-1.0038,-1.0038,-1.0038,-1.0038,-1.0038,-1.0038,-1.0125,-1.0463,-1.1241,-1.1985,-1.1897,-1.192,-1.1781,-1.1238,-1.1111,-1.1111,-1.1111,-1.1111,-1.1111,-1.1111,-1.1111,-1.1111,-1.1111,-1.1111,-1.1111,-1.1111,-1.1111,-1.1111,-1.1111,-1.1111,-1.1111,-1.1111,-1.126,-1.1848,-1.2792,-1.3803,-1.4736,-1.5762,-1.6123,-1.6482,-1.6908,-1.6482,-1.6482,-1.6908,-1.6908,-1.6908,-1.6908,-1.6908,-1.7176,-1.7706,-1.824,-1.9054,-0.5018,-0.5018,-0.5018,-0.5018,-0.5018,-0.5018,-0.5018,0.0,-0.5102,-0.5219,-0.5341,-0.5464,-0.5586,-0.5678,-0.5733,-0.5733,-0.5733,-0.5733,0.0,0.0,0.0,0.0,-0.5733,-0.5733,0.0,-0.5733,-0.5733,-0.5733,-0.5733,-0.5733,-0.5733,-0.5733,-0.5733,-0.5733,-0.5733,-0.5733,-0.5733,-0.5733,-0.5733,-0.5733,-0.5733,-0.5733,-0.5733,-0.6959,-0.7566,-0.7906,-0.9139,-0.9763,-1.0038,-1.0038,-1.0038,-1.0038,-1.0038,-1.0038,-1.0038,-1.0038,-1.0038,-1.0038,-1.0038,-1.0038,-1.0038,-1.0038,-1.0038,-1.0038,-1.0038,-1.0038,-1.012,-1.0895,-1.1123,-1.1349,-1.1768,-1.1787,-1.1564,-1.1196,-1.1111,-1.1111,-1.1111,-1.1111,-1.1111,-1.1111,-1.1111,-1.1111,-1.1111,-1.1111,-1.1111,-1.1111,-1.1111,-1.1111,-1.1111,-1.1111,-1.1111,-1.1111,-1.1409,-1.1706,-1.207,-1.344,-1.4522,-1.4966,-1.5833,-1.6342,-1.6482,-1.6351,-1.6342,-1.6491,-1.6769,-1.6908,-1.6908,-1.6908,-1.7373,-1.824,-1.8442,-1.9054,0.0,-0.5018,-0.5018,-0.5018,-0.5018,0.0,0.0,0.0,-0.505,-0.5162,-0.5284,-0.5407,-0.5529,-0.5651,-0.5733,-0.5733,-0.5733,-0.5733,0.0,0.0,0.0,0.0,0.0,0.0,0.0,-0.5733,-0.5733,-0.5733,-0.5733,-0.5733,-0.5733,-0.5733,-0.5733,-0.5733,-0.5733,-0.5733,-0.5733,-0.5733,-0.5733,-0.5733,-0.5733,-0.5733,-0.5733,-0.7132,-0.7826,-0.7903,-0.9327,-1.0038,0.0,-1.0038,-1.0038,-1.0038,-1.0038,-1.0038,-1.0038,-1.0038,-1.0038,-1.0038,-1.0038,-1.0038,-1.0038,-1.0038,-1.0038,-1.0038,-1.0038,-1.0038,-1.0188,-1.0942,-1.099,-1.1067,-1.1626,-1.1655,-1.1461,-1.1178,-1.1111,-1.1111,-1.1111,-1.1111,-1.1111,-1.1111,-1.1111,-1.1111,-1.1111,-1.1111,-1.1111,-1.1111,-1.1111,-1.1111,-1.1111,-1.1111,-1.1111,-1.1111,-1.1484,-1.1706,-1.1706,-1.323,-1.4243,-1.4394,-1.5338,-1.5991,-1.6272,-1.6202,-1.6272,-1.6482,-1.676,-1.6908,-1.6908,-1.6908,-1.7442,-1.8509,-1.8509,-1.9054,0.0,-0.5018,0.0,0.0,0.0,0.0,0.0,0.0,0.0,0.0,0.0,0.0,-0.5515,-0.5638,-0.5725,-0.5733,-0.5733,0.0,0.0,0.0,0.0,0.0,-0.5733,0.0,-0.5733,-0.5733,-0.5733,-0.5733,-0.5733,-0.5733,-0.5733,-0.5733,-0.5733,-0.5733,-0.5733,-0.5733,-0.5733,-0.5733,-0.5733,-0.5733,-0.5733,-0.5733,-0.5733,-0.7132,-0.7738,-0.7903,-0.9327,-0.9951,-1.0038,-1.0038,-1.0038,-1.0038,-1.0038,-1.0038,-1.0038,-1.0038,-1.0038,-1.0038,-1.0038,-1.0038,-1.0038,-1.0038,-1.0038,-1.0038,-1.0038,-1.0038,-1.0154,-1.0726,-1.0912,-1.0996,-1.1419,-1.1516,-1.1437,-1.1172,-1.1111,-1.1111,-1.1111,-1.1111,-1.1111,-1.1111,-1.1111,-1.1111,-1.1111,-1.1111,-1.1111,-1.1111,-1.1111,-1.1111,-1.1111,-1.1111,-1.1111,-1.1111,-1.1484,-1.1706,-1.1706,-1.3091,-1.397,-1.397,-1.4768,-1.5559,-1.6272,-1.5982,-1.6193,-1.6839,-1.6908,-1.6908,-1.6908,-1.6908,-1.7442,-1.8432,-1.8499,-1.9054,-0.5018,0.0,-0.5018,-0.5018,-0.5018,-0.5018,0.0,0.0,0.0,0.0,0.0,0.0,0.0,0.0,-0.5624,-0.5719,-0.5733,-0.5733,0.0,0.0,0.0,0.0,-0.5733,-0.5733,-0.5733,-0.5733,-0.5733,-0.5733,-0.5733,-0.5733,-0.5733,-0.5733,-0.5733,-0.5733,-0.5733,-0.5733,-0.5733,-0.5733,-0.5733,-0.5733,-0.5733,-0.5733,-0.5733,-0.6605,-0.7305,-0.783,-0.8803,-0.9506,-1.0038,-1.0038,-1.0038,-1.0038,-1.0038,-1.0038,-1.0038,-1.0038,-1.0038,-1.0038,-1.0038,-1.0038,-1.0038,-1.0038,-1.0038,-1.0038,-1.0038,-1.0038,-1.0154,-1.0726,-1.0789,-1.071,-1.1337,-1.1371,-1.119,-1.1129,-1.1111,-1.1111,-1.1111,-1.1111,-1.1111,-1.1111,-1.1111,-1.1111,-1.1111,-1.1111,-1.1111,-1.1111,-1.1111,-1.1111,-1.1111,-1.1111,-1.1111,-1.1111,-1.1335,-1.1484,-1.1484,-1.3018,-1.397,-1.397,-1.5046,-1.5771,-1.5912,-1.6123,-1.6272,-1.6412,-1.6769,-1.6908,-1.6908,-1.6908,-1.7245,-1.791,-1.8307,-1.8844,-0.5018,-0.5018,-0.5018,-0.5018,-0.5018,-0.5018,0.0,0.0,0.0,0.0,0.0,0.0,0.0,0.0,0.0,0.0,-0.5733,0.0,0.0,0.0,0.0,-0.5733,-0.5733,-0.5733,-0.5733,-0.5733,-0.5733,-0.5733,-0.5733,-0.5733,-0.5733,-0.5733,-0.5733,-0.5733,-0.5733,-0.5733,-0.5733,-0.5733,-0.5733,-0.5733,-0.5733,-0.5733,-0.5733,-0.6428,-0.7041,-0.7394,-0.8448,-0.9157,-0.951,-0.9864,-1.0038,-1.0038,-1.0038,-1.0038,-1.0038,-1.0038,-1.0038,-1.0038,-1.0038,-1.0038,-1.0038,-1.0038,-1.0038,-1.0038,-1.0038,-1.0038,-1.0096,-1.0559,-1.0587,-1.0639,-1.1153,-1.1226,-1.1111,-1.1111,-1.1111,-1.1111,-1.1111,-1.1111,-1.1111,-1.1111,-1.1111,-1.1111,-1.1111,-1.1111,-1.1111,-1.1111,-1.1111,-1.1111,-1.1111,-1.1111,-1.1111,-1.1111,-1.126,-1.1409,-1.1409,-1.2732,-1.3688,-1.3818,-1.4903,-1.57,-1.6053,-1.6202,-1.6421,-1.6551,-1.6769,-1.6908,-1.6908,-1.6908,-1.7176,-1.7706,-1.824,-1.8767,-0.5018,-0.5018,-0.5018,-0.5018,-0.5018,-0.5018,0.0,0.0,0.0,0.0,0.0,0.0,0.0,0.0,0.0,0.0,0.0,0.0,0.0,0.0,0.0,-0.5733,-0.5733,-0.5733,-0.5733,-0.5733,-0.5733,-0.5733,-0.5733,-0.5733,-0.5733,-0.5733,-0.5733,-0.5733,-0.5733,-0.5733,-0.5733,-0.5733,-0.5733,-0.5733,-0.5733,-0.5733,-0.5733,-0.6343,-0.6779,-0.7041,-0.8185,-0.889,-0.9157,-0.9772,-1.0038,-1.0038,-1.0038,-1.0038,-1.0038,-1.0038,-1.0038,-1.0038,-1.0038,-1.0038,-1.0038,-1.0038,-1.0038,-1.0038,-1.0038,-1.0038,-1.0043,-1.041,-1.0471,-1.0612,-1.0948,-1.1067,-1.1111,-1.1111,-1.1111,-1.1111,-1.1111,-1.1111,-1.1111,-1.1111,-1.1111,-1.1111,-1.1111,-1.1111,-1.1111,-1.1111,-1.1111,-1.1111,-1.1111,-1.1111,-1.1111,-1.1111,-1.126,-1.1335,-1.1335,-1.2378,-1.3185,-1.3673,-1.4617,-1.5559,-1.6272,-1.6272,-1.6491,-1.6908,-1.6908,-1.6908,-1.6908,-1.6908,-1.7107,-1.7569,-1.824,-1.8767,-0.5018,-0.5018,-0.5018,-0.5018,-0.5018,-0.5018,-0.5018,0.0,0.0,0.0,0.0,0.0,0.0,0.0,0.0,0.0,0.0,0.0,0.0,0.0,-0.5733,-0.5733,0.0,-0.5733,-0.5733,-0.5733,-0.5733,-0.5733,-0.5733,-0.5733,-0.5733,-0.5733,-0.5733,-0.5733,-0.5733,-0.5733,-0.5733,-0.5733,-0.5733,-0.5733,-0.5733,-0.5733,-0.5733,-0.5822,-0.652,-0.7658,-0.7834,-0.8715,-0.9864,-0.9951,-1.0038,-1.0038,-1.0038,-1.0038,-1.0038,-1.0038,-1.0038,-1.0038,-1.0038,-1.0038,-1.0038,-1.0038,-1.0038,-1.0038,-1.0038,-1.0038,-1.0038,-1.0226,-1.0377,-1.0578,-1.0795,-1.0983,-1.1111,-1.1111,-1.1111,-1.1111,-1.1111,-1.1111,-1.1111,-1.1111,-1.1111,-1.1111,-1.1111,-1.1111,-1.1111,-1.1111,-1.1111,-1.1111,-1.1111,-1.1111,-1.1111,-1.1111,-1.1111,-1.1186,-1.1186,-1.1781,-1.2592,-1.3462,-1.4545,-1.5559,-1.6272,-1.6272,-1.6491,-1.6908,-1.6908,-1.6908,-1.6908,-1.6908,-1.6968,-1.7038,-1.8037,-1.8566,-0.5018,-0.5018,-0.5018,-0.5018,-0.5018,-0.5018,-0.5018,0.0,0.0,0.0,0.0,0.0,0.0,0.0,0.0,0.0,0.0,-0.5733,-0.5733,-0.5733,-0.5733,0.0,-0.5733,-0.5733,-0.5733,-0.5733,-0.5733,-0.5733,-0.5733,-0.5733,-0.5733,-0.5733,-0.5733,-0.5733,-0.5733,-0.5733,-0.5733,-0.5733,-0.5733,-0.5733,-0.5733,-0.5733,-0.5733,-0.5733,-0.6086,-0.6697,-0.7044,-0.7834,-0.8803,-0.9244,-0.9598,-1.0038,-1.0038,-1.0038,-1.0038,-1.0038,-1.0038,-1.0038,-1.0038,-1.0038,-1.0038,-1.0038,-1.0038,-1.0038,-1.0038,-1.0038,-1.0038,-1.0043,-1.0289,-1.0515,-1.0735,-1.0971,-1.1111,-1.1111,-1.1111,-1.1111,-1.1111,-1.1111,-1.1111,-1.1111,-1.1111,-1.1111,-1.1111,-1.1111,-1.1111,-1.1111,-1.1111,-1.1111,-1.1111,-1.1111,-1.1111,-1.1111,-1.1111,-1.1111,-1.1111,-1.1632,-1.2512,-1.3825,-1.5125,-1.5921,-1.6272,-1.6491,-1.6691,-1.6908,-1.6908,-1.6908,-1.6908,-1.6908,-1.6908,-1.6908,-1.7969,-1.8509,-0.5018,-0.5018,-0.5018,-0.5018,0.0,-0.5018,-0.5018,0.0,0.0,0.0,0.0,0.0,0.0,0.0,0.0,0.0,-0.5733,-0.5733,-0.5733,-0.5733,-0.5733,-0.5733,-0.5733,-0.5733,-0.5733,-0.5733,-0.5733,-0.5733,-0.5733,-0.5733,-0.5733,-0.5733,-0.5733,-0.5733,-0.5733,-0.5733,-0.5733,-0.5733,-0.5733,-0.5733,-0.5733,-0.5733,-0.5733,-0.5733,-0.5819,-0.5994,-0.6517,-0.7217,-0.7834,-0.8627,-0.9244,-0.9772,-0.9951,-1.0038,-1.0038,-1.0038,-1.0038,-1.0038,-1.0038,-1.0038,-1.0038,-1.0038,-1.0038,-1.0038,-1.0038,-1.0038,-1.0038,-1.0038,-1.0183,-1.0418,-1.0534,-1.0798,-1.0962,-1.0962,-1.1037,-1.1111,-1.1111,-1.1111,-1.1111,-1.1111,-1.1111,-1.1111,-1.1111,-1.1111,-1.1111,-1.1111,-1.1111,-1.1111,-1.1111,-1.1111,-1.1111,-1.1111,-1.1111,-1.1111,-1.1111,-1.1632,-1.2586,-1.3905,-1.5054,-1.5842,-1.6202,-1.6482,-1.6691,-1.6908,-1.6908,-1.6908,-1.6908,-1.6908,-1.6908,-1.6908,-1.7833,-1.8375,-0.5018,-0.5018,-0.5018,-0.5018,-0.5018,0.0,-0.5018,-0.5018,0.0,0.0,0.0,0.0,0.0,0.0,0.0,0.0,-0.5733,-0.5733,-0.5733,-0.5733,-0.5733,-0.5733,-0.5733,-0.5733,-0.5733,-0.5733,-0.5733,-0.5733,-0.5733,-0.5733,-0.5733,-0.5733,-0.5733,-0.5733,-0.5733,-0.5733,-0.5733,-0.5733,-0.5733,-0.5733,-0.5733,-0.5733,-0.5733,-0.5733,-0.6083,-0.6691,-0.6779,-0.7217,-0.7834,-0.8627,-0.889,-0.9065,-0.9772,-1.0038,-1.0038,-1.0038,-1.0038,-1.0038,-1.0038,-1.0038,-1.0038,-1.0038,-1.0038,-1.0038,-1.0038,-1.0038,-1.0038,-1.0038,-1.0123,-1.0138,-1.0024,-1.0266,-1.0519,-1.0519,-1.0812,-1.1111,-1.1111,-1.1111,-1.1111,-1.1111,-1.1111,-1.1111,-1.1111,-1.1111,-1.1111,-1.1111,-1.1111,-1.1111,-1.1111,-1.1111,-1.1111,-1.1111,-1.1111,-1.1111,-1.1111,-1.1632,-1.2298,-1.2966,-1.3615,-1.4545,-1.5762,-1.5833,-1.6193,-1.6908,-1.6908,-1.6908,-1.6908,-1.6908,-1.6908,-1.6908,-1.751,-1.8037,-0.5018,-0.5018,-0.5018,-0.5018,0.0,0.0,0.0,0.0,0.0,0.0,0.0,0.0,0.0,0.0,0.0,-0.5733,-0.5733,-0.5733,-0.5733,-0.5733,-0.5733,-0.5733,-0.5733,-0.5733,-0.5733,-0.5733,-0.5733,-0.5733,-0.5733,-0.5733,-0.5733,-0.5733,-0.5733,-0.5733,-0.5733,-0.5733,-0.5733,-0.5733,-0.5733,-0.5733,-0.5733,-0.5733,-0.5733,-0.5733,-0.5819,-0.6083,-0.6083,-0.6782,-0.7834,-0.8097,-0.8715,-0.9598,-0.9864,-1.0038,-1.0038,-1.0038,-1.0038,-1.0038,-1.0038,-1.0038,-1.0038,-1.0038,-1.0038,-1.0038,-1.0038,-1.0038,-1.0038,-1.0038,-0.9885,-0.9927,-1.0203,-1.0469,-1.0718,-1.0854,-1.0962,-1.1111,-1.1111,-1.1111,-1.1111,-1.1111,-1.1111,-1.1111,-1.1111,-1.1111,-1.1111,-1.1111,-1.1111,-1.1111,-1.1111,-1.1111,-1.1111,-1.1111,-1.1111,-1.1111,-1.1111,-1.1632,-1.2224,-1.2893,-1.3897,-1.4903,-1.5762,-1.6263,-1.6621,-1.6908,-1.6908,-1.6908,-1.6908,-1.6908,-1.6908,-1.6908,-1.7442,-1.7969,-0.5018,-0.4779,-0.4543,0.0,0.0,0.0,0.0,0.0,0.0,0.0,0.0,0.0,0.0,0.0,0.0,0.0,-0.5733,-0.5733,-0.5733,-0.5733,-0.5733,-0.5733,-0.5733,-0.5733,-0.5733,-0.5733,-0.5733,-0.5733,-0.5733,-0.5733,-0.5733,-0.5733,-0.5733,-0.5733,-0.5733,-0.5733,-0.5733,-0.5733,-0.5733,-0.5733,-0.5733,-0.5733,-0.5733,-0.5733,-0.5733,-0.5733,-0.5733,-0.626,-0.7132,-0.7394,-0.8364,-0.9685,-0.9951,-1.0038,-1.0038,-1.0038,-1.0038,-1.0038,-1.0038,-1.0038,-1.0038,-1.0038,-1.0038,-1.0038,-1.0038,-1.0038,-1.0038,-1.0038,-0.9852,-0.9846,-1.0223,-1.0455,-1.0678,-1.0877,-1.1037,-1.1111,-1.1111,-1.1111,-1.1111,-1.1111,-1.1111,-1.1111,-1.1111,-1.1111,-1.1111,-1.1111,-1.1111,-1.1111,-1.1111,-1.1111,-1.1111,-1.1111,-1.1111,-1.1186,-1.1335,-1.1781,-1.2372,-1.3112,-1.4258,-1.5188,-1.5762,-1.6412,-1.676,-1.6908,-1.6908,-1.6908,-1.6908,-1.6908,-1.6908,-1.6908,-1.7304,-1.7842,-0.5018,-0.4226,0.0,0.0,0.0,0.0,0.0,0.0,0.0,0.0,0.0,-0.5445,-0.5689,-0.5733,0.0,-0.5733,-0.5733,-0.5733,-0.5733,-0.5733,-0.5733,-0.5733,-0.5733,-0.5733,-0.5733,-0.5733,-0.5733,-0.5733,-0.5733,-0.5733,-0.5733,-0.5733,-0.5733,-0.5733,-0.5733,-0.5733,-0.5733,-0.5733,-0.5733,-0.5733,-0.5733,-0.5733,-0.5733,-0.5733,-0.5733,-0.5733,-0.5733,-0.5733,-0.5733,-0.6517,-0.7658,-0.8978,-0.9685,-1.0038,-1.0038,-1.0038,-1.0038,-1.0038,-1.0038,-1.0038,-1.0038,-1.0038,-1.0038,-1.0038,-1.0038,-1.0038,-1.0038,-1.0038,-1.0038,-0.9943,-0.9935,-1.0051,-1.0279,-1.0425,-1.0812,-1.1111,-1.1111,-1.1111,-1.1111,-1.1111,-1.1111,-1.1111,-1.1111,-1.1111,-1.1111,-1.1111,-1.1111,-1.1111,-1.1111,-1.1111,-1.1111,-1.1111,-1.1111,-1.1335,-1.1929,-1.2003,-1.2519,-1.3688,-1.4474,-1.5188,-1.5762,-1.6132,-1.6482,-1.6908,-1.6908,-1.6908,-1.6908,-1.6908,-1.6908,-1.6908,-1.6908,-1.7442,-0.4621,0.0,0.0,0.0,0.0,0.0,0.0,0.0,0.0,0.0,0.0,-0.5545,-0.5703,-0.5733,0.0,-0.5733,-0.5733,-0.5733,-0.5733,-0.5733,-0.5733,-0.5733,-0.5733,-0.5733,-0.5733,-0.5733,-0.5733,-0.5733,-0.5733,-0.5733,-0.5733,-0.5733,-0.5733,-0.5733,-0.5733,-0.5733,-0.5733,-0.5733,-0.5733,-0.5733,-0.5733,-0.5733,-0.5733,-0.5733,-0.5733,-0.5733,-0.5733,-0.5994,-0.6605,-0.7746,-0.8536,-0.8978,-0.9685,-1.0038,-1.0038,-1.0038,-1.0038,-1.0038,-1.0038,-1.0038,-1.0038,-1.0038,-1.0038,-1.0038,-1.0038,-1.0038,-1.0038,-1.0038,-1.0038,-0.9943,-0.9935,-1.0176,-1.0417,-1.0464,-1.0812,-1.1111,-1.1111,-1.1111,-1.1111,-1.1111,-1.1111,-1.1111,-1.1111,-1.1111,-1.1111,-1.1111,-1.1111,-1.1111,-1.1111,-1.1111,-1.1111,-1.1111,-1.1111,-1.1335,-1.1929,-1.2378,-1.2966,-1.376,-1.4903,-1.5613,-1.5762,-1.6412,-1.6769,-1.6908,-1.6908,-1.6908,-1.6908,-1.6908,-1.6908,-1.6908,-1.6908,-1.7235,-0.4701,0.0,0.0,0.0,0.0,0.0,0.0,0.0,0.0,0.0,0.0,-0.5515,-0.5638,-0.57,0.0,-0.5733,-0.5733,-0.5733,-0.5733,-0.5733,-0.5733,-0.5733,-0.5733,-0.5733,-0.5733,-0.5733,-0.5733,-0.5733,-0.5733,-0.5733,-0.5733,-0.5733,-0.5733,-0.5733,-0.5733,-0.5733,-0.5733,-0.5733,-0.5733,-0.5733,-0.5733,-0.5733,-0.5733,-0.5733,-0.5733,-0.5733,-0.5733,-0.5997,-0.6432,-0.7921,-0.8448,-0.8536,-0.9598,-1.0038,-1.0038,-1.0038,-1.0038,-1.0038,-1.0038,-1.0038,-1.0038,-1.0038,-1.0038,-1.0038,-1.0038,-1.0038,-1.0038,-1.0038,-0.9894,-0.9838,-0.9916,-1.0155,-1.0385,-1.0458,-1.0812,-1.1111,-1.1111,-1.1111,-1.1111,-1.1111,-1.1111,-1.1111,-1.1111,-1.1111,-1.1111,-1.1111,-1.1111,-1.1111,-1.1111,-1.1111,-1.1111,-1.1111,-1.1111,-1.1409,-1.2298,-1.2673,-1.3258,-1.4049,-1.5196,-1.5833,-1.5833,-1.6482,-1.6908,-1.6908,-1.6908,-1.6908,-1.6908,-1.6908,-1.6908,-1.6908,-1.6908,-1.7176,0.0,0.0,0.0,0.0,0.0,0.0,0.0,0.0,0.0,0.0,0.0,-0.5407,-0.5529,-0.5651,-0.5733,-0.5733,-0.5733,-0.5733,-0.5733,-0.5733,-0.5733,-0.5733,-0.5733,-0.5733,-0.5733,-0.5733,-0.5733,-0.5733,-0.5733,-0.5733,-0.5733,-0.5733,-0.5733,-0.5733,-0.5733,-0.5733,-0.5733,-0.5733,-0.5733,-0.5733,-0.5733,-0.5733,-0.5733,-0.5733,-0.5733,-0.5733,-0.5733,-0.5819,-0.5908,-0.7309,-0.7921,-0.8009,-0.9419,-1.0038,-1.0038,-1.0038,-1.0038,-1.0038,-1.0038,-1.0038,-1.0038,-1.0038,-1.0038,-1.0038,-1.0038,-1.0038,-1.0038,-1.0038,-0.9804,-0.968,-0.9881,-1.0051,-1.0279,-1.0425,-1.0812,-1.1111,-1.1111,-1.1111,-1.1111,-1.1111,-1.1111,-1.1111,-1.1111,-1.1111,-1.1111,-1.1111,-1.1111,-1.1111,-1.1111,-1.1111,-1.1111,-1.1111,-1.1111,-1.1558,-1.282,-1.29,-1.3404,-1.4497,-1.5338,-1.5762,-1.5833,-1.6482,-1.6908,-1.6908,-1.6908,-1.6908,-1.6908,-1.6908,-1.6908,-1.6908,-1.6908,-1.7176,0.0,0.0,0.0,0.0,0.0,0.0,0.0,0.0,0.0,-0.5287,-0.5352,-0.5407,-0.5529,-0.5651,-0.5733,-0.5733,-0.5733,-0.5733,-0.5733,-0.5733,-0.5733,-0.5733,-0.5733,-0.5733,-0.5733,-0.5733,-0.5733,-0.5733,-0.5733,-0.5733,-0.5733,-0.5733,-0.5733,-0.5733,-0.5733,-0.5733,-0.5733,-0.5733,-0.5733,-0.5733,-0.5733,-0.5733,-0.5733,-0.5733,-0.5733,-0.5733,-0.6343,-0.6605,-0.6694,-0.8097,-0.8623,-0.8715,-0.9685,-1.0038,-1.0038,-1.0038,-1.0038,-1.0038,-1.0038,-1.0038,-1.0038,-1.0038,-1.0038,-1.0038,-1.0038,-1.0038,-1.0038,-1.0038,-0.9804,-0.968,-0.9881,-1.0051,-1.0279,-1.0425,-1.0812,-1.1111,-1.1111,-1.1111,-1.1111,-1.1111,-1.1111,-1.1111,-1.1111,-1.1111,-1.1111,-1.1111,-1.1111,-1.1111,-1.1111,-1.1111,-1.1111,-1.1111,-1.1111,-1.1558,-1.282,-1.29,-1.3404,-1.4497,-1.5062,-1.548,-1.5762,-1.6482,-1.6908,-1.6908,-1.6908,-1.6908,-1.6908,-1.6908,-1.6908,-1.6908,-1.6908,-1.6968,0.0,0.0,0.0,0.0,0.0,0.0,0.0,0.0,0.0,-0.5175,-0.529,-0.5388,-0.5453,-0.561,-0.5733,-0.5733,-0.5733,-0.5733,-0.5733,-0.5733,-0.5733,-0.5733,-0.5733,-0.5733,-0.5733,-0.5733,-0.5733,-0.5733,-0.5733,-0.5733,-0.5733,-0.5733,-0.5733,-0.5733,-0.5733,-0.5733,-0.5733,-0.5733,-0.5733,-0.5733,-0.5733,-0.5733,-0.5733,-0.5733,-0.5908,-0.6257,-0.6605,-0.6953,-0.7394,-0.8448,-0.889,-0.8978,-0.9685,-1.0038,-1.0038,-1.0038,-1.0038,-1.0038,-1.0038,-1.0038,-1.0038,-1.0038,-1.0038,-1.0038,-1.0038,-1.0038,-0.9932,-0.9833,-0.9653,-0.9528,-0.9958,-1.0042,-1.0144,-1.0396,-1.0663,-1.0887,-1.1037,-1.0962,-1.0887,-1.1037,-1.1111,-1.1111,-1.1111,-1.1111,-1.1111,-1.1111,-1.1111,-1.1111,-1.1111,-1.1111,-1.1111,-1.1111,-1.1111,-1.1558,-1.282,-1.29,-1.3404,-1.4497,-1.5133,-1.548,-1.548,-1.6412,-1.6908,-1.6908,-1.6908,-1.6908,-1.6908,-1.6908,-1.6908,-1.6908,-1.6908,-1.6908,0.0,0.0,0.0,0.0,0.0,0.0,0.0,0.0,0.0,-0.5018,-0.5205,-0.5368,-0.5288,-0.5483,-0.5644,-0.5552,-0.5644,-0.5733,-0.5733,-0.5733,-0.5733,-0.5733,-0.5733,-0.5733,-0.5733,-0.5733,-0.5733,-0.5733,-0.5733,-0.5733,-0.5733,-0.5733,-0.5733,-0.5733,-0.5733,-0.5733,-0.5733,-0.5733,-0.5733,-0.5733,-0.5733,-0.5733,-0.5733,-0.5819,-0.6257,-0.6779,-0.7041,-0.7482,-0.8009,-0.8803,-0.9069,-0.9152,-0.9772,-1.0038,-1.0038,-1.0038,-1.0038,-1.0038,-1.0038,-1.0038,-1.0038,-1.0038,-1.0038,-1.0038,-1.0038,-1.0038,-0.9908,-0.9705,-0.9493,-0.9519,-1.009,-1.0089,-1.0067,-1.0443,-1.0443,-1.0513,-1.0812,-1.0738,-1.0663,-1.0962,-1.1037,-1.1111,-1.1111,-1.1111,-1.1111,-1.1111,-1.1111,-1.1111,-1.1111,-1.1111,-1.1111,-1.1111,-1.1111,-1.1558,-1.282,-1.29,-1.3404,-1.4497,-1.5204,-1.548,-1.5196,-1.6123,-1.6691,-1.676,-1.6839,-1.6908,-1.6908,-1.6908,-1.6908,-1.6908,-1.6908,-1.6908,0.0,0.0,0.0,0.0,0.0,0.0,0.0,0.0,-0.5018,0.0,-0.5205,-0.5285,-0.487,-0.531,-0.5552,-0.5191,-0.546,-0.5733,-0.5733,-0.5733,-0.5733,-0.5733,-0.5733,-0.5733,-0.5733,-0.5733,-0.5733,-0.5733,-0.5733,-0.5733,-0.5733,-0.5733,-0.5733,-0.5733,-0.5733,-0.5733,-0.5733,-0.5733,-0.5733,-0.5733,-0.5733,-0.5733,-0.5733,-0.6343,-0.6691,-0.6868,-0.8097,-0.8715,-0.8803,-0.951,-0.9864,-0.9859,-0.9951,-1.0038,-1.0038,-1.0038,-1.0038,-1.0038,-1.0038,-1.0038,-1.0038,-1.0038,-1.0038,-1.0038,-1.0038,-1.0038,-0.9908,-0.9705,-0.9746,-0.9852,-1.0168,-1.0319,-1.0438,-1.0513,-1.0218,-0.9992,-1.0067,-1.0594,-1.0962,-1.0663,-1.0887,-1.1111,-1.1111,-1.1111,-1.1111,-1.1111,-1.1111,-1.1111,-1.1111,-1.1111,-1.1111,-1.1111,-1.1111,-1.1558,-1.282,-1.29,-1.3404,-1.4497,-1.4713,-1.4919,-1.5204,-1.5346,-1.57,-1.6351,-1.67,-1.6908,-1.6908,-1.6908,-1.6908,-1.6908,-1.6908,-1.6908,0.0,0.0,0.0,0.0,0.0,0.0,0.0,0.0,-0.4698,-0.4698,-0.4796,-0.4866,-0.5035,-0.4957,-0.4919,-0.501,-0.5377,-0.5649,-0.5371,-0.5552,-0.5733,-0.5733,-0.5733,-0.5733,-0.5733,-0.5733,-0.5733,-0.5733,-0.5733,-0.5733,-0.5733,-0.5733,-0.5733,-0.5733,-0.5733,-0.5733,-0.5733,-0.5733,-0.5733,-0.5733,-0.6251,-0.6251,-0.5733,-0.7312,-0.7746,-0.7394,-0.8448,-0.9157,-0.9506,-0.9859,-1.0038,-1.0038,-1.0038,-1.0038,-1.0038,-1.0038,-1.0038,-1.0038,-1.0038,-1.0038,-1.0038,-1.0038,-1.0038,-1.0038,-1.0038,-0.9871,-0.9738,-0.978,-0.9725,-0.982,-1.0286,-1.0447,-1.0443,-1.0218,-1.0218,-1.0143,-0.9695,-0.9992,-1.0519,-1.0812,-1.0962,-1.1111,-1.1111,-1.1111,-1.1111,-1.1111,-1.1111,-1.1111,-1.1111,-1.1111,-1.126,-1.1558,-1.1335,-1.1706,-1.3251,-1.3112,-1.3404,-1.4497,-1.4776,-1.4919,-1.4848,-1.5267,-1.5692,-1.5982,-1.6412,-1.6691,-1.6908,-1.6908,-1.6908,-1.6908,-1.6908,-1.6908,0.0,0.0,0.0,0.0,0.0,0.0,0.0,0.0,-0.4543,0.0,-0.4389,-0.4446,-0.5288,-0.4957,-0.4648,-0.4469,-0.4924,-0.5198,-0.483,-0.5191,-0.5463,-0.5466,-0.5466,-0.5466,-0.5374,-0.5557,-0.5646,-0.5552,-0.5644,-0.5733,-0.5733,-0.5733,-0.5733,-0.5733,-0.5733,-0.5733,-0.5733,-0.5733,-0.5733,-0.5733,-0.6422,-0.6514,-0.6097,-0.7482,-0.7918,-0.757,-0.8536,-0.9331,-1.0038,-1.0038,-1.0038,-1.0038,-1.0038,-1.0038,-1.0038,-1.0038,-1.0038,-1.0038,-1.0038,-1.0038,-1.0038,-1.0038,-1.0038,-1.0028,-0.9889,-0.9767,-0.9592,-0.9816,-0.9776,-0.9901,-1.0355,-1.0588,-1.0513,-0.9992,-1.0143,-1.0218,-0.9695,-0.9846,-1.0293,-1.0962,-1.1111,-1.1111,-1.1111,-1.1111,-1.1111,-1.1111,-1.1111,-1.1111,-1.1111,-1.1111,-1.126,-1.1706,-1.1335,-1.1774,-1.3397,-1.3185,-1.3404,-1.4497,-1.4848,-1.4919,-1.4641,-1.5204,-1.5551,-1.5621,-1.5982,-1.6412,-1.6908,-1.6908,-1.6908,-1.6908,-1.6908,-1.6908,0.0,0.0,0.0,0.0,0.0,0.0,0.0,0.0,-0.4937,-0.4937,-0.4389,-0.4193,-0.5212,-0.5489,-0.501,-0.3301,-0.3749,-0.4378,-0.4378,-0.4648,-0.4832,-0.4839,-0.4839,-0.4748,-0.4389,-0.5201,-0.5473,-0.5099,-0.5463,-0.5733,-0.5733,-0.5733,-0.5733,-0.5733,-0.5733,-0.5733,-0.5733,-0.5733,-0.5733,-0.5733,-0.5733,-0.6186,-0.7009,-0.6245,-0.6231,-0.6956,-0.8273,-0.9331,-1.0038,-1.0038,-1.0038,-1.0038,-1.0038,-1.0038,-1.0038,-1.0038,-1.0038,-1.0038,-1.0038,-1.0038,-1.0038,-1.0038,-1.0038,-0.9918,-0.9719,-0.9569,-0.9642,-0.9622,-0.988,-1.0207,-1.043,-1.0812,-1.0887,-1.0067,-0.9916,-0.9992,-1.0368,-1.0443,-1.0588,-1.1037,-1.1111,-1.1111,-1.1111,-1.1111,-1.1111,-1.1111,-1.1111,-1.1111,-1.1111,-1.1111,-1.1111,-1.1111,-1.1111,-1.1632,-1.282,-1.29,-1.3404,-1.4497,-1.4641,-1.4641,-1.4569,-1.4641,-1.4848,-1.5204,-1.5621,-1.6193,-1.6908,-1.6908,-1.6908,-1.6908,-1.6908,-1.6908,0.0,0.0,0.0,0.0,0.0,0.0,0.0,-0.4229,-0.3995,-0.4384,-0.3653,-0.3098,-0.3604,-0.479,-0.5476,-0.4837,-0.5022,-0.5022,-0.4387,-0.3844,-0.3846,-0.4389,-0.448,-0.4661,-0.5114,-0.475,-0.4208,-0.3666,-0.4385,-0.5107,-0.5644,-0.5733,-0.5733,-0.5733,-0.5733,-0.5733,-0.5733,-0.5733,-0.5733,-0.5733,-0.5716,-0.5897,-0.6189,-0.652,-0.6688,-0.6864,-0.7305,-0.7921,-0.8627,-0.9065,-0.9331,-0.9331,-0.9772,-1.0038,-1.0038,-1.0038,-1.0038,-1.0038,-1.0038,-1.0038,-1.0038,-1.0038,-0.9861,-0.9743,-0.9667,-0.962,-0.9687,-0.9922,-1.0153,-1.0475,-1.0836,-1.0962,-1.0962,-1.0443,-1.0293,-1.0293,-1.0443,-1.0513,-1.0588,-1.1037,-1.1111,-1.1111,-1.1111,-1.1111,-1.1111,-1.1111,-1.1111,-1.1111,-1.1111,-1.1111,-1.126,-1.1632,-1.1335,-1.1558,-1.282,-1.29,-1.3258,-1.4049,-1.4418,-1.4569,-1.4569,-1.4569,-1.4919,-1.5551,-1.5762,-1.6053,-1.6482,-1.676,-1.6908,-1.6908,-1.6908,-1.6908,-0.2891,0.0,0.0,0.0,0.0,0.0,0.0,0.0,-0.3759,-0.4387,-0.3634,-0.2907,-0.2761,-0.3898,-0.4723,-0.4748,-0.5027,-0.4938,-0.3942,-0.331,-0.3132,-0.3764,-0.3855,-0.4125,-0.4935,-0.4123,-0.3492,-0.3398,-0.3849,-0.4389,-0.5015,-0.5285,-0.5466,-0.5733,-0.5733,-0.5733,-0.5733,-0.5733,-0.5733,-0.5733,-0.5714,-0.5716,-0.5733,-0.6349,-0.6523,-0.6432,-0.6432,-0.6956,-0.7834,-0.836,-0.854,-0.854,-0.9065,-0.9414,-0.9671,-0.9671,-0.9763,-1.0038,-1.0038,-1.0038,-1.0028,-0.9871,-0.9757,-0.9536,-0.9478,-0.948,-0.9708,-1.0015,-1.0264,-1.0588,-1.1037,-1.1037,-1.0812,-1.0588,-1.0513,-1.0513,-1.0513,-1.0588,-1.0812,-1.1037,-1.1111,-1.1111,-1.1111,-1.1111,-1.1111,-1.1111,-1.1111,-1.1111,-1.1111,-1.1111,-1.126,-1.1632,-1.1335,-1.1484,-1.2526,-1.2746,-1.3185,-1.376,-1.4274,-1.4569,-1.4569,-1.4713,-1.5062,-1.5621,-1.5833,-1.6053,-1.6272,-1.67,-1.6908,-1.6908,-1.6908,-1.6978,0.0,0.0,0.0,0.0,0.0,0.0,-0.4307,0.0,-0.4307,-0.487,-0.432,-0.3598,-0.3007,-0.2909,-0.2887,-0.2939,-0.3667,-0.3941,-0.3045,-0.2867,-0.2868,-0.2873,-0.2875,-0.3053,-0.3588,-0.3232,-0.332,-0.421,-0.4034,-0.3855,-0.3848,-0.4478,-0.5109,-0.5644,-0.5733,-0.5733,-0.5733,-0.5733,-0.5733,-0.5733,-0.5733,-0.5733,-0.5733,-0.5733,-0.5733,-0.5733,-0.5733,-0.6435,-0.7746,-0.7746,-0.7746,-0.7746,-0.7834,-0.8257,-0.8852,-0.8848,-0.9309,-0.9951,-0.9951,-0.9946,-0.9908,-0.9625,-0.9555,-0.9554,-0.9148,-0.9331,-0.9667,-0.9829,-1.0218,-1.0588,-1.1037,-1.0812,-1.0513,-1.0513,-1.0513,-1.0513,-1.0513,-1.0812,-1.1111,-1.1111,-1.1111,-1.1111,-1.1111,-1.1111,-1.1111,-1.1111,-1.1111,-1.1111,-1.1111,-1.1111,-1.1111,-1.1111,-1.1111,-1.1335,-1.1929,-1.2526,-1.3185,-1.376,-1.4274,-1.4569,-1.4569,-1.4991,-1.5204,-1.5204,-1.5912,-1.6272,-1.6272,-1.67,-1.6908,-1.6908,-1.6908,-1.7176,-0.0861,0.0,0.0,0.0,0.0,0.0,-0.3452,0.0,-0.3209,-0.4238,-0.4077,-0.3579,-0.2781,-0.2794,-0.2876,-0.289,-0.3105,-0.3226,-0.2957,-0.2867,-0.2868,-0.2873,-0.2875,-0.3232,-0.4039,-0.368,-0.3765,-0.4572,-0.4391,-0.43,-0.4652,-0.4743,-0.5102,-0.5644,-0.5733,-0.5733,-0.5733,-0.5733,-0.5733,-0.5733,-0.5733,-0.5733,-0.5733,-0.5733,-0.5733,-0.5733,-0.5733,-0.5908,-0.6346,-0.6868,-0.7041,-0.7129,-0.757,-0.7925,-0.8113,-0.8082,-0.8595,-0.9131,-0.8552,-0.897,-0.9658,-0.9052,-0.9183,-0.9567,-0.9449,-0.9839,-1.0225,-1.031,-1.0588,-1.0962,-1.1037,-1.1037,-1.0962,-1.0962,-1.0962,-1.0962,-1.0962,-1.1037,-1.1111,-1.1111,-1.1111,-1.1111,-1.1111,-1.1111,-1.1111,-1.1111,-1.1111,-1.1111,-1.1111,-1.1111,-1.1111,-1.1111,-1.1111,-1.1335,-1.1929,-1.2526,-1.3185,-1.376,-1.4274,-1.4569,-1.4569,-1.4713,-1.4919,-1.5196,-1.5417,-1.5771,-1.6272,-1.67,-1.6908,-1.6908,-1.6908,-1.7176,0.0,0.0,0.0,0.0,0.0,0.0,-0.3456,-0.2981,-0.2741,-0.3608,-0.3491,-0.321,-0.2997,-0.2822,-0.2723,-0.2862,-0.2898,-0.2841,-0.2867,-0.2869,-0.2872,-0.2875,-0.2875,-0.3232,-0.3948,-0.359,-0.3588,-0.4214,-0.4123,-0.421,-0.4654,-0.4832,-0.501,-0.5371,-0.5644,-0.5733,-0.5733,-0.5733,-0.5733,-0.5733,-0.5733,-0.5733,-0.5733,-0.5733,-0.5733,-0.5733,-0.5733,-0.5733,-0.5733,-0.6169,-0.6343,-0.6343,-0.6782,-0.7143,-0.7415,-0.7408,-0.7837,-0.8345,-0.7929,-0.8414,-0.9113,-0.8591,-0.8967,-0.9546,-0.9539,-0.9948,-1.0513,-1.0513,-1.0812,-1.1111,-1.1111,-1.1111,-1.1111,-1.1111,-1.1111,-1.1111,-1.1111,-1.1111,-1.1111,-1.1111,-1.1111,-1.1111,-1.1111,-1.1111,-1.1111,-1.1111,-1.1111,-1.1111,-1.1111,-1.1111,-1.1111,-1.1111,-1.1111,-1.126,-1.1558,-1.2378,-1.3039,-1.3404,-1.4129,-1.4569,-1.4569,-1.4776,-1.4991,-1.5204,-1.5338,-1.57,-1.6272,-1.6551,-1.6769,-1.6908,-1.6908,-1.7314,0.0,0.0,0.0,0.0,-0.235,0.0,-0.3616,-0.3141,-0.2589,-0.2982,-0.2746,-0.2684,-0.3303,-0.2919,-0.2638,-0.2831,-0.2855,-0.2797,-0.2864,-0.2875,-0.2875,-0.2875,-0.2875,-0.3053,-0.3588,-0.323,-0.3142,-0.3676,-0.3765,-0.3942,-0.4387,-0.4832,-0.5099,-0.5099,-0.5463,-0.5733,-0.5733,-0.5733,-0.5733,-0.5733,-0.5733,-0.5733,-0.5733,-0.5733,-0.5733,-0.5733,-0.5733,-0.5733,-0.5733,-0.5733,-0.5733,-0.5733,-0.5733,-0.6083,-0.6694,-0.6634,-0.7071,-0.7636,-0.7532,-0.7858,-0.8355,-0.7998,-0.8602,-0.9491,-0.9301,-0.9841,-1.0594,-1.0594,-1.0812,-1.1111,-1.1111,-1.1111,-1.1111,-1.1111,-1.1111,-1.1111,-1.1111,-1.1111,-1.1111,-1.1111,-1.1111,-1.1111,-1.1111,-1.1111,-1.1111,-1.1111,-1.1111,-1.1111,-1.1111,-1.1111,-1.1111,-1.1111,-1.1111,-1.1186,-1.126,-1.2305,-1.2973,-1.3046,-1.4057,-1.4569,-1.4569,-1.4919,-1.5133,-1.5133,-1.5551,-1.5974,-1.6272,-1.6342,-1.6551,-1.6908,-1.6968,-1.751,0.0,0.0,0.0,-0.0235,-0.1412,0.0,-0.2117,-0.2275,-0.2511,-0.2589,-0.2589,-0.2514,-0.2684,-0.2648,-0.2609,-0.2632,-0.2679,-0.2748,-0.2858,-0.2875,-0.2875,-0.2875,-0.2875,-0.3053,-0.3588,-0.3497,-0.3676,-0.4121,-0.4476,-0.4743,-0.4832,-0.5282,-0.5552,-0.5552,-0.5644,-0.5733,-0.5733,-0.5733,-0.5733,-0.5733,-0.5733,-0.5733,-0.5733,-0.5733,-0.5733,-0.5733,-0.5733,-0.5733,-0.5733,-0.5733,-0.5733,-0.5733,-0.5733,-0.5822,-0.5908,-0.5913,-0.6286,-0.6791,-0.6153,-0.6579,-0.7335,-0.6729,-0.7646,-0.9133,-0.9094,-0.9986,-1.0962,-1.0962,-1.1037,-1.1111,-1.1111,-1.1111,-1.1111,-1.1111,-1.1111,-1.1111,-1.1111,-1.1111,-1.1111,-1.1111,-1.1111,-1.1111,-1.1111,-1.1111,-1.1111,-1.1111,-1.1111,-1.1111,-1.1111,-1.1111,-1.1111,-1.1111,-1.1111,-1.1484,-1.2452,-1.2753,-1.3258,-1.4201,-1.4497,-1.4569,-1.4569,-1.4713,-1.4713,-1.4713,-1.5409,-1.5974,-1.6272,-1.663,-1.6839,-1.6908,-1.7373,-1.791,0.1335,0.1021,0.0786,0.0786,0.0078,0.0,0.0,-0.1489,-0.2038,-0.2431,-0.2511,-0.2511,-0.2511,-0.2535,-0.2565,-0.2597,-0.2627,-0.2679,-0.2771,-0.2809,-0.2917,-0.318,-0.3034,-0.3053,-0.3588,-0.3409,-0.3409,-0.3942,-0.421,-0.4476,-0.5008,-0.5191,-0.5463,-0.5733,-0.5733,-0.5733,-0.5733,-0.5733,-0.5733,-0.5733,-0.5733,-0.5733,-0.5733,-0.5733,-0.5733,-0.5733,-0.5733,-0.5733,-0.5733,-0.5733,-0.5733,-0.5733,-0.5733,-0.5695,-0.5643,-0.5643,-0.5737,-0.5957,-0.5474,-0.5943,-0.6617,-0.6225,-0.7157,-0.847,-0.8775,-0.9755,-1.0812,-1.1037,-1.1111,-1.1111,-1.1111,-1.1111,-1.1111,-1.1111,-1.1111,-1.1111,-1.1111,-1.1111,-1.1111,-1.1111,-1.1111,-1.1111,-1.1111,-1.1111,-1.1111,-1.1111,-1.1111,-1.1111,-1.1111,-1.1111,-1.1111,-1.1111,-1.1111,-1.1484,-1.2378,-1.2753,-1.3258,-1.4129,-1.4425,-1.4569,-1.4569,-1.4569,-1.4705,-1.4919,-1.548,-1.5974,-1.6272,-1.67,-1.6908,-1.6908,-1.7176,-1.7706,0.1335,0.1335,0.1335,0.1335,0.1335,0.1021,0.0,0.0,0.0,-0.2117,-0.2353,-0.2353,-0.251,-0.2511,-0.2526,-0.2576,-0.2503,-0.252,-0.265,-0.271,-0.2924,-0.3278,-0.3071,-0.3019,-0.3387,-0.3224,-0.3232,-0.3587,-0.3676,-0.4032,-0.4832,-0.4832,-0.5102,-0.5552,-0.5552,-0.5644,-0.5733,-0.5733,-0.5733,-0.5733,-0.5733,-0.5733,-0.5733,-0.5733,-0.5733,-0.5733,-0.5733,-0.5733,-0.5733,-0.5708,-0.5697,-0.5697,-0.5697,-0.5638,-0.5462,-0.5523,-0.5439,-0.532,-0.5219,-0.5494,-0.5857,-0.5973,-0.6703,-0.7702,-0.8618,-0.9528,-1.0438,-1.0962,-1.1111,-1.1111,-1.1111,-1.1111,-1.1111,-1.1111,-1.1111,-1.1111,-1.1111,-1.1111,-1.1111,-1.1111,-1.1111,-1.1111,-1.1111,-1.1111,-1.1111,-1.1111,-1.1111,-1.1111,-1.1111,-1.1111,-1.1111,-1.1111,-1.1111,-1.1409,-1.2077,-1.2599,-1.3185,-1.3905,-1.4346,-1.4569,-1.4569,-1.4569,-1.4856,-1.5346,-1.5621,-1.5974,-1.6412,-1.6769,-1.6908,-1.6908,-1.7038,-1.7569,0.1335,0.1335,0.1335,0.1335,0.1335,0.11,0.0393,0.0,-0.0471,-0.1489,0.0,-0.1882,-0.2431,0.0,0.0,-0.2519,-0.252,-0.2523,-0.253,-0.2503,-0.2559,-0.278,-0.2793,-0.2734,-0.2874,-0.3284,-0.3588,-0.3587,-0.3942,-0.4297,-0.4389,-0.4389,-0.4565,-0.5099,-0.5099,-0.528,-0.5733,-0.5733,-0.5733,-0.5733,-0.5733,-0.5733,-0.5733,-0.5733,-0.5733,-0.5733,-0.5733,-0.5733,-0.5725,-0.5529,-0.5486,-0.5486,-0.5486,-0.5478,-0.5451,-0.5428,-0.5314,-0.5205,-0.5192,-0.5201,-0.5112,-0.5098,-0.5857,-0.7003,-0.8908,-0.9599,-0.99,-1.0807,-1.1111,-1.1111,-1.1111,-1.1111,-1.1111,-1.1111,-1.1111,-1.1111,-1.1111,-1.1111,-1.1111,-1.1111,-1.1111,-1.1111,-1.1111,-1.1111,-1.1111,-1.1111,-1.1111,-1.1111,-1.1111,-1.1111,-1.1111,-1.1111,-1.1111,-1.1558,-1.2673,-1.2893,-1.3331,-1.4418,-1.4569,-1.4569,-1.4569,-1.4569,-1.4991,-1.5692,-1.5762,-1.6123,-1.683,-1.6908,-1.6908,-1.6908,-1.7373,-1.791,0.1335,0.1335,0.1335,0.1335,0.1335,0.11,0.0314,0.0157,-0.0079,-0.0863,0.0,0.0,0.0,0.0,0.0,0.0,-0.2511,-0.2511,-0.2511,-0.2531,-0.2489,-0.2546,-0.2669,-0.2702,-0.2728,-0.2924,-0.3214,-0.3519,-0.3696,-0.4068,-0.4652,-0.4743,-0.4924,-0.5371,-0.5371,-0.5463,-0.5733,-0.5733,-0.5733,-0.5733,-0.5733,-0.5733,-0.5733,-0.5733,-0.5733,-0.573,-0.5571,-0.5539,-0.5619,-0.5496,-0.5445,-0.5439,-0.5366,-0.5339,-0.5333,-0.5281,-0.5189,-0.5089,-0.5089,-0.5056,-0.5015,-0.5168,-0.5702,-0.6546,-0.7698,-0.8613,-0.9377,-1.0051,-1.0657,-1.1111,-1.1111,-1.1111,-1.1111,-1.1111,-1.1111,-1.1111,-1.1111,-1.1111,-1.1111,-1.1111,-1.1111,-1.1111,-1.1111,-1.1111,-1.1111,-1.1111,-1.1111,-1.1111,-1.1111,-1.1111,-1.1111,-1.1111,-1.1111,-1.1558,-1.282,-1.29,-1.3404,-1.4497,-1.4569,-1.4569,-1.4569,-1.4569,-1.4848,-1.5409,-1.5692,-1.6053,-1.6551,-1.6769,-1.6908,-1.6908,-1.7107,-1.7706,0.1335,0.1335,0.1335,0.1335,0.1335,0.11,0.0471,0.0471,0.0393,-0.0236,-0.0393,0.0,0.0,0.0,-0.2512,-0.2511,0.0,-0.2511,-0.2511,-0.2511,-0.2526,-0.2485,-0.2628,-0.2668,-0.2668,-0.2765,-0.3131,-0.3608,-0.3614,-0.3982,-0.4835,-0.475,-0.4941,-0.5416,-0.5419,-0.5523,-0.5733,-0.5733,-0.5733,-0.5733,-0.57,-0.5593,-0.5505,-0.5561,-0.5635,-0.5629,-0.5451,-0.5414,-0.5406,-0.5368,-0.532,-0.5306,-0.5186,-0.514,-0.514,-0.514,-0.5089,-0.5018,-0.5018,-0.5018,-0.5015,-0.5168,-0.555,-0.6012,-0.671,-0.7625,-0.8618,-0.9448,-1.0207,-1.0812,-1.1037,-1.1111,-1.1111,-1.1111,-1.1111,-1.1111,-1.1111,-1.1111,-1.1111,-1.1111,-1.1111,-1.1111,-1.1111,-1.1111,-1.1111,-1.1111,-1.1111,-1.1111,-1.1111,-1.1111,-1.1111,-1.1111,-1.1111,-1.1558,-1.282,-1.29,-1.3404,-1.4497,-1.4569,-1.4569,-1.4569,-1.4569,-1.4848,-1.5338,-1.5621,-1.6053,-1.6491,-1.6769,-1.6908,-1.6908,-1.6908,-1.7373,0.1335,0.1335,0.1335,0.1335,0.1335,0.1257,0.1257,0.1257,0.11,0.0393,0.0079,-0.0157,-0.055,-0.165,-0.2516,-0.2511,-0.2511,0.0,0.0,-0.2511,-0.2511,-0.2514,-0.2567,-0.2604,-0.2604,-0.3069,-0.3528,-0.3946,-0.3946,-0.4202,-0.4713,-0.421,-0.4253,-0.4776,-0.4868,-0.509,-0.5733,-0.5733,-0.5733,-0.5733,-0.5526,-0.5295,-0.5026,-0.5262,-0.5379,-0.5379,-0.5374,-0.529,-0.528,-0.5241,-0.5192,-0.5181,-0.5067,-0.5023,-0.5023,-0.5023,-0.5021,-0.5018,-0.5018,-0.5018,-0.5018,-0.5018,-0.5015,-0.5249,-0.6556,-0.6938,-0.7399,-0.9306,-0.9916,-1.0143,-1.0887,-1.1111,-1.1111,-1.1111,-1.1111,-1.1111,-1.1111,-1.1111,-1.1111,-1.1111,-1.1111,-1.1111,-1.1111,-1.1111,-1.1111,-1.1111,-1.1111,-1.1111,-1.1111,-1.1111,-1.1111,-1.1111,-1.1111,-1.1558,-1.282,-1.29,-1.3404,-1.4497,-1.4569,-1.4569,-1.4569,-1.4569,-1.4991,-1.5762,-1.5762,-1.6193,-1.6908,-1.6908,-1.6908,-1.6908,-1.6908,-1.7176,0.1335,0.1335,0.1335,0.1335,0.1335,0.1335,0.1335,0.1335,0.1257,0.1021,0.0943,0.0786,0.0707,0.0314,-0.0,-0.0,-0.1412,-0.2511,0.0,-0.2511,-0.2511,-0.2511,-0.2529,-0.2541,-0.2541,-0.2718,-0.3152,-0.3856,-0.3942,-0.4298,-0.5116,-0.4954,-0.4969,-0.5175,-0.5178,-0.5281,-0.5494,-0.5494,-0.5494,-0.5579,-0.5537,-0.5344,-0.4999,-0.5131,-0.5199,-0.5363,-0.5199,-0.5165,-0.5238,-0.5124,-0.5075,-0.5069,-0.5031,-0.5018,-0.5018,-0.5018,-0.5018,-0.5018,-0.5018,-0.5018,-0.5018,-0.5018,-0.5018,-0.5093,-0.5709,-0.6325,-0.7092,-0.7851,-0.9003,-0.9997,-1.0218,-1.0663,-1.1111,-1.1111,-1.1111,-1.1111,-1.1111,-1.1111,-1.1111,-1.1111,-1.1111,-1.1111,-1.1111,-1.1111,-1.1111,-1.1111,-1.1111,-1.1111,-1.1111,-1.1111,-1.1111,-1.1111,-1.1484,-1.2003,-1.282,-1.3622,-1.4201,-1.4569,-1.4569,-1.4569,-1.4569,-1.4569,-1.4848,-1.5409,-1.5692,-1.6053,-1.6482,-1.676,-1.6908,-1.6908,-1.6908,-1.7176,0.1338,0.1335,0.1335,0.1335,0.1335,0.1335,0.1335,0.1335,0.1335,0.1335,0.1335,0.1335,0.1335,0.1335,0.1335,0.1335,-0.0078,-0.149,0.0,-0.2511,-0.2511,-0.2511,-0.2511,-0.2511,-0.2511,-0.2511,-0.2843,-0.3766,-0.385,-0.4277,-0.5241,-0.5243,-0.5262,-0.5303,-0.5303,-0.5325,-0.5368,-0.5452,-0.5455,-0.5452,-0.541,-0.5303,-0.4969,-0.5012,-0.5078,-0.5157,-0.5079,-0.5044,-0.5121,-0.5048,-0.5018,-0.5018,-0.5018,-0.5018,-0.5018,-0.5018,-0.5018,-0.5018,-0.5018,-0.5018,-0.5018,-0.5018,-0.5015,-0.5171,-0.5323,-0.5938,-0.6644,-0.7239,-0.8367,-0.9559,-0.9866,-1.0506,-1.1111,-1.1111,-1.1111,-1.1111,-1.1111,-1.1111,-1.1111,-1.1111,-1.1111,-1.1111,-1.1111,-1.1111,-1.1111,-1.1111,-1.1111,-1.1111,-1.1111,-1.1111,-1.1111,-1.1111,-1.1484,-1.2003,-1.282,-1.3768,-1.4425,-1.4569,-1.4569,-1.4569,-1.4569,-1.4713,-1.4991,-1.5417,-1.5771,-1.6123,-1.6482,-1.676,-1.6908,-1.6908,-1.6908,-1.7176]},{"header":{"parameterUnit":"m.s-1","parameterCategory":1,"la1":30.6,"la2":29.2853,"lo1":-89.7004,"lo2":-87.6739,"dy":0.0162,"dx":0.0183,"nx":112,"ny":82,"refTime":"2023-08-24T06:00:00:Z","depth":0,"parameterNumber":3,"parameterNumberName":"V-component_of_WINDS"},"data":[0.0,0.0,0.0,0.0,0.0,0.0,0.0,0.0,0.0,0.0,0.0,0.0,0.0,0.0,0.0,0.0,0.0,0.0,0.0,0.0,0.0,0.0,0.0,0.0,0.0,0.0,0.0,0.0,0.0,0.0,0.0,0.0,0.0,0.0,0.0,0.0,0.0,0.0,0.0,0.0,0.0,0.0,0.0,0.0,0.0,0.0,0.0,0.0,0.0,0.0,0.0,0.0,0.0,0.0,0.0,0.0,0.0,0.0,0.0,0.0,0.0,0.0,0.0,0.0,0.0,0.0,0.0,0.0,0.0,0.0,0.0,0.0,0.0,0.0,0.0,0.0,0.0,0.0,0.0,0.0,0.0,0.0,0.0,0.0,0.0,0.0,0.0,0.0,0.0,0.0,-2.4207,-2.3524,-2.3762,-2.3802,-2.3515,-2.3194,-2.254,-2.1507,0.0,0.0,0.0,0.0,0.0,0.0,0.0,0.0,0.0,0.0,0.0,0.0,0.0,0.0,0.0,0.0,0.0,0.0,0.0,0.0,0.0,0.0,0.0,0.0,0.0,0.0,0.0,0.0,0.0,0.0,0.0,0.0,0.0,0.0,0.0,0.0,0.0,0.0,0.0,0.0,0.0,0.0,0.0,0.0,0.0,0.0,0.0,0.0,0.0,0.0,0.0,0.0,0.0,0.0,0.0,0.0,0.0,0.0,0.0,0.0,0.0,0.0,0.0,0.0,0.0,0.0,0.0,0.0,0.0,0.0,0.0,0.0,0.0,0.0,0.0,0.0,0.0,0.0,0.0,0.0,0.0,0.0,0.0,0.0,0.0,0.0,0.0,0.0,0.0,0.0,0.0,0.0,0.0,0.0,0.0,0.0,0.0,0.0,0.0,0.0,0.0,0.0,0.0,0.0,-2.4917,-2.4303,-2.3852,-2.3685,-2.3902,-2.3604,-2.3183,-2.2587,0.0,0.0,0.0,0.0,0.0,0.0,0.0,0.0,0.0,0.0,0.0,0.0,0.0,0.0,0.0,0.0,0.0,0.0,0.0,0.0,0.0,0.0,0.0,0.0,0.0,0.0,0.0,0.0,0.0,0.0,0.0,0.0,0.0,0.0,0.0,0.0,0.0,0.0,0.0,0.0,0.0,0.0,0.0,0.0,0.0,0.0,0.0,0.0,0.0,0.0,0.0,0.0,0.0,0.0,0.0,0.0,0.0,0.0,0.0,0.0,0.0,0.0,0.0,0.0,0.0,0.0,0.0,0.0,0.0,0.0,0.0,0.0,0.0,0.0,0.0,0.0,0.0,0.0,0.0,0.0,0.0,0.0,0.0,0.0,0.0,0.0,0.0,0.0,0.0,0.0,0.0,0.0,0.0,0.0,0.0,0.0,0.0,0.0,0.0,0.0,0.0,0.0,0.0,-2.5659,-2.5678,-2.5658,-2.5228,-2.4917,-2.4814,-2.4556,-2.3997,-2.3123,-2.233,0.0,0.0,0.0,0.0,0.0,0.0,0.0,0.0,0.0,0.0,0.0,0.0,0.0,0.0,0.0,0.0,0.0,0.0,0.0,0.0,0.0,0.0,0.0,0.0,0.0,0.0,0.0,0.0,0.0,0.0,0.0,0.0,0.0,0.0,0.0,0.0,0.0,0.0,0.0,0.0,0.0,0.0,0.0,0.0,0.0,0.0,0.0,0.0,0.0,0.0,0.0,0.0,0.0,0.0,0.0,0.0,0.0,0.0,0.0,0.0,0.0,0.0,0.0,0.0,0.0,0.0,0.0,0.0,0.0,0.0,0.0,0.0,0.0,0.0,0.0,0.0,0.0,0.0,0.0,0.0,0.0,0.0,0.0,0.0,0.0,0.0,0.0,0.0,0.0,0.0,0.0,0.0,0.0,0.0,0.0,0.0,0.0,0.0,0.0,0.0,0.0,0.0,-2.6497,-2.6385,-2.6657,-2.6399,-2.6043,-2.5684,-2.548,-2.4938,-2.3865,-2.3337,0.0,0.0,0.0,0.0,0.0,0.0,0.0,0.0,0.0,0.0,0.0,0.0,0.0,0.0,0.0,0.0,0.0,0.0,0.0,0.0,0.0,0.0,0.0,0.0,0.0,0.0,0.0,0.0,0.0,0.0,0.0,0.0,0.0,0.0,0.0,0.0,0.0,0.0,0.0,0.0,0.0,0.0,0.0,0.0,0.0,0.0,0.0,0.0,0.0,0.0,0.0,0.0,0.0,0.0,0.0,0.0,0.0,0.0,0.0,0.0,0.0,0.0,0.0,0.0,0.0,0.0,0.0,0.0,0.0,0.0,0.0,0.0,0.0,0.0,0.0,0.0,0.0,0.0,0.0,0.0,0.0,0.0,0.0,0.0,0.0,0.0,0.0,0.0,0.0,0.0,0.0,0.0,0.0,0.0,0.0,0.0,0.0,0.0,0.0,0.0,0.0,0.0,-2.7374,-2.7017,-2.6725,-2.6399,-2.6184,-2.6168,-2.6118,-2.5908,-2.5384,-2.4403,0.0,0.0,0.0,0.0,0.0,0.0,0.0,0.0,0.0,0.0,0.0,0.0,0.0,0.0,0.0,0.0,0.0,0.0,0.0,0.0,0.0,0.0,0.0,0.0,0.0,0.0,0.0,0.0,0.0,0.0,0.0,0.0,0.0,0.0,0.0,0.0,0.0,0.0,0.0,0.0,0.0,0.0,0.0,0.0,0.0,0.0,0.0,0.0,0.0,0.0,0.0,0.0,0.0,0.0,0.0,0.0,0.0,0.0,0.0,0.0,0.0,0.0,0.0,0.0,0.0,0.0,0.0,0.0,0.0,0.0,0.0,0.0,0.0,0.0,0.0,0.0,0.0,0.0,0.0,0.0,0.0,0.0,0.0,0.0,0.0,0.0,0.0,0.0,0.0,0.0,0.0,0.0,0.0,0.0,0.0,0.0,0.0,0.0,0.0,0.0,0.0,0.0,-2.7642,-2.7289,-2.6758,-2.6572,-2.6434,-2.6203,-2.622,-2.599,-2.554,0.0,0.0,0.0,0.0,0.0,0.0,0.0,0.0,0.0,0.0,0.0,0.0,0.0,0.0,0.0,0.0,0.0,0.0,0.0,0.0,0.0,0.0,0.0,0.0,0.0,0.0,0.0,0.0,0.0,0.0,0.0,0.0,0.0,0.0,0.0,0.0,0.0,0.0,0.0,0.0,0.0,0.0,0.0,0.0,0.0,0.0,0.0,0.0,0.0,0.0,0.0,0.0,0.0,0.0,0.0,0.0,0.0,0.0,0.0,0.0,0.0,0.0,0.0,0.0,0.0,0.0,0.0,0.0,0.0,0.0,0.0,0.0,0.0,0.0,0.0,0.0,0.0,0.0,0.0,0.0,0.0,0.0,0.0,0.0,0.0,0.0,0.0,0.0,0.0,0.0,0.0,0.0,0.0,0.0,0.0,0.0,0.0,0.0,0.0,0.0,0.0,0.0,-2.7961,-2.7713,-2.7369,-2.6923,-2.6674,-2.6452,-2.6203,-2.622,-2.6079,-2.5721,0.0,0.0,0.0,0.0,0.0,0.0,0.0,0.0,0.0,0.0,0.0,0.0,0.0,0.0,0.0,0.0,0.0,0.0,0.0,0.0,0.0,0.0,0.0,0.0,0.0,0.0,0.0,0.0,0.0,0.0,0.0,0.0,0.0,0.0,0.0,0.0,0.0,0.0,0.0,0.0,0.0,0.0,0.0,0.0,0.0,0.0,0.0,0.0,0.0,0.0,0.0,0.0,0.0,0.0,0.0,0.0,0.0,0.0,0.0,0.0,0.0,0.0,0.0,0.0,0.0,0.0,0.0,0.0,0.0,0.0,0.0,0.0,0.0,0.0,0.0,0.0,0.0,0.0,0.0,0.0,0.0,0.0,0.0,0.0,0.0,0.0,0.0,0.0,0.0,0.0,0.0,0.0,0.0,0.0,0.0,0.0,0.0,0.0,0.0,0.0,0.0,0.0,-2.83,-2.7672,-2.7213,-2.7213,-2.6623,-2.6203,-2.622,-2.622,-2.622,0.0,0.0,0.0,0.0,0.0,0.0,0.0,0.0,0.0,0.0,0.0,0.0,0.0,0.0,0.0,0.0,0.0,0.0,0.0,0.0,0.0,0.0,0.0,0.0,0.0,0.0,0.0,0.0,0.0,0.0,0.0,0.0,0.0,0.0,0.0,0.0,0.0,0.0,0.0,0.0,0.0,0.0,0.0,0.0,0.0,0.0,0.0,0.0,0.0,0.0,0.0,0.0,0.0,0.0,0.0,0.0,0.0,0.0,0.0,0.0,0.0,0.0,0.0,0.0,0.0,0.0,0.0,0.0,0.0,0.0,0.0,0.0,0.0,0.0,0.0,0.0,0.0,0.0,0.0,0.0,0.0,0.0,0.0,0.0,0.0,0.0,0.0,0.0,0.0,0.0,0.0,0.0,0.0,0.0,0.0,0.0,0.0,0.0,0.0,0.0,0.0,0.0,0.0,-2.83,-2.8081,-2.7719,-2.7244,-2.7021,-2.6708,-2.6239,-2.622,-2.622,-2.622,0.0,0.0,0.0,0.0,0.0,0.0,0.0,0.0,0.0,0.0,0.0,0.0,0.0,0.0,0.0,0.0,0.0,0.0,0.0,0.0,0.0,0.0,0.0,0.0,0.0,0.0,0.0,0.0,0.0,0.0,0.0,0.0,0.0,0.0,0.0,0.0,0.0,0.0,0.0,0.0,0.0,0.0,0.0,0.0,0.0,0.0,0.0,0.0,0.0,0.0,0.0,0.0,0.0,0.0,0.0,0.0,0.0,0.0,0.0,0.0,0.0,0.0,0.0,0.0,0.0,0.0,0.0,0.0,0.0,0.0,0.0,0.0,0.0,0.0,0.0,0.0,0.0,0.0,0.0,0.0,0.0,0.0,0.0,0.0,0.0,0.0,0.0,0.0,0.0,0.0,0.0,0.0,0.0,0.0,0.0,0.0,0.0,0.0,0.0,0.0,0.0,0.0,-2.8246,-2.7979,-2.7659,-2.7244,-2.6956,-2.6657,-2.6239,-2.622,-2.622,-2.622,0.0,0.0,0.0,0.0,0.0,0.0,0.0,0.0,0.0,0.0,0.0,0.0,0.0,0.0,0.0,0.0,0.0,0.0,0.0,0.0,0.0,0.0,0.0,0.0,0.0,0.0,0.0,0.0,0.0,0.0,0.0,0.0,0.0,0.0,0.0,0.0,0.0,0.0,0.0,0.0,0.0,0.0,0.0,0.0,0.0,0.0,0.0,0.0,0.0,0.0,0.0,0.0,0.0,0.0,0.0,0.0,0.0,0.0,0.0,0.0,0.0,0.0,0.0,0.0,0.0,0.0,0.0,0.0,0.0,0.0,0.0,0.0,0.0,0.0,0.0,0.0,0.0,0.0,0.0,0.0,0.0,0.0,0.0,0.0,0.0,0.0,0.0,0.0,0.0,0.0,0.0,0.0,0.0,0.0,0.0,0.0,0.0,0.0,0.0,0.0,0.0,0.0,-2.8405,-2.7829,-2.7414,-2.742,-2.6792,-2.6374,-2.6319,-2.6253,-2.622,-2.622,0.0,0.0,0.0,0.0,0.0,0.0,0.0,0.0,0.0,0.0,0.0,0.0,0.0,0.0,0.0,0.0,0.0,0.0,0.0,0.0,0.0,0.0,0.0,0.0,0.0,0.0,0.0,0.0,0.0,0.0,0.0,0.0,0.0,0.0,0.0,0.0,0.0,0.0,0.0,0.0,0.0,0.0,0.0,0.0,0.0,0.0,0.0,0.0,0.0,0.0,0.0,0.0,0.0,0.0,0.0,0.0,0.0,0.0,0.0,0.0,-2.7445,-2.7456,0.0,0.0,0.0,0.0,0.0,0.0,0.0,0.0,0.0,0.0,0.0,0.0,0.0,0.0,0.0,0.0,0.0,0.0,0.0,0.0,0.0,0.0,0.0,0.0,0.0,0.0,0.0,0.0,0.0,0.0,0.0,0.0,0.0,0.0,0.0,0.0,0.0,0.0,0.0,0.0,-2.9869,-2.9378,-2.8969,-2.8988,-2.8338,-2.7691,-2.7105,-2.6535,-2.622,-2.622,-2.622,0.0,0.0,0.0,0.0,0.0,0.0,0.0,0.0,0.0,0.0,0.0,0.0,0.0,0.0,0.0,0.0,0.0,0.0,0.0,0.0,0.0,0.0,0.0,0.0,0.0,0.0,0.0,0.0,0.0,0.0,0.0,0.0,0.0,0.0,0.0,0.0,0.0,0.0,0.0,0.0,0.0,0.0,0.0,0.0,0.0,0.0,0.0,0.0,0.0,0.0,0.0,0.0,0.0,0.0,0.0,0.0,0.0,0.0,0.0,-2.8354,-2.8006,0.0,0.0,0.0,0.0,0.0,0.0,0.0,0.0,0.0,0.0,0.0,0.0,0.0,0.0,0.0,0.0,0.0,0.0,0.0,0.0,0.0,0.0,0.0,0.0,0.0,0.0,0.0,0.0,0.0,0.0,0.0,0.0,0.0,0.0,0.0,0.0,0.0,0.0,0.0,0.0,-3.0404,-3.0006,-2.9704,-2.9739,-2.9076,-2.8492,-2.8115,-2.7557,-2.7098,-2.675,-2.6717,0.0,0.0,0.0,0.0,0.0,0.0,0.0,0.0,0.0,0.0,0.0,0.0,0.0,0.0,0.0,0.0,0.0,0.0,0.0,0.0,0.0,0.0,0.0,0.0,0.0,0.0,0.0,0.0,0.0,0.0,0.0,0.0,0.0,0.0,0.0,0.0,0.0,0.0,0.0,0.0,0.0,0.0,0.0,0.0,0.0,0.0,0.0,0.0,0.0,0.0,0.0,0.0,0.0,-2.9669,-3.0114,-3.081,-3.0965,-3.1043,-3.0965,-2.9515,-2.8713,-2.8463,-2.8463,0.0,0.0,0.0,0.0,0.0,0.0,0.0,0.0,0.0,0.0,0.0,0.0,0.0,0.0,0.0,0.0,0.0,0.0,0.0,0.0,0.0,0.0,-2.963,-2.9667,-2.9576,-2.9547,-2.9774,0.0,0.0,0.0,0.0,0.0,0.0,0.0,0.0,0.0,0.0,0.0,-3.0886,-3.0535,-3.0311,-3.0369,-2.9661,-2.9168,-2.9096,-2.8674,-2.8146,-2.7549,-2.7499,-2.7147,0.0,0.0,0.0,0.0,0.0,0.0,0.0,0.0,0.0,0.0,0.0,0.0,0.0,0.0,0.0,0.0,0.0,0.0,0.0,0.0,0.0,0.0,0.0,0.0,0.0,0.0,0.0,0.0,0.0,0.0,0.0,0.0,-3.0385,-3.0269,0.0,0.0,0.0,0.0,0.0,0.0,0.0,0.0,0.0,0.0,0.0,0.0,0.0,-3.025,-3.025,-3.025,-3.0308,-3.0443,-3.1139,-3.1526,-3.1681,-3.2425,-3.2773,-3.2754,-3.2522,0.0,-3.026,-3.026,0.0,0.0,0.0,0.0,0.0,0.0,0.0,0.0,0.0,0.0,0.0,0.0,0.0,0.0,0.0,0.0,0.0,0.0,0.0,0.0,0.0,0.0,-3.0504,-3.073,-3.1114,-3.1444,-3.1467,-3.0497,-2.9618,-2.9592,-3.0032,-3.0398,0.0,0.0,0.0,0.0,0.0,0.0,-3.2384,-3.1943,-3.159,-3.1983,-3.1029,-3.0242,-2.9875,-2.8975,-2.8379,-2.8279,-2.8224,-2.7931,-2.7201,-2.7168,0.0,0.0,0.0,0.0,0.0,0.0,0.0,0.0,0.0,0.0,0.0,0.0,0.0,0.0,0.0,0.0,0.0,0.0,0.0,0.0,0.0,0.0,0.0,0.0,0.0,0.0,0.0,0.0,0.0,-3.0598,-3.0598,-3.0598,-3.0598,-3.0598,0.0,0.0,0.0,0.0,0.0,0.0,0.0,0.0,0.0,-3.0598,-3.1043,-3.1275,-3.1275,-3.1758,-3.201,-3.201,-3.2348,-3.2522,-3.2541,-3.2928,-3.3102,-3.3102,-3.3102,-3.2676,-3.1971,-3.1487,-3.0965,-3.0481,0.0,0.0,0.0,0.0,-2.9756,-2.9755,-2.9823,-2.9823,-2.9864,-3.0336,0.0,0.0,0.0,0.0,0.0,0.0,0.0,-3.0265,-2.9579,-3.0572,-3.1905,-3.2624,-3.2191,-3.1602,-3.1501,-3.1245,-3.0948,-3.0622,-3.0869,-3.1171,-3.1171,-3.1546,0.0,0.0,0.0,-3.2099,-3.2827,-3.2581,-3.2364,-3.2317,-3.1636,-3.1067,-3.0654,-2.9972,-2.94,-2.8986,-2.8953,-2.8638,-2.7964,-2.7533,-2.7168,0.0,0.0,0.0,0.0,0.0,0.0,0.0,0.0,0.0,0.0,0.0,0.0,0.0,0.0,0.0,0.0,0.0,0.0,0.0,0.0,0.0,0.0,0.0,0.0,0.0,0.0,0.0,0.0,-3.1236,-3.1255,-3.1265,-3.1255,-3.1255,0.0,0.0,0.0,0.0,0.0,0.0,-3.1236,-3.1236,-3.1236,-3.1236,-3.1816,-3.2126,-3.2126,-3.2773,-3.3102,-3.3102,-3.3344,-3.3441,-3.3441,-3.3673,-3.377,-3.377,-3.377,-3.3654,-3.3383,-3.2493,-3.1728,-3.1086,-3.0887,-3.0805,-3.0758,-3.0332,-3.0225,-3.0259,-3.0259,-3.0259,-3.0373,-3.1127,-3.128,-3.1242,-3.1503,0.0,0.0,0.0,0.0,-3.0968,-3.0202,-3.131,-3.2817,-3.3622,-3.2932,-3.2059,-3.1871,-3.2109,-3.2177,-3.1465,-3.1696,-3.201,-3.201,-3.2491,0.0,-3.2916,-3.2916,-3.2916,-3.2916,-3.2916,-3.2787,-3.2506,-3.202,-3.1565,-3.1261,-3.0781,-3.0278,-2.9731,-2.9698,-2.9383,-2.8671,-2.8108,-2.7781,-2.7599,0.0,0.0,0.0,0.0,0.0,0.0,0.0,0.0,0.0,0.0,0.0,0.0,0.0,0.0,0.0,0.0,0.0,0.0,0.0,0.0,0.0,0.0,0.0,0.0,0.0,0.0,0.0,0.0,0.0,-3.3055,-3.3006,0.0,0.0,0.0,0.0,-3.2966,-3.2966,-3.2966,-3.2966,-3.2966,-3.2966,-3.2966,-3.3005,-3.3024,-3.3024,-3.3082,-3.3102,-3.3102,-3.3944,-3.4331,-3.435,-3.5182,-3.5568,-3.5568,-3.5568,-3.5104,-3.4272,-3.3402,-3.2943,-3.2762,-3.2678,-3.2584,-3.2403,-3.1743,-3.152,-3.152,-3.152,-3.152,-3.1596,-3.2161,-3.2202,-3.2053,-3.2049,-3.2987,0.0,0.0,-3.2579,-3.1125,-3.1556,-3.2131,-3.2622,-3.273,-3.3287,-3.3732,-3.3533,-3.3296,-3.2871,-3.1888,-3.2309,-3.2844,-3.2844,0.0,-3.2916,-3.2916,-3.2916,-3.2916,-3.2916,-3.2916,-3.2884,-3.2884,-3.2162,-3.1677,-3.1677,-3.0965,-3.0493,-3.0477,-3.046,-3.0129,-2.9383,-2.9317,-2.8986,-2.8379,-2.7632,0.0,0.0,0.0,0.0,0.0,0.0,0.0,0.0,0.0,0.0,0.0,0.0,0.0,0.0,0.0,0.0,0.0,0.0,0.0,0.0,0.0,0.0,0.0,0.0,0.0,0.0,0.0,0.0,-3.3131,-3.3112,0.0,-3.3131,-3.3112,-3.3102,-3.3102,-3.3102,-3.3102,-3.3102,-3.3102,-3.3102,-3.3102,-3.3634,-3.3944,-3.3944,-3.4485,-3.4775,-3.4775,-3.5085,-3.524,-3.524,-3.5549,-3.5704,-3.5704,-3.5704,-3.551,-3.522,-3.4913,-3.4024,-3.2897,-3.2845,-3.2669,-3.24,-3.1825,-3.1808,-3.2165,-3.2411,-3.3034,-3.362,-3.2996,-3.3291,-3.3864,-3.3523,-3.3799,-3.4209,-3.42,-3.3669,-3.3096,-3.3287,-3.3491,-3.3634,-3.3654,-3.3877,-3.3998,-3.3671,-3.353,-3.3266,-3.2603,-3.2688,-3.2916,-3.2916,-3.2916,-3.2916,-3.2916,-3.2916,-3.2916,-3.2916,-3.2916,-3.2802,-3.2521,-3.2283,-3.1877,-3.1338,-3.1044,-3.0781,-3.0526,-3.0526,-3.0394,-3.0145,-2.9542,-2.9161,-2.9052,-2.834,-2.7822,0.0,0.0,0.0,0.0,0.0,0.0,0.0,0.0,0.0,0.0,0.0,0.0,0.0,0.0,0.0,0.0,0.0,0.0,0.0,0.0,0.0,0.0,0.0,0.0,0.0,-3.3982,-3.3982,-3.3982,-3.3982,-3.3982,-3.3982,-3.3982,-3.3982,-3.3982,-3.3982,-3.3982,-3.3982,-3.3982,-3.3982,-3.3982,-3.4543,-3.4833,-3.4833,-3.5414,-3.5704,-3.5704,-3.5974,-3.6091,-3.611,-3.64,-3.6535,-3.6535,-3.6535,-3.6369,-3.6064,-3.608,-3.5116,-3.3637,-3.3623,-3.3465,-3.3201,-3.277,-3.2845,-3.3201,-3.3542,-3.4187,-3.4736,-3.3896,-3.4167,-3.4735,-3.4428,-3.4269,-3.4189,-3.4203,-3.4197,-3.4197,-3.4197,-3.4197,-3.4216,-3.4198,-3.4136,-3.3998,-3.3559,-3.3473,-3.3357,-3.2961,-3.2916,-3.2916,-3.2916,-3.2916,-3.2916,-3.2916,-3.2916,-3.2916,-3.2916,-3.2916,-3.2802,-3.2521,-3.2386,-3.2091,-3.1476,-3.1253,-3.0965,-3.0525,-3.0525,-3.0493,-3.051,-2.9906,-2.9658,-2.9781,-2.9347,-2.845,-2.7136,0.0,0.0,0.0,0.0,0.0,0.0,0.0,0.0,0.0,0.0,0.0,0.0,0.0,0.0,0.0,0.0,0.0,0.0,0.0,0.0,0.0,0.0,0.0,-3.5704,-3.5704,-3.5704,-3.5704,-3.5704,-3.5704,-3.5704,-3.5704,-3.5704,-3.5704,-3.5704,-3.5704,-3.5704,-3.5704,-3.5704,-3.5704,-3.5704,-3.5704,-3.5742,-3.5742,-3.5742,-3.5781,-3.6574,-3.6942,-3.698,-3.7812,-3.8199,-3.8199,-3.8199,-3.7687,-3.6864,-3.6812,-3.6166,-3.5181,-3.52,-3.5075,-3.487,-3.468,-3.4643,-3.4718,-3.4851,-3.4849,-3.4807,-3.4864,-3.4743,-3.4599,-3.4581,-3.4404,-3.419,-3.4184,-3.4197,-3.4197,-3.4197,-3.4197,-3.4185,-3.4194,-3.405,-3.3788,-3.3291,-3.322,-3.316,-3.293,-3.2916,-3.2916,-3.2916,-3.2916,-3.2916,-3.2916,-3.2916,0.0,-3.2916,-3.2916,-3.2916,-3.2916,-3.2555,-3.2283,-3.2161,-3.1652,-3.1145,-3.0566,-3.0527,-3.0503,-3.0493,-3.051,-3.0526,-3.0526,-3.0475,-2.9102,-2.628,0.0,0.0,0.0,0.0,0.0,0.0,0.0,0.0,0.0,0.0,0.0,0.0,0.0,0.0,0.0,0.0,0.0,0.0,0.0,0.0,0.0,-3.5704,-3.5704,-3.5704,-3.5704,-3.5704,-3.5704,-3.5704,-3.5704,-3.5704,-3.5704,-3.5704,-3.5704,-3.5704,-3.5704,-3.5704,-3.5704,-3.5704,-3.5704,-3.5704,-3.5974,-3.6555,-3.6574,-3.6884,-3.7522,-3.7735,-3.7851,-3.7851,-3.8102,-3.8199,-3.8199,-3.8199,-3.8228,-3.8161,-3.7213,-3.6805,-3.665,-3.5619,-3.5058,-3.4829,-3.481,-3.4769,-3.4708,-3.4846,-3.4745,-3.4517,-3.4642,-3.4495,-3.4293,-3.4306,-3.4245,-3.4208,-3.4203,-3.4197,-3.4197,-3.4197,-3.4197,-3.4216,-3.4204,-3.4161,-3.3998,-3.3587,-3.3473,-3.3386,-3.2979,-3.2916,-3.2916,-3.2916,-3.2916,-3.2916,-3.2916,-3.2916,-3.2916,-3.2916,-3.2916,-3.2916,-3.2916,-3.2802,-3.2727,-3.2668,-3.2544,-3.2147,-3.1442,-3.0807,-3.0475,-3.0503,-3.0517,-3.0526,-3.0526,-3.0502,-2.9757,0.0,0.0,0.0,0.0,0.0,0.0,0.0,0.0,0.0,0.0,0.0,0.0,0.0,0.0,0.0,0.0,0.0,0.0,0.0,0.0,0.0,0.0,-3.5704,-3.5704,-3.5704,-3.5704,-3.5704,-3.5704,-3.5704,-3.5704,-3.5704,-3.5704,-3.5704,-3.5704,-3.5704,-3.5704,-3.5704,-3.6013,-3.6207,-3.6207,-3.6555,-3.698,-3.7444,-3.7444,-3.7696,-3.8199,-3.8566,-3.874,-3.876,-3.9127,-3.9282,-3.9282,-3.9194,-3.9069,-3.8839,-3.7893,-3.7336,-3.7015,0.0,0.0,0.0,0.0,-3.4848,-3.4787,-3.4886,-3.4727,-3.4495,-3.4542,-3.4409,-3.4197,-3.4197,-3.4197,-3.4197,-3.4197,-3.4197,-3.4197,-3.4197,-3.4197,-3.4197,-3.4197,-3.4148,-3.3998,-3.3671,-3.3502,-3.3327,-3.2979,-3.2916,0.0,-3.2916,-3.2916,-3.2916,-3.2916,-3.2916,-3.2916,-3.2916,-3.2916,-3.2916,-3.2916,-3.2916,-3.2891,-3.2905,-3.2895,0.0,0.0,0.0,-3.0509,-3.0513,-3.0493,0.0,0.0,0.0,-3.022,-2.9666,-2.9263,0.0,0.0,-2.6875,-2.6614,0.0,0.0,0.0,0.0,0.0,0.0,0.0,0.0,0.0,0.0,0.0,0.0,0.0,0.0,0.0,0.0,-3.5704,-3.5704,-3.5704,-3.5781,-3.58,-3.5704,-3.5704,-3.5704,-3.5704,-3.5704,-3.5742,-3.582,-3.5839,-3.5878,-3.5974,-3.6651,0.0,0.0,0.0,-3.8257,-3.8353,-3.8353,-3.8411,-3.8508,-3.9282,-3.9661,-3.9681,-4.0442,-4.079,-4.079,-4.0593,-4.0027,-3.9227,-3.884,-3.8004,-3.6991,-3.7089,-3.631,-3.5153,-3.4965,-3.4889,-3.4889,-3.4889,0.0,0.0,-3.4524,-3.4367,-3.4197,-3.4197,-3.4197,-3.4197,-3.4197,-3.4197,-3.4197,-3.4197,-3.4197,-3.4197,-3.4173,-3.4023,-3.3842,-3.3587,-3.3386,-3.3129,-3.2948,-3.2916,-3.2916,-3.2916,-3.2916,-3.2916,-3.2916,-3.2916,-3.2916,-3.2916,-3.2916,-3.2916,-3.2916,-3.2916,0.0,-3.2916,-3.292,-3.2276,-3.0848,-3.06,-3.0501,-3.0526,-3.0493,-3.0468,-3.0468,-3.0468,-3.0468,-3.0468,-2.9527,-2.9067,-2.9034,-2.7894,-2.7321,0.0,0.0,0.0,0.0,0.0,0.0,0.0,0.0,0.0,0.0,0.0,0.0,0.0,0.0,0.0,-3.5704,-3.5704,-3.5704,-3.5704,-3.6265,-3.6439,-3.5781,-3.5704,-3.5704,-3.5704,-3.5704,-3.5974,-3.6613,-3.6671,-3.698,-3.7677,-3.787,-3.7947,-3.7947,-3.8121,-3.8547,-3.9243,-3.9243,-3.9591,-4.0288,-4.0462,0.0,-4.0539,-4.0713,-4.079,-4.079,-4.0593,-4.0412,-4.0204,-3.9986,-3.9622,-3.8986,-3.6402,-3.6004,-3.6745,-3.54,-3.4829,-3.4749,-3.4752,-3.4609,-3.445,-3.4544,-3.4414,-3.4197,-3.4197,-3.4197,0.0,-3.4197,-3.4197,-3.4197,-3.4197,-3.4197,-3.4173,-3.3998,-3.3921,-3.3788,-3.3368,-3.325,-3.3129,-3.2948,-3.2916,-3.2916,-3.2916,-3.2916,-3.2916,-3.2916,-3.2916,-3.2916,-3.2916,-3.2916,-3.2916,-3.2916,-3.2916,-3.2916,-3.2916,-3.2902,-3.2751,-3.2462,-3.1201,-3.0513,-3.0516,-3.0501,-3.0468,-3.0351,-3.0384,-3.0359,-3.0274,-3.0067,-2.9943,-2.9894,-2.8509,-2.7853,0.0,0.0,0.0,0.0,0.0,0.0,0.0,0.0,0.0,0.0,0.0,-3.5704,0.0,0.0,-3.582,-3.6245,-3.6303,-3.6458,-3.6884,-3.7309,-3.7251,-3.64,-3.669,-3.6942,-3.6942,-3.6942,-3.7116,-3.7522,-3.756,-3.7735,-3.8179,-3.8605,-3.8856,-3.8856,-3.9262,-3.9707,-4.0152,-4.0152,-4.0365,-4.079,-4.079,-4.079,-4.079,-4.079,-4.079,-4.079,-4.0588,-4.0444,-4.0321,-4.0138,-3.9996,-3.9724,-3.8069,-3.79,-3.8343,-3.5834,-3.5376,-3.5905,-3.498,-3.4856,-3.5061,-3.4723,-3.4419,-3.4197,-3.4197,-3.4197,-3.4197,-3.4197,-3.4197,-3.4197,-3.4197,-3.4197,-3.4173,-3.4074,-3.3895,-3.3698,-3.3444,-3.3238,-3.3024,-3.2916,-3.2916,-3.2916,-3.2916,-3.2916,-3.2916,-3.2916,-3.2916,-3.2916,-3.2916,-3.2916,-3.2916,-3.2916,-3.2916,-3.2916,-3.2916,-3.2907,-3.2789,-3.2519,-3.1474,-3.0862,-3.0808,-3.0633,-3.0468,-3.041,-3.0401,-3.0375,-3.0274,-3.0146,-3.0103,-3.0087,-2.9326,-2.8804,0.0,0.0,0.0,0.0,0.0,0.0,0.0,0.0,-3.5704,-3.5704,-3.582,-3.5936,-3.5936,-3.6071,-3.64,-3.7058,-3.7154,-3.7406,-3.8102,-3.8353,-3.8199,-3.7483,-3.7889,-3.8199,-3.8199,-3.8199,-3.8276,-3.845,-3.845,-3.8528,-3.8702,-3.9359,-3.9758,-3.9758,-4.0423,-4.079,-4.079,-4.079,-4.079,-4.079,-4.079,-4.079,-4.079,-4.079,-4.079,-4.079,-4.0581,-4.0356,-4.0133,-3.9963,-3.9895,-3.9889,-3.9889,-3.9897,-3.958,-3.6876,-3.6723,-3.7635,-3.5869,-3.548,-3.5631,-3.4798,-3.4381,-3.4197,-3.4197,-3.4197,-3.4197,-3.4197,-3.4197,-3.4197,-3.4197,-3.4197,-3.4197,-3.4148,-3.3895,-3.3661,-3.3605,-3.3268,-3.2961,-3.2961,-3.2948,-3.2916,-3.2916,-3.2916,-3.2916,-3.2916,-3.2916,-3.2916,-3.2916,-3.2916,-3.2916,-3.2916,-3.2916,-3.2916,-3.2916,-3.2902,-3.2701,-3.2281,-3.1785,-3.1423,-3.1355,-3.0861,-3.0593,-3.0551,-3.0443,-3.0375,-3.0333,-3.0103,-3.0017,-3.0017,-2.9946,-2.9654,-3.5818,-3.5765,-3.5727,-3.5782,-3.5756,-3.5699,0.0,0.0,-3.5704,-3.5704,-3.6265,-3.6767,-3.6767,-3.7406,-3.7947,-3.8044,-3.8063,-3.8102,-3.8199,-3.8876,-3.9321,-3.9216,-3.8605,-3.8199,-3.8199,-3.8199,-3.8528,-3.9301,-3.934,-3.9688,-4.0462,-4.0597,-4.0636,-4.0636,-4.0752,-4.079,-4.079,-4.079,-4.079,-4.079,-4.079,-4.079,-4.079,-4.079,-4.079,-4.079,-4.0593,-4.0277,-3.9929,-3.9909,-3.9905,-3.9889,-3.9889,-3.9911,-3.9835,-3.948,-3.9456,-3.9429,-3.8064,-3.6779,-3.5549,-3.455,-3.4228,-3.4197,-3.4197,-3.4197,-3.4197,-3.4197,-3.4197,-3.4197,-3.4197,-3.4197,-3.4148,-3.3972,-3.3895,-3.3834,-3.3643,-3.3386,-3.316,-3.316,-3.3024,-3.2916,-3.2916,-3.2916,-3.2916,-3.2916,-3.2916,-3.2916,-3.2916,-3.2916,-3.2916,-3.2916,-3.2916,-3.2916,-3.2916,-3.292,-3.287,-3.2816,-3.242,-3.2179,-3.2179,-3.1393,-3.0885,-3.0764,-3.0426,-3.0146,-3.006,-3.0017,-3.0017,-3.0017,-2.9946,-2.987,-3.5859,-3.5782,0.0,0.0,-3.6133,-3.6405,-3.6455,-3.6831,-3.7154,-3.7154,-3.7425,-3.7657,-3.7657,-3.7947,-3.8373,0.0,-3.8953,-3.9127,-3.963,-4.0017,-4.0249,-4.0249,-3.992,-3.9707,-3.9707,-3.9707,-3.9862,-4.023,-4.0249,-4.0423,-4.0771,-4.079,-4.079,-4.079,-4.079,-4.079,-4.079,-4.079,-4.079,-4.079,-4.079,-4.079,-4.079,-4.079,-4.0804,-4.0775,-4.0466,-4.0264,-4.012,-3.9963,-3.9897,-3.9889,-3.9889,-3.9889,-3.9911,-3.9914,-3.9892,-3.981,-3.9277,-3.7973,-3.6377,-3.5418,-3.4703,-3.4197,-3.4197,-3.4197,-3.4197,-3.4197,-3.4197,-3.4197,-3.4197,-3.4197,-3.4173,-3.4099,-3.3998,-3.3868,-3.3788,-3.3484,-3.319,-3.319,-3.3055,-3.2916,-3.2916,-3.2916,-3.2916,-3.2916,-3.2916,-3.2916,-3.2916,-3.2916,-3.2916,-3.2916,-3.2916,-3.2916,-3.2916,-3.2916,-3.2916,-3.2916,-3.2521,-3.2283,-3.2283,-3.1731,-3.1261,-3.0925,-3.0683,-3.0384,-3.0017,-2.9946,-2.9946,-2.9946,-2.9902,-2.9918,-3.5838,0.0,0.0,-3.6126,-3.657,-3.7003,-3.7267,-3.7777,-3.8199,-3.8199,-3.8392,-3.8566,-3.8566,-3.876,-3.9127,-3.9746,-3.9874,-4.0075,-4.0713,-4.079,-4.079,-4.079,-4.079,-4.079,-4.079,-4.079,-4.079,-4.079,-4.079,-4.079,-4.079,-4.079,-4.079,-4.079,-4.079,-4.079,-4.079,-4.079,-4.079,-4.079,-4.079,-4.079,-4.079,-4.079,-4.0791,-4.0786,-4.0434,-4.0283,-4.0272,-4.0038,-3.9935,-3.9889,-3.9889,-3.9889,-3.9889,-3.9889,-3.9889,-3.9892,-3.9854,-3.8798,-3.7318,-3.6404,-3.5418,-3.4543,-3.4296,-3.4197,-3.4197,-3.4197,-3.4197,-3.4197,-3.4197,-3.4197,-3.4197,-3.4197,-3.4099,-3.3972,-3.3972,-3.3662,-3.3397,-3.3309,-3.3208,-3.3055,-3.2916,-3.2948,-3.2961,-3.2916,-3.2916,-3.2916,-3.2916,-3.2916,-3.2916,-3.2916,-3.2916,-3.2916,-3.2916,-3.2916,-3.2916,-3.2916,-3.2555,-3.2386,-3.2386,-3.1949,-3.1452,-3.1044,-3.0804,-3.0493,-3.0017,-2.9946,-2.9946,-2.9902,-2.9902,-2.9918,-3.5708,0.0,-3.5902,-3.6755,-3.6978,-3.72,-3.7998,-3.8179,-3.8199,-3.8199,-3.8876,-3.9468,-3.9468,-4.0152,-4.0732,-4.0752,-4.0752,-4.0771,-4.079,-4.079,-4.079,-4.079,-4.079,-4.079,-4.079,-4.079,-4.079,-4.079,-4.079,-4.079,-4.079,-4.079,-4.079,-4.079,-4.079,-4.079,-4.079,-4.079,-4.079,-4.079,-4.079,-4.079,-4.079,-4.079,-4.079,-4.079,-4.0574,-4.0415,-4.0283,-4.0158,-4.002,-3.9889,-3.9889,-3.9889,-3.9889,-3.9889,-3.9889,-3.9889,-3.9739,-3.9169,-3.8275,-3.7216,-3.6315,-3.5469,-3.4506,-3.4197,-3.4197,-3.4197,-3.4197,-3.4197,-3.4197,-3.4197,-3.4197,-3.4197,-3.4197,-3.4197,-3.4197,-3.4023,-3.3815,-3.3633,-3.3577,-3.3415,-3.2979,-3.3055,-3.3129,-3.2948,-3.2916,-3.2916,-3.2916,-3.2916,-3.2916,-3.2916,-3.2916,-3.2916,-3.2916,-3.2916,-3.2916,-3.2916,-3.2705,-3.2606,-3.2606,-3.1932,-3.1452,-3.1123,-3.0699,-3.0342,-3.0017,-3.0017,-2.9973,-2.9973,-2.9946,-2.9918,-3.6416,0.0,-3.6723,-3.7637,-3.8255,-3.8725,-3.9004,-3.9514,-3.9765,-3.9185,-3.9746,-4.0191,-3.9623,-3.9739,-3.9952,-3.9952,-3.9456,-3.9282,-3.9862,-3.9952,-4.0152,-4.0732,-4.079,0.0,-4.079,-4.079,-4.079,-4.079,-4.079,-4.079,-4.079,-4.079,-4.079,-4.079,-4.079,-4.079,-4.079,-4.079,-4.079,-4.079,-4.079,-4.079,-4.079,-4.079,-4.079,-4.079,-4.0481,-4.0351,-4.0283,-4.006,-3.9935,-3.9889,-3.9889,-3.9889,-3.9889,-3.9889,-3.9889,-3.9889,-3.9848,-3.9233,-3.8357,-3.7457,-3.6521,-3.5585,-3.4685,-3.4414,-3.4372,-3.424,-3.4197,-3.4197,-3.4197,-3.4197,-3.4197,-3.4197,-3.4197,-3.4197,-3.4197,-3.4049,-3.3868,-3.3815,-3.3698,-3.3549,-3.3386,-3.328,-3.3129,-3.2948,-3.2916,-3.2916,-3.2916,-3.2916,-3.2916,-3.2916,-3.2916,-3.2916,-3.2916,-3.2916,-3.2834,-3.2705,-3.2639,-3.2521,-3.2386,-3.2162,-3.186,-3.1432,-3.1083,-3.0683,-3.0199,-3.0017,-2.9946,-2.9946,-2.9902,-2.9918,-3.6811,-3.7157,-3.7591,-3.8496,-3.9124,-3.9584,-3.9894,-4.0152,-4.0172,-3.9623,-3.9952,-4.0152,-3.9603,-3.9758,-3.9971,-3.9971,-3.9495,-3.9321,-3.9881,-3.9971,-4.0172,-4.0732,-4.079,-4.079,0.0,0.0,-4.079,-4.079,-4.079,-4.079,-4.079,-4.079,-4.079,-4.079,-4.079,-4.079,-4.079,-4.079,-4.079,-4.079,-4.079,-4.079,-4.079,-4.079,-4.0759,-4.0687,-4.0419,-4.0302,-4.0251,-3.9998,-3.9889,-3.9889,-3.9889,-3.9889,-3.9889,-3.9889,-3.9889,-3.9889,-3.9889,-3.9507,-3.8855,-3.8021,-3.7106,-3.6111,-3.488,-3.4498,-3.4456,-3.4264,-3.4197,-3.4197,-3.4197,-3.4197,-3.4197,-3.4197,-3.4197,-3.4197,-3.4197,-3.4099,-3.3998,-3.3921,-3.3842,-3.378,-3.3615,-3.3386,-3.3129,-3.2948,-3.2916,-3.2916,-3.2916,-3.2916,-3.2916,-3.2916,-3.2916,-3.2884,-3.2802,-3.2802,-3.2737,-3.2606,-3.2506,-3.2404,-3.2318,-3.2179,-3.193,-3.1507,-3.1145,-3.0747,-3.0293,-3.0017,-2.9918,-2.9918,-2.9918,-2.9918,-3.6961,-3.7599,-3.8489,-3.934,-3.9584,-3.9777,-4.0558,-4.0075,-3.9487,-3.9449,-3.9468,-3.9507,0.0,0.0,-4.0732,-4.0732,-4.0694,-4.0674,-4.0732,-4.0732,-4.0752,0.0,0.0,0.0,0.0,0.0,0.0,-4.079,-4.079,-4.079,-4.079,-4.079,-4.079,-4.079,-4.079,-4.079,-4.079,-4.079,-4.079,-4.079,-4.079,-4.079,-4.079,-4.079,-4.07,-4.0496,-4.0367,-4.0269,-4.0176,-3.9975,-3.9889,-3.9889,-3.9889,-3.9889,-3.9889,-3.9889,-3.9889,-3.9889,-3.9889,-3.9889,-3.9738,-3.8798,-3.7983,-3.6993,-3.5105,-3.4512,-3.4479,-3.4264,-3.4197,-3.4197,-3.4197,-3.4197,-3.4197,-3.4197,-3.4197,-3.4197,-3.4197,-3.4197,-3.4148,-3.3947,-3.4074,-3.4074,-3.3671,-3.3386,-3.3129,-3.293,-3.2916,-3.2916,-3.2916,-3.2916,-3.2916,-3.2916,-3.2916,-3.2802,-3.2606,-3.2606,-3.2606,-3.2606,-3.2284,-3.2161,-3.2283,-3.1984,-3.1671,-3.1334,-3.1004,-3.0666,-3.0335,-3.006,-2.9902,-2.9918,-2.9918,-2.9918,-3.7696,-3.8508,-3.9379,-4.0249,-4.0462,-4.0346,-3.9932,-3.9661,-3.9321,-3.8663,-3.905,-3.9507,0.0,0.0,0.0,-3.9835,-3.9282,0.0,-3.9727,-3.9835,0.0,-4.0713,0.0,-4.079,-4.079,-4.079,0.0,-4.079,-4.079,-4.079,-4.079,-4.079,-4.079,-4.079,-4.079,-4.079,-4.079,-4.079,-4.079,-4.079,-4.079,-4.079,-4.079,-4.079,-4.0777,-4.0723,-4.0521,-4.0384,-4.0272,-3.9994,-3.9889,-3.9889,-3.9889,-3.9889,-3.9889,-3.9889,-3.9889,-3.9889,-3.9889,-3.9889,-3.9719,-3.8693,-3.822,-3.7648,-3.5472,-3.4798,-3.4716,-3.4316,-3.4208,-3.4197,-3.4197,-3.4197,-3.4197,-3.4197,-3.4197,-3.4197,-3.4197,-3.4197,-3.4173,-3.4124,-3.4173,-3.4074,-3.3671,-3.353,-3.3357,-3.2979,-3.2916,-3.2916,-3.2916,-3.2916,-3.2916,-3.2916,-3.2916,-3.2802,-3.2606,-3.2606,-3.2539,-3.2386,-3.2283,-3.2232,-3.2144,-3.2073,-3.1893,-3.1671,-3.1334,-3.1004,-3.0666,-3.0351,-3.0087,-2.9918,-2.9918,-2.9918,-3.8528,-3.9398,-4.0191,-4.0674,-4.05,-4.0094,-3.9623,-3.9204,-3.8798,-3.8295,-3.8895,0.0,-3.9507,-3.9816,0.0,0.0,0.0,0.0,-3.9997,-4.0055,-4.0249,0.0,-4.079,0.0,-4.079,-4.079,-4.079,-4.079,-4.079,-4.079,-4.079,-4.079,-4.079,-4.079,-4.079,-4.079,-4.079,-4.079,-4.079,-4.079,-4.079,-4.079,-4.079,-4.079,-4.0712,-4.0569,-4.0449,-4.0309,-4.0095,-3.9951,-3.9889,-3.9889,-3.9889,-3.9889,-3.9889,-3.9889,-3.9889,-3.9889,-3.9889,-3.9889,-3.9794,-3.9188,-3.8774,-3.8298,-3.7376,-3.6701,-3.5987,-3.4582,-3.4543,-3.4835,-3.4327,-3.4197,-3.4197,-3.4197,-3.4197,-3.4197,-3.4197,-3.4197,-3.4197,-3.4197,-3.4197,-3.4099,-3.3807,-3.3643,-3.3473,-3.3086,-3.2979,-3.2916,-3.2916,-3.2916,-3.2916,-3.2916,-3.2916,-3.277,-3.2488,-3.2555,-3.2521,-3.2318,-3.2249,-3.2197,-3.2197,-3.2037,-3.191,-3.18,-3.1466,-3.1218,-3.1004,-3.0543,-3.0225,-3.0087,-2.9946,-2.9918,-3.9108,-4.0036,-4.0771,-4.0655,-4.0055,-3.9449,-3.9216,-3.8663,-3.8199,-3.8199,0.0,-3.9545,-3.9661,-4.0288,-4.079,-4.079,0.0,-4.079,-4.079,-4.079,-4.079,-4.079,-4.079,-4.079,-4.079,-4.079,-4.079,-4.079,-4.079,-4.079,-4.079,-4.079,-4.079,-4.079,-4.079,-4.079,-4.079,-4.079,-4.079,-4.079,-4.079,-4.079,-4.079,-4.079,-4.0626,-4.0319,-4.03,-4.0158,-3.9889,-3.9889,-3.9889,-3.9889,-3.9889,-3.9889,-3.9889,-3.9889,-3.9889,-3.9889,-3.9889,-3.9889,-3.9889,-3.9889,-3.9437,-3.8982,-3.9697,-3.9094,-3.7709,-3.5338,-3.528,-3.5678,-3.4649,-3.429,-3.4197,-3.4197,-3.4197,-3.4197,-3.4197,-3.4197,-3.4197,-3.4197,-3.4197,-3.4148,-3.3921,-3.3726,-3.3502,-3.325,-3.3024,-3.2916,-3.2948,-3.2916,-3.2916,-3.2916,-3.2916,-3.2737,-3.2318,-3.2454,-3.2472,-3.2283,-3.2161,-3.2144,-3.2249,-3.1984,-3.1837,-3.18,-3.1504,-3.1334,-3.1295,-3.0666,-3.0335,-3.0293,-3.0017,-2.9918,-3.8392,-3.9591,-4.0616,-3.9913,-3.9623,-3.9108,-3.7677,-3.7793,0.0,0.0,-3.8895,-3.9719,-4.0442,-4.0694,-4.079,-4.079,0.0,0.0,0.0,0.0,-4.079,0.0,0.0,-4.079,-4.079,-4.079,0.0,-4.079,-4.079,-4.079,-4.079,-4.079,-4.079,-4.079,-4.079,-4.079,-4.079,-4.079,-4.079,-4.079,-4.079,-4.079,-4.079,-4.079,-4.0684,-4.0471,-4.0339,-4.0158,-3.9889,-3.9889,-3.9889,-3.9889,-3.9889,-3.9889,-3.9889,-3.9889,-3.9889,-3.9889,-3.9889,-3.9889,-3.9889,-3.9889,-3.9816,-3.9721,-3.9851,-3.9588,-3.8936,-3.7582,-3.6552,-3.5808,-3.5392,-3.4736,-3.4197,-3.4197,-3.4197,-3.4197,-3.4197,-3.4197,-3.4197,-3.4197,-3.4197,-3.4148,-3.3921,-3.3726,-3.3502,-3.325,-3.3024,-3.2961,-3.3129,-3.2993,-3.2916,-3.2916,-3.2916,-3.2737,-3.2318,-3.2318,-3.2283,-3.2144,-3.2108,-3.2108,-3.2144,-3.2073,-3.1965,-3.18,-3.1746,-3.1596,-3.1295,-3.0925,-3.0584,-3.0293,-3.0017,-2.9918,-3.874,-3.9495,-4.0017,-3.9603,-3.8818,-3.7928,-3.7096,0.0,0.0,0.0,-3.9243,-4.0288,-4.0713,0.0,0.0,0.0,0.0,0.0,0.0,0.0,0.0,0.0,0.0,0.0,0.0,-4.079,-4.079,-4.079,-4.079,-4.079,-4.079,-4.079,-4.079,-4.079,-4.079,-4.079,-4.079,-4.079,-4.079,-4.079,-4.079,-4.079,-4.079,-4.079,-4.0761,-4.0643,-4.0262,-4.0024,-3.9889,-3.9889,-3.9889,-3.9889,-3.9889,-3.9889,-3.9889,-3.9889,-3.9889,-3.9889,-3.9889,-3.9889,-3.9889,-3.9889,-3.9889,-3.9889,-3.9889,-3.98,-3.9439,-3.8174,-3.7448,-3.6814,-3.5764,-3.5182,-3.4754,-3.4309,-3.4197,-3.4197,-3.4197,-3.4197,-3.4197,-3.4197,-3.4197,-3.4173,-3.4074,-3.3895,-3.3707,-3.3578,-3.3397,-3.3298,-3.3415,-3.3327,-3.3208,-3.3086,-3.2993,-3.277,-3.2352,-3.2283,-3.2249,-3.2108,-3.2108,-3.2108,-3.2108,-3.2001,-3.191,-3.18,-3.18,-3.1709,-3.1542,-3.1218,-3.0885,-3.0543,-3.0241,-3.0017,-3.876,-3.9069,-3.9166,-3.8992,-3.7909,-3.6845,-3.669,-3.7444,0.0,0.0,-3.9591,-4.079,-4.079,0.0,-4.079,0.0,-4.079,0.0,0.0,0.0,0.0,0.0,0.0,0.0,-4.079,-4.079,0.0,-4.079,-4.079,-4.079,-4.079,-4.079,-4.079,-4.079,-4.079,-4.079,-4.079,-4.079,-4.079,-4.079,-4.079,-4.079,-4.079,-4.079,-4.0781,-4.0701,-4.0281,-4.0024,-3.9889,-3.9889,-3.9889,-3.9889,-3.9889,-3.9889,-3.9889,-3.9889,-3.9889,-3.9889,-3.9889,-3.9889,-3.9889,-3.9889,-3.9889,-3.9889,-3.9889,-3.9879,-3.9637,-3.8474,-3.8128,-3.7779,-3.6384,-3.5757,-3.5274,-3.4401,-3.4197,-3.4197,-3.4197,-3.4197,-3.4197,-3.4197,-3.4197,-3.4197,-3.4197,-3.4023,-3.3895,-3.3895,-3.3726,-3.3633,-3.3643,-3.3671,-3.3587,-3.335,-3.322,-3.2943,-3.242,-3.2386,-3.2283,-3.2037,-3.2054,-3.2054,-3.2054,-3.1856,-3.18,-3.18,-3.18,-3.18,-3.18,-3.1466,-3.114,-3.0788,-3.046,-3.0156,-3.7116,-3.7715,-3.8141,-3.7348,-3.7019,-3.6709,-3.5974,0.0,0.0,-3.8199,-3.9591,-4.079,-4.079,-4.079,-4.079,-4.079,0.0,-4.079,0.0,0.0,0.0,0.0,0.0,0.0,-4.079,-4.079,-4.079,-4.079,-4.079,-4.079,-4.079,-4.079,-4.079,-4.079,-4.079,-4.079,-4.079,-4.079,-4.079,-4.079,-4.079,-4.079,-4.079,-4.079,-4.0703,-4.0528,-4.0663,-4.0406,-3.9889,-3.9889,-3.9889,-3.9889,-3.9889,-3.9889,-3.9889,-3.9889,-3.9889,-3.9889,-3.9889,-3.9889,-3.9889,-3.9889,-3.9889,-3.9889,-3.9889,-3.9804,-3.967,-3.9419,-3.8727,-3.804,-3.7761,-3.6593,-3.5274,-3.4401,-3.4197,-3.4197,-3.4197,-3.4197,-3.4197,-3.4197,-3.4197,-3.4197,-3.4197,-3.4023,-3.3895,-3.3895,-3.3726,-3.3671,-3.3842,-3.3868,-3.3868,-3.3842,-3.3671,-3.3309,-3.2702,-3.2669,-3.2403,-3.1856,-3.1837,-3.1837,-3.1837,-3.18,-3.18,-3.18,-3.18,-3.18,-3.18,-3.1466,-3.114,-3.0788,-3.046,-3.0156,-3.6903,-3.7154,-3.7328,-3.7,-3.6535,-3.6091,-3.5762,0.0,-3.758,-3.8102,-3.9166,-4.0172,-4.0694,-4.079,-4.079,-4.079,-4.079,0.0,-4.079,0.0,0.0,0.0,0.0,0.0,0.0,0.0,-4.079,-4.079,-4.079,-4.079,-4.079,-4.079,-4.079,-4.079,-4.079,-4.079,-4.079,-4.079,-4.079,-4.079,-4.079,-4.079,-4.079,-4.0668,-4.0631,-4.0663,-4.0556,-4.0272,-3.9889,-3.9889,-3.9889,-3.9889,-3.9889,-3.9889,-3.9889,-3.9889,-3.9889,-3.9889,-3.9889,-3.9889,-3.9889,-3.9889,-3.9889,-3.9889,-3.9889,-3.9848,-3.9804,-3.967,-3.9282,-3.8802,-3.8189,-3.6763,-3.5274,-3.4401,-3.4197,-3.4197,-3.4197,-3.4197,-3.4197,-3.4197,-3.4197,-3.4197,-3.4197,-3.4124,-3.4074,-3.4074,-3.4023,-3.3998,-3.4074,-3.4074,-3.4074,-3.4074,-3.3797,-3.3447,-3.3032,-3.2716,-3.2403,-3.2126,-3.1929,-3.18,-3.18,-3.18,-3.18,-3.18,-3.18,-3.18,-3.18,-3.1671,-3.1428,-3.1083,-3.0764,-3.0435,-3.6555,-3.6555,-3.6555,-3.6555,-3.611,-3.5704,0.0,0.0,-3.7154,-3.8025,-3.8895,-3.9777,-4.0636,-4.079,-4.079,-4.079,-4.079,-4.079,-4.079,0.0,0.0,0.0,0.0,-4.079,0.0,-4.079,-4.079,-4.079,-4.079,-4.079,-4.079,-4.079,-4.079,-4.079,-4.079,-4.079,-4.079,-4.079,-4.079,-4.079,-4.079,-4.079,-4.079,-4.0588,-4.0566,-4.0643,-4.0329,-4.0058,-3.9889,-3.9889,-3.9889,-3.9889,-3.9889,-3.9889,-3.9889,-3.9889,-3.9889,-3.9889,-3.9889,-3.9889,-3.9889,-3.9889,-3.9889,-3.9889,-3.9889,-3.9889,-3.9867,-3.9739,-3.9556,-3.9183,-3.8009,-3.6763,-3.5572,-3.4457,-3.4197,-3.4197,-3.4197,-3.4197,-3.4197,-3.4197,-3.4197,-3.4197,-3.4197,-3.4197,-3.4197,-3.4197,-3.4197,-3.4197,-3.4197,-3.4197,-3.4197,-3.4197,-3.3935,-3.3625,-3.3314,-3.2827,-3.2486,-3.2318,-3.202,-3.1873,-3.18,-3.1873,-3.1873,-3.18,-3.18,-3.18,-3.18,-3.18,-3.1634,-3.1295,-3.0965,-3.0601,-3.5704,-3.5704,-3.5704,-3.5704,-3.5704,-3.5704,0.0,0.0,-3.7154,-3.8025,-3.8895,-3.9777,-4.0636,-4.079,-4.079,-4.079,-4.079,-4.079,-4.079,0.0,0.0,0.0,0.0,-4.079,-4.079,-4.079,-4.079,-4.079,-4.079,-4.079,-4.079,-4.079,-4.079,-4.079,-4.079,-4.079,-4.079,-4.079,-4.079,-4.079,-4.079,-4.079,-4.079,-4.0588,-4.0431,-4.03,-4.0024,-3.9906,-3.9889,-3.9889,-3.9889,-3.9889,-3.9889,-3.9889,-3.9889,-3.9889,-3.9889,-3.9889,-3.9889,-3.9889,-3.9889,-3.9889,-3.9889,-3.9889,-3.9889,-3.9889,-3.9867,-3.9739,-3.9526,-3.8898,-3.7166,-3.6686,-3.6259,-3.4587,-3.4197,-3.4197,-3.4197,-3.4197,-3.4197,-3.4197,-3.4197,-3.4197,-3.4197,-3.4197,-3.4197,-3.4197,-3.4197,-3.4197,-3.4197,-3.4197,-3.4197,-3.4197,-3.4148,-3.3928,-3.3542,-3.3118,-3.2713,-3.2318,-3.2161,-3.2001,-3.18,-3.2001,-3.2001,-3.18,-3.18,-3.18,-3.18,-3.18,-3.1634,-3.1295,-3.0965,-3.0493,-3.5704,-3.5704,-3.5704,-3.5704,-3.5704,-3.5704,-3.5704,0.0,-3.6303,-3.7135,-3.8005,-3.8876,-3.9746,-4.0404,-4.079,-4.079,-4.079,-4.079,0.0,0.0,0.0,0.0,-4.079,-4.079,0.0,-4.079,-4.079,-4.079,-4.079,-4.079,-4.079,-4.079,-4.079,-4.079,-4.079,-4.079,-4.079,-4.079,-4.079,-4.079,-4.079,-4.079,-4.079,-4.05,-4.0332,-4.0206,-3.9984,-3.9897,-3.9889,-3.9889,-3.9889,-3.9889,-3.9889,-3.9889,-3.9889,-3.9889,-3.9889,-3.9889,-3.9889,-3.9889,-3.9889,-3.9889,-3.9889,-3.9889,-3.9889,-3.9889,-3.9848,-3.9623,-3.9113,-3.8315,-3.7043,-3.6278,-3.559,-3.4457,-3.4197,-3.4197,-3.4197,-3.4197,-3.4197,-3.4197,-3.4197,-3.4197,-3.4197,-3.4197,-3.4197,-3.4197,-3.4197,-3.4197,-3.4197,-3.4197,-3.4197,-3.4197,-3.4099,-3.3998,-3.385,-3.3266,-3.2809,-3.2651,-3.2283,-3.2073,-3.2001,-3.209,-3.2073,-3.2018,-3.1873,-3.18,-3.18,-3.18,-3.1504,-3.0965,-3.0845,-3.0493,0.0,-3.5704,-3.5704,-3.5704,-3.5704,0.0,0.0,0.0,-3.5936,-3.6729,-3.7599,-3.847,-3.934,-4.021,-4.079,-4.079,-4.079,-4.079,0.0,0.0,0.0,0.0,0.0,0.0,0.0,-4.079,-4.079,-4.079,-4.079,-4.079,-4.079,-4.079,-4.079,-4.079,-4.079,-4.079,-4.079,-4.079,-4.079,-4.079,-4.079,-4.079,-4.079,-4.045,-4.0262,-4.0187,-4.0001,-3.9889,0.0,-3.9889,-3.9889,-3.9889,-3.9889,-3.9889,-3.9889,-3.9889,-3.9889,-3.9889,-3.9889,-3.9889,-3.9889,-3.9889,-3.9889,-3.9889,-3.9889,-3.9889,-3.975,-3.9124,-3.8643,-3.7971,-3.6596,-3.5869,-3.5274,-3.4401,-3.4197,-3.4197,-3.4197,-3.4197,-3.4197,-3.4197,-3.4197,-3.4197,-3.4197,-3.4197,-3.4197,-3.4197,-3.4197,-3.4197,-3.4197,-3.4197,-3.4197,-3.4197,-3.4074,-3.3998,-3.3998,-3.3372,-3.2952,-3.2908,-3.2521,-3.2249,-3.2108,-3.2144,-3.2108,-3.2001,-3.1856,-3.18,-3.18,-3.18,-3.1466,-3.0804,-3.0804,-3.0493,0.0,-3.5704,0.0,0.0,0.0,0.0,0.0,0.0,0.0,0.0,0.0,0.0,-3.9243,-4.0113,-4.0732,-4.079,-4.079,0.0,0.0,0.0,0.0,0.0,-4.079,0.0,-4.079,-4.079,-4.079,-4.079,-4.079,-4.079,-4.079,-4.079,-4.079,-4.079,-4.079,-4.079,-4.079,-4.079,-4.079,-4.079,-4.079,-4.079,-4.079,-4.045,-4.0279,-4.0187,-4.0001,-3.9911,-3.9889,-3.9889,-3.9889,-3.9889,-3.9889,-3.9889,-3.9889,-3.9889,-3.9889,-3.9889,-3.9889,-3.9889,-3.9889,-3.9889,-3.9889,-3.9889,-3.9889,-3.9889,-3.9618,-3.8352,-3.8056,-3.7727,-3.5944,-3.5442,-3.52,-3.4383,-3.4197,-3.4197,-3.4197,-3.4197,-3.4197,-3.4197,-3.4197,-3.4197,-3.4197,-3.4197,-3.4197,-3.4197,-3.4197,-3.4197,-3.4197,-3.4197,-3.4197,-3.4197,-3.4074,-3.3998,-3.3998,-3.3447,-3.3111,-3.3111,-3.2784,-3.2438,-3.2108,-3.2232,-3.2126,-3.1837,-3.18,-3.18,-3.18,-3.18,-3.1466,-3.0828,-3.0788,-3.0493,-3.5704,0.0,-3.5704,-3.5704,-3.5704,-3.5704,0.0,0.0,0.0,0.0,0.0,0.0,0.0,0.0,-4.0017,-4.0694,-4.079,-4.079,0.0,0.0,0.0,0.0,-4.079,-4.079,-4.079,-4.079,-4.079,-4.079,-4.079,-4.079,-4.079,-4.079,-4.079,-4.079,-4.079,-4.079,-4.079,-4.079,-4.079,-4.079,-4.079,-4.079,-4.079,-4.0559,-4.0399,-4.0281,-4.012,-3.9979,-3.9889,-3.9889,-3.9889,-3.9889,-3.9889,-3.9889,-3.9889,-3.9889,-3.9889,-3.9889,-3.9889,-3.9889,-3.9889,-3.9889,-3.9889,-3.9889,-3.9889,-3.9889,-3.9618,-3.8352,-3.7319,-3.6447,-3.5684,-3.4996,-3.4439,-3.4253,-3.4197,-3.4197,-3.4197,-3.4197,-3.4197,-3.4197,-3.4197,-3.4197,-3.4197,-3.4197,-3.4197,-3.4197,-3.4197,-3.4197,-3.4197,-3.4197,-3.4197,-3.4197,-3.4124,-3.4074,-3.4074,-3.3476,-3.3111,-3.3111,-3.2636,-3.2335,-3.2266,-3.2161,-3.2108,-3.2037,-3.1873,-3.18,-3.18,-3.18,-3.1596,-3.1179,-3.0925,-3.0601,-3.5704,-3.5704,-3.5704,-3.5704,-3.5704,-3.5704,0.0,0.0,0.0,0.0,0.0,0.0,0.0,0.0,0.0,0.0,-4.079,0.0,0.0,0.0,0.0,-4.079,-4.079,-4.079,-4.079,-4.079,-4.079,-4.079,-4.079,-4.079,-4.079,-4.079,-4.079,-4.079,-4.079,-4.079,-4.079,-4.079,-4.079,-4.079,-4.079,-4.079,-4.079,-4.0588,-4.0446,-4.0383,-4.0176,-4.006,-3.9998,-3.9933,-3.9889,-3.9889,-3.9889,-3.9889,-3.9889,-3.9889,-3.9889,-3.9889,-3.9889,-3.9889,-3.9889,-3.9889,-3.9889,-3.9889,-3.9889,-3.9889,-3.9754,-3.9067,-3.7539,-3.5918,-3.5107,-3.455,-3.4197,-3.4197,-3.4197,-3.4197,-3.4197,-3.4197,-3.4197,-3.4197,-3.4197,-3.4197,-3.4197,-3.4197,-3.4197,-3.4197,-3.4197,-3.4197,-3.4197,-3.4197,-3.4197,-3.4197,-3.4148,-3.4099,-3.4099,-3.3606,-3.325,-3.3154,-3.2702,-3.237,-3.2197,-3.2144,-3.2054,-3.1965,-3.1873,-3.18,-3.18,-3.18,-3.1634,-3.1295,-3.0965,-3.0625,-3.5704,-3.5704,-3.5704,-3.5704,-3.5704,-3.5704,0.0,0.0,0.0,0.0,0.0,0.0,0.0,0.0,0.0,0.0,0.0,0.0,0.0,0.0,0.0,-4.079,-4.079,-4.079,-4.079,-4.079,-4.079,-4.079,-4.079,-4.079,-4.079,-4.079,-4.079,-4.079,-4.079,-4.079,-4.079,-4.079,-4.079,-4.079,-4.079,-4.079,-4.079,-4.0621,-4.0511,-4.0446,-4.023,-4.0101,-4.006,-3.9935,-3.9889,-3.9889,-3.9889,-3.9889,-3.9889,-3.9889,-3.9889,-3.9889,-3.9889,-3.9889,-3.9889,-3.9889,-3.9889,-3.9889,-3.9889,-3.9889,-3.9908,-3.9894,-3.8079,-3.5825,-3.4721,-3.4314,-3.4197,-3.4197,-3.4197,-3.4197,-3.4197,-3.4197,-3.4197,-3.4197,-3.4197,-3.4197,-3.4197,-3.4197,-3.4197,-3.4197,-3.4197,-3.4197,-3.4197,-3.4197,-3.4197,-3.4197,-3.4148,-3.4124,-3.4124,-3.378,-3.3473,-3.3214,-3.283,-3.2438,-3.2108,-3.2108,-3.2018,-3.18,-3.18,-3.18,-3.18,-3.18,-3.1671,-3.1372,-3.0965,-3.0625,-3.5704,-3.5704,-3.5704,-3.5704,-3.5704,-3.5704,-3.5704,0.0,0.0,0.0,0.0,0.0,0.0,0.0,0.0,0.0,0.0,0.0,0.0,0.0,-4.079,-4.079,0.0,-4.079,-4.079,-4.079,-4.079,-4.079,-4.079,-4.079,-4.079,-4.079,-4.079,-4.079,-4.079,-4.079,-4.079,-4.079,-4.079,-4.079,-4.079,-4.079,-4.079,-4.0778,-4.0593,-4.0334,-4.03,-4.0139,-3.9933,-3.9911,-3.9889,-3.9889,-3.9889,-3.9889,-3.9889,-3.9889,-3.9889,-3.9889,-3.9889,-3.9889,-3.9889,-3.9889,-3.9889,-3.9889,-3.9889,-3.9889,-3.9889,-3.9902,-3.8064,-3.5998,-3.5586,-3.4833,-3.4197,-3.4197,-3.4197,-3.4197,-3.4197,-3.4197,-3.4197,-3.4197,-3.4197,-3.4197,-3.4197,-3.4197,-3.4197,-3.4197,-3.4197,-3.4197,-3.4197,-3.4197,-3.4197,-3.4197,-3.4197,-3.4173,-3.4173,-3.3972,-3.368,-3.3321,-3.2862,-3.2438,-3.2108,-3.2108,-3.2018,-3.18,-3.18,-3.18,-3.18,-3.18,-3.1746,-3.1709,-3.1083,-3.0747,-3.5704,-3.5704,-3.5704,-3.5704,-3.5704,-3.5704,-3.5704,0.0,0.0,0.0,0.0,0.0,0.0,0.0,0.0,0.0,0.0,-4.079,-4.079,-4.079,-4.079,0.0,-4.079,-4.079,-4.079,-4.079,-4.079,-4.079,-4.079,-4.079,-4.079,-4.079,-4.079,-4.079,-4.079,-4.079,-4.079,-4.079,-4.079,-4.079,-4.079,-4.079,-4.079,-4.079,-4.072,-4.0564,-4.0466,-4.03,-4.012,-4.004,-3.9977,-3.9889,-3.9889,-3.9889,-3.9889,-3.9889,-3.9889,-3.9889,-3.9889,-3.9889,-3.9889,-3.9889,-3.9889,-3.9889,-3.9889,-3.9889,-3.9889,-3.9908,-3.8067,-3.6077,-3.5951,-3.5062,-3.4197,-3.4197,-3.4197,-3.4197,-3.4197,-3.4197,-3.4197,-3.4197,-3.4197,-3.4197,-3.4197,-3.4197,-3.4197,-3.4197,-3.4197,-3.4197,-3.4197,-3.4197,-3.4197,-3.4197,-3.4197,-3.4197,-3.4197,-3.4023,-3.3689,-3.3172,-3.2621,-3.2284,-3.2108,-3.2018,-3.1893,-3.18,-3.18,-3.18,-3.18,-3.18,-3.18,-3.18,-3.1123,-3.0804,-3.5704,-3.5704,-3.5704,-3.5704,0.0,-3.5704,-3.5704,0.0,0.0,0.0,0.0,0.0,0.0,0.0,0.0,0.0,-4.079,-4.079,-4.079,-4.079,-4.079,-4.079,-4.079,-4.079,-4.079,-4.079,-4.079,-4.079,-4.079,-4.079,-4.079,-4.079,-4.079,-4.079,-4.079,-4.079,-4.079,-4.079,-4.079,-4.079,-4.079,-4.079,-4.079,-4.079,-4.0759,-4.0713,-4.0574,-4.0415,-4.03,-4.0158,-4.004,-3.9935,-3.9911,-3.9889,-3.9889,-3.9889,-3.9889,-3.9889,-3.9889,-3.9889,-3.9889,-3.9889,-3.9889,-3.9889,-3.9889,-3.9889,-3.9889,-3.9889,-3.8339,-3.6633,-3.6437,-3.532,-3.4245,-3.4245,-3.4221,-3.4197,-3.4197,-3.4197,-3.4197,-3.4197,-3.4197,-3.4197,-3.4197,-3.4197,-3.4197,-3.4197,-3.4197,-3.4197,-3.4197,-3.4197,-3.4197,-3.4197,-3.4197,-3.4197,-3.4197,-3.4023,-3.3662,-3.316,-3.2654,-3.2301,-3.2144,-3.2001,-3.1893,-3.18,-3.18,-3.18,-3.18,-3.18,-3.18,-3.18,-3.1201,-3.0885,-3.5704,-3.5704,-3.5704,-3.5704,-3.5704,0.0,-3.5704,-3.5704,0.0,0.0,0.0,0.0,0.0,0.0,0.0,0.0,-4.079,-4.079,-4.079,-4.079,-4.079,-4.079,-4.079,-4.079,-4.079,-4.079,-4.079,-4.079,-4.079,-4.079,-4.079,-4.079,-4.079,-4.079,-4.079,-4.079,-4.079,-4.079,-4.079,-4.079,-4.079,-4.079,-4.079,-4.079,-4.07,-4.0526,-4.0511,-4.0415,-4.03,-4.0158,-4.0101,-4.0061,-3.9935,-3.9889,-3.9889,-3.9889,-3.9889,-3.9889,-3.9889,-3.9889,-3.9889,-3.9889,-3.9889,-3.9889,-3.9889,-3.9889,-3.9889,-3.9889,-3.9142,-3.8169,-3.7411,-3.5803,-3.4404,-3.4404,-3.4293,-3.4197,-3.4197,-3.4197,-3.4197,-3.4197,-3.4197,-3.4197,-3.4197,-3.4197,-3.4197,-3.4197,-3.4197,-3.4197,-3.4197,-3.4197,-3.4197,-3.4197,-3.4197,-3.4197,-3.4197,-3.4023,-3.3788,-3.3559,-3.328,-3.2862,-3.2318,-3.2283,-3.2126,-3.18,-3.18,-3.18,-3.18,-3.18,-3.18,-3.18,-3.1428,-3.1083,-3.5704,-3.5704,-3.5704,-3.5704,0.0,0.0,0.0,0.0,0.0,0.0,0.0,0.0,0.0,0.0,0.0,-4.079,-4.079,-4.079,-4.079,-4.079,-4.079,-4.079,-4.079,-4.079,-4.079,-4.079,-4.079,-4.079,-4.079,-4.079,-4.079,-4.079,-4.079,-4.079,-4.079,-4.079,-4.079,-4.079,-4.079,-4.079,-4.079,-4.079,-4.079,-4.079,-4.0759,-4.07,-4.07,-4.053,-4.03,-4.0248,-4.0139,-3.9977,-3.9933,-3.9889,-3.9889,-3.9889,-3.9889,-3.9889,-3.9889,-3.9889,-3.9889,-3.9889,-3.9889,-3.9889,-3.9889,-3.9889,-3.9889,-3.9889,-3.9283,-3.8385,-3.7423,-3.6212,-3.5058,-3.4423,-3.4245,-3.4197,-3.4197,-3.4197,-3.4197,-3.4197,-3.4197,-3.4197,-3.4197,-3.4197,-3.4197,-3.4197,-3.4197,-3.4197,-3.4197,-3.4197,-3.4197,-3.4197,-3.4197,-3.4197,-3.4197,-3.4023,-3.3815,-3.3587,-3.3142,-3.2702,-3.2318,-3.2091,-3.1929,-3.18,-3.18,-3.18,-3.18,-3.18,-3.18,-3.18,-3.1466,-3.1123,-3.5704,-3.5697,-3.5708,0.0,0.0,0.0,0.0,0.0,0.0,0.0,0.0,0.0,0.0,0.0,0.0,0.0,-4.079,-4.079,-4.079,-4.079,-4.079,-4.079,-4.079,-4.079,-4.079,-4.079,-4.079,-4.079,-4.079,-4.079,-4.079,-4.079,-4.079,-4.079,-4.079,-4.079,-4.079,-4.079,-4.079,-4.079,-4.079,-4.079,-4.079,-4.079,-4.079,-4.079,-4.079,-4.0673,-4.045,-4.0383,-4.0213,-3.9956,-3.9911,-3.9889,-3.9889,-3.9889,-3.9889,-3.9889,-3.9889,-3.9889,-3.9889,-3.9889,-3.9889,-3.9889,-3.9889,-3.9889,-3.9889,-3.9889,-3.9513,-3.8769,-3.7498,-3.646,-3.5479,-3.4498,-3.4221,-3.4197,-3.4197,-3.4197,-3.4197,-3.4197,-3.4197,-3.4197,-3.4197,-3.4197,-3.4197,-3.4197,-3.4197,-3.4197,-3.4197,-3.4197,-3.4197,-3.4197,-3.4197,-3.4173,-3.4124,-3.3972,-3.3762,-3.3502,-3.2988,-3.257,-3.2318,-3.2037,-3.1856,-3.18,-3.18,-3.18,-3.18,-3.18,-3.18,-3.18,-3.1542,-3.1218,-3.5704,-3.5708,0.0,0.0,0.0,0.0,0.0,0.0,0.0,0.0,0.0,-3.874,-4.0481,-4.079,0.0,-4.079,-4.079,-4.079,-4.079,-4.079,-4.079,-4.079,-4.079,-4.079,-4.079,-4.079,-4.079,-4.079,-4.079,-4.079,-4.079,-4.079,-4.079,-4.079,-4.079,-4.079,-4.079,-4.079,-4.079,-4.079,-4.079,-4.079,-4.079,-4.079,-4.079,-4.079,-4.079,-4.079,-4.079,-4.0574,-4.0334,-4.0081,-3.9956,-3.9889,-3.9889,-3.9889,-3.9889,-3.9889,-3.9889,-3.9889,-3.9889,-3.9889,-3.9889,-3.9889,-3.9889,-3.9889,-3.9889,-3.9889,-3.9889,-3.951,-3.7737,-3.6553,-3.5556,-3.4637,-3.4293,-3.4197,-3.4197,-3.4197,-3.4197,-3.4197,-3.4197,-3.4197,-3.4197,-3.4197,-3.4197,-3.4197,-3.4197,-3.4197,-3.4197,-3.4197,-3.4197,-3.4197,-3.4197,-3.4124,-3.3921,-3.3895,-3.3707,-3.325,-3.2894,-3.257,-3.2318,-3.2179,-3.2001,-3.18,-3.18,-3.18,-3.18,-3.18,-3.18,-3.18,-3.18,-3.1466,-3.5698,0.0,0.0,0.0,0.0,0.0,0.0,0.0,0.0,0.0,0.0,-3.9456,-4.0578,-4.079,0.0,-4.079,-4.079,-4.079,-4.079,-4.079,-4.079,-4.079,-4.079,-4.079,-4.079,-4.079,-4.079,-4.079,-4.079,-4.079,-4.079,-4.079,-4.079,-4.079,-4.079,-4.079,-4.079,-4.079,-4.079,-4.079,-4.079,-4.079,-4.079,-4.079,-4.079,-4.079,-4.079,-4.0713,-4.0559,-4.0317,-4.0157,-4.0081,-3.9956,-3.9889,-3.9889,-3.9889,-3.9889,-3.9889,-3.9889,-3.9889,-3.9889,-3.9889,-3.9889,-3.9889,-3.9889,-3.9889,-3.9889,-3.9889,-3.9889,-3.951,-3.7737,-3.7005,-3.6329,-3.4768,-3.4293,-3.4197,-3.4197,-3.4197,-3.4197,-3.4197,-3.4197,-3.4197,-3.4197,-3.4197,-3.4197,-3.4197,-3.4197,-3.4197,-3.4197,-3.4197,-3.4197,-3.4197,-3.4197,-3.4124,-3.3921,-3.378,-3.3559,-3.322,-3.2702,-3.2369,-3.2318,-3.2037,-3.1873,-3.18,-3.18,-3.18,-3.18,-3.18,-3.18,-3.18,-3.18,-3.1579,-3.5707,0.0,0.0,0.0,0.0,0.0,0.0,0.0,0.0,0.0,0.0,-3.9243,-4.0113,-4.0558,0.0,-4.079,-4.079,-4.079,-4.079,-4.079,-4.079,-4.079,-4.079,-4.079,-4.079,-4.079,-4.079,-4.079,-4.079,-4.079,-4.079,-4.079,-4.079,-4.079,-4.079,-4.079,-4.079,-4.079,-4.079,-4.079,-4.079,-4.079,-4.079,-4.079,-4.079,-4.079,-4.079,-4.0733,-4.0607,-4.0283,-4.0176,-4.0157,-3.9977,-3.9889,-3.9889,-3.9889,-3.9889,-3.9889,-3.9889,-3.9889,-3.9889,-3.9889,-3.9889,-3.9889,-3.9889,-3.9889,-3.9889,-3.9889,-3.9683,-3.9094,-3.7662,-3.693,-3.6216,-3.4749,-3.4293,-3.4197,-3.4197,-3.4197,-3.4197,-3.4197,-3.4197,-3.4197,-3.4197,-3.4197,-3.4197,-3.4197,-3.4197,-3.4197,-3.4197,-3.4197,-3.4197,-3.4197,-3.4197,-3.4099,-3.3788,-3.3671,-3.3444,-3.3099,-3.2588,-3.2283,-3.2283,-3.2001,-3.18,-3.18,-3.18,-3.18,-3.18,-3.18,-3.18,-3.18,-3.18,-3.1634,0.0,0.0,0.0,0.0,0.0,0.0,0.0,0.0,0.0,0.0,0.0,-3.847,-3.934,-4.021,-4.079,-4.079,-4.079,-4.079,-4.079,-4.079,-4.079,-4.079,-4.079,-4.079,-4.079,-4.079,-4.079,-4.079,-4.079,-4.079,-4.079,-4.079,-4.079,-4.079,-4.079,-4.079,-4.079,-4.079,-4.079,-4.079,-4.079,-4.079,-4.079,-4.079,-4.079,-4.079,-4.079,-4.0759,-4.0746,-4.0419,-4.0283,-4.0266,-4.0,-3.9889,-3.9889,-3.9889,-3.9889,-3.9889,-3.9889,-3.9889,-3.9889,-3.9889,-3.9889,-3.9889,-3.9889,-3.9889,-3.9889,-3.9889,-3.9323,-3.8469,-3.753,-3.6553,-3.5556,-3.4637,-3.4293,-3.4197,-3.4197,-3.4197,-3.4197,-3.4197,-3.4197,-3.4197,-3.4197,-3.4197,-3.4197,-3.4197,-3.4197,-3.4197,-3.4197,-3.4197,-3.4197,-3.4197,-3.4197,-3.4049,-3.3615,-3.3605,-3.3386,-3.2948,-3.2521,-3.2318,-3.2283,-3.2001,-3.18,-3.18,-3.18,-3.18,-3.18,-3.18,-3.18,-3.18,-3.18,-3.1634,0.0,0.0,0.0,0.0,0.0,0.0,0.0,0.0,0.0,-3.7618,-3.8083,-3.847,-3.934,-4.021,-4.079,-4.079,-4.079,-4.079,-4.079,-4.079,-4.079,-4.079,-4.079,-4.079,-4.079,-4.079,-4.079,-4.079,-4.079,-4.079,-4.079,-4.079,-4.079,-4.079,-4.079,-4.079,-4.079,-4.079,-4.079,-4.079,-4.079,-4.079,-4.079,-4.079,-4.079,-4.079,-4.0621,-4.0559,-4.0545,-4.0248,-4.0139,-4.0139,-3.9956,-3.9889,-3.9889,-3.9889,-3.9889,-3.9889,-3.9889,-3.9889,-3.9889,-3.9889,-3.9889,-3.9889,-3.9889,-3.9889,-3.9889,-3.9889,-3.9323,-3.8469,-3.753,-3.6553,-3.5556,-3.4637,-3.4293,-3.4197,-3.4197,-3.4197,-3.4197,-3.4197,-3.4197,-3.4197,-3.4197,-3.4197,-3.4197,-3.4197,-3.4197,-3.4197,-3.4197,-3.4197,-3.4197,-3.4197,-3.4197,-3.4049,-3.3615,-3.3605,-3.3386,-3.2948,-3.2672,-3.2454,-3.2318,-3.2001,-3.18,-3.18,-3.18,-3.18,-3.18,-3.18,-3.18,-3.18,-3.18,-3.1746,0.0,0.0,0.0,0.0,0.0,0.0,0.0,0.0,0.0,-3.6826,-3.7638,-3.8334,-3.8798,-3.992,-4.079,-4.079,-4.079,-4.079,-4.079,-4.079,-4.079,-4.079,-4.079,-4.079,-4.079,-4.079,-4.079,-4.079,-4.079,-4.079,-4.079,-4.079,-4.079,-4.079,-4.079,-4.079,-4.079,-4.079,-4.079,-4.079,-4.079,-4.079,-4.079,-4.079,-4.0746,-4.0654,-4.0559,-4.0462,-4.0383,-4.0176,-4.0101,-4.0081,-3.9956,-3.9889,-3.9889,-3.9889,-3.9889,-3.9889,-3.9889,-3.9889,-3.9889,-3.9889,-3.9889,-3.9889,-3.9889,-3.9889,-3.9835,-3.9437,-3.8717,-3.7862,-3.6842,-3.5907,-3.5086,-3.4544,-3.434,-3.4269,-3.4221,-3.4245,-3.4269,-3.4221,-3.4197,-3.4197,-3.4197,-3.4197,-3.4197,-3.4197,-3.4197,-3.4197,-3.4197,-3.4197,-3.4197,-3.4197,-3.4197,-3.4049,-3.3615,-3.3605,-3.3386,-3.2948,-3.2639,-3.2454,-3.2454,-3.2037,-3.18,-3.18,-3.18,-3.18,-3.18,-3.18,-3.18,-3.18,-3.18,-3.18,0.0,0.0,0.0,0.0,0.0,0.0,0.0,0.0,0.0,-3.5704,-3.7038,-3.8199,-3.823,-3.9642,-4.0803,-4.0796,-4.0803,-4.079,-4.079,-4.079,-4.079,-4.079,-4.079,-4.079,-4.079,-4.079,-4.079,-4.079,-4.079,-4.079,-4.079,-4.079,-4.079,-4.079,-4.079,-4.079,-4.079,-4.079,-4.079,-4.079,-4.079,-4.079,-4.079,-4.0759,-4.0654,-4.0511,-4.0446,-4.0367,-4.0266,-4.012,-4.008,-4.0041,-3.9935,-3.9889,-3.9889,-3.9889,-3.9889,-3.9889,-3.9889,-3.9889,-3.9889,-3.9889,-3.9889,-3.9889,-3.9889,-3.9889,-3.974,-3.8925,-3.8073,-3.7139,-3.6076,-3.5184,-3.4539,-3.4427,-3.4427,-3.4386,-3.4293,-3.4316,-3.434,-3.4245,-3.4221,-3.4197,-3.4197,-3.4197,-3.4197,-3.4197,-3.4197,-3.4197,-3.4197,-3.4197,-3.4197,-3.4197,-3.4197,-3.4049,-3.3615,-3.3605,-3.3386,-3.2948,-3.2606,-3.2454,-3.2588,-3.2161,-3.1893,-3.1856,-3.1837,-3.18,-3.18,-3.18,-3.18,-3.18,-3.18,-3.18,0.0,0.0,0.0,0.0,0.0,0.0,0.0,0.0,-3.5704,0.0,-3.7038,-3.821,-3.8285,-3.9666,-4.0796,-4.0804,-4.0788,-4.079,-4.079,-4.079,-4.079,-4.079,-4.079,-4.079,-4.079,-4.079,-4.079,-4.079,-4.079,-4.079,-4.079,-4.079,-4.079,-4.079,-4.079,-4.079,-4.079,-4.079,-4.079,-4.079,-4.079,-4.079,-4.079,-4.0621,-4.0526,-4.0496,-4.0248,-4.0139,-4.012,-3.9998,-3.9933,-3.9914,-3.9911,-3.9889,-3.9889,-3.9889,-3.9889,-3.9889,-3.9889,-3.9889,-3.9889,-3.9889,-3.9889,-3.9889,-3.9889,-3.9889,-3.974,-3.8925,-3.8029,-3.7093,-3.6054,-3.5117,-3.4409,-3.4386,-3.4495,-3.4561,-3.4539,-3.4381,-3.4245,-3.434,-3.4269,-3.4197,-3.4197,-3.4197,-3.4197,-3.4197,-3.4197,-3.4197,-3.4197,-3.4197,-3.4197,-3.4197,-3.4197,-3.4049,-3.3615,-3.3605,-3.3386,-3.2948,-3.2852,-3.2737,-3.2606,-3.2539,-3.237,-3.209,-3.191,-3.18,-3.18,-3.18,-3.18,-3.18,-3.18,-3.18,0.0,0.0,0.0,0.0,0.0,0.0,0.0,0.0,-3.5688,-3.5688,-3.7054,-3.8246,-3.8244,-3.9652,-4.0798,-4.0807,-4.0839,-4.0842,-4.08,-4.0796,-4.079,-4.079,-4.079,-4.079,-4.079,-4.079,-4.079,-4.079,-4.079,-4.079,-4.079,-4.079,-4.079,-4.079,-4.079,-4.079,-4.079,-4.079,-4.079,-4.079,-4.0615,-4.0615,-4.079,-4.0438,-4.0317,-4.0383,-4.0176,-4.006,-3.9979,-3.9914,-3.9889,-3.9889,-3.9889,-3.9889,-3.9889,-3.9889,-3.9889,-3.9889,-3.9889,-3.9889,-3.9889,-3.9889,-3.9889,-3.9889,-3.9889,-3.9589,-3.9058,-3.8161,-3.7268,-3.6333,-3.5289,-3.4712,-3.4427,-3.4495,-3.4495,-3.4517,-3.4666,-3.4561,-3.4404,-3.4293,-3.4245,-3.4197,-3.4197,-3.4197,-3.4197,-3.4197,-3.4197,-3.4197,-3.4197,-3.4197,-3.4148,-3.4049,-3.4124,-3.3998,-3.3426,-3.3502,-3.3386,-3.2948,-3.2802,-3.2737,-3.277,-3.2555,-3.2352,-3.2232,-3.2037,-3.1893,-3.18,-3.18,-3.18,-3.18,-3.18,-3.18,0.0,0.0,0.0,0.0,0.0,0.0,0.0,0.0,-3.5708,0.0,-3.7085,-3.8278,-3.823,-3.9652,-4.0791,-4.0811,-4.0837,-4.0862,-4.0809,-4.0804,-4.0808,-4.0827,-4.0827,-4.0827,-4.082,-4.0834,-4.0822,-4.0796,-4.0803,-4.079,-4.079,-4.079,-4.079,-4.079,-4.079,-4.079,-4.079,-4.079,-4.079,-4.079,-4.0549,-4.0554,-4.0797,-4.0367,-4.0264,-4.0351,-4.0157,-4.002,-3.9889,-3.9889,-3.9889,-3.9889,-3.9889,-3.9889,-3.9889,-3.9889,-3.9889,-3.9889,-3.9889,-3.9889,-3.9889,-3.9889,-3.9889,-3.9851,-3.9665,-3.9172,-3.8471,-3.7284,-3.6486,-3.5703,-3.4678,-3.4363,-3.4386,-3.4561,-3.4517,-3.4495,-3.4666,-3.4623,-3.4473,-3.4245,-3.4197,-3.4197,-3.4197,-3.4197,-3.4197,-3.4197,-3.4197,-3.4197,-3.4197,-3.4197,-3.4148,-3.3998,-3.4124,-3.3954,-3.3368,-3.3473,-3.3386,-3.2948,-3.277,-3.2737,-3.2884,-3.2606,-3.242,-3.2386,-3.2232,-3.2037,-3.18,-3.18,-3.18,-3.18,-3.18,-3.18,0.0,0.0,0.0,0.0,0.0,0.0,0.0,0.0,-3.5695,-3.5695,-3.7085,-3.8287,-3.8299,-3.9681,-4.0807,-4.0804,-4.0805,-4.0801,-4.0801,-4.0791,-4.0828,-4.0886,-4.0886,-4.0877,-4.0898,-4.0881,-4.0885,-4.0796,-4.0808,-4.079,-4.079,-4.079,-4.079,-4.079,-4.079,-4.079,-4.079,-4.079,-4.079,-4.079,-4.079,-4.0783,-4.0789,-4.0577,-4.048,-4.0481,-4.0212,-4.002,-3.9889,-3.9889,-3.9889,-3.9889,-3.9889,-3.9889,-3.9889,-3.9889,-3.9889,-3.9889,-3.9889,-3.9889,-3.9889,-3.9889,-3.9889,-3.9778,-3.8982,-3.8738,-3.8317,-3.6547,-3.5932,-3.5597,-3.4656,-3.4293,-3.4269,-3.4539,-3.4583,-3.4561,-3.445,-3.4427,-3.4363,-3.4221,-3.4197,-3.4197,-3.4197,-3.4197,-3.4197,-3.4197,-3.4197,-3.4197,-3.4197,-3.4197,-3.4197,-3.4197,-3.4197,-3.4023,-3.3615,-3.3605,-3.3386,-3.2948,-3.2884,-3.2884,-3.2916,-3.2884,-3.277,-3.2606,-3.2386,-3.2126,-3.18,-3.18,-3.18,-3.18,-3.18,-3.18,0.0,0.0,0.0,0.0,0.0,0.0,0.0,-3.5727,-3.5754,-3.5708,-3.7086,-3.8293,-3.8307,-3.9732,-4.0905,-4.0867,-4.0904,-4.0904,-4.0878,-4.0855,-4.0874,-4.0898,-4.0908,-4.0907,-4.0912,-4.0897,-4.0897,-4.0871,-4.0859,-4.0854,-4.0803,-4.079,-4.079,-4.079,-4.079,-4.079,-4.079,-4.079,-4.079,-4.079,-4.0674,-4.0668,-4.0803,-4.0593,-4.0506,-4.0477,-4.0399,-4.0283,-4.0158,-4.0061,-4.002,-4.002,-3.9935,-3.9889,-3.9889,-3.9889,-3.9889,-3.9889,-3.9889,-3.9889,-3.9889,-3.9889,-3.9551,-3.9077,-3.8774,-3.7879,-3.6793,-3.6083,-3.5409,-3.4805,-3.4367,-3.4245,-3.4245,-3.4427,-3.4473,-3.4473,-3.4427,-3.4386,-3.4363,-3.4221,-3.4197,-3.4197,-3.4197,-3.4197,-3.4197,-3.4197,-3.4197,-3.4197,-3.4197,-3.4197,-3.4148,-3.4023,-3.4124,-3.4049,-3.3615,-3.3605,-3.3444,-3.3099,-3.2961,-3.2916,-3.2916,-3.2916,-3.2737,-3.242,-3.2318,-3.2197,-3.2001,-3.1856,-3.18,-3.18,-3.18,-3.18,-3.5743,0.0,0.0,0.0,0.0,0.0,0.0,0.0,-3.576,-3.5728,-3.6892,-3.7994,-3.8279,-3.9574,-4.0664,-4.0877,-4.0942,-4.0953,-4.0943,-4.0921,-4.0935,-4.096,-4.0971,-4.0965,-4.0934,-4.0945,-4.0945,-4.0894,-4.0913,-4.0898,-4.0846,-4.0831,-4.0827,-4.079,-4.079,-4.079,-4.079,-4.079,-4.079,-4.079,-4.0655,-4.0674,-4.079,-4.066,-4.0612,-4.0607,-4.0607,-4.0481,-4.03,-4.0194,-4.0177,-4.0177,-4.0061,-3.9981,-3.9899,-3.9899,-3.9897,-3.9889,-3.9889,-3.9889,-3.9851,-3.9589,-3.9134,-3.8605,-3.8016,-3.6988,-3.5918,-3.5509,-3.4929,-3.4363,-3.4221,-3.4221,-3.4293,-3.4363,-3.4386,-3.4386,-3.4386,-3.4363,-3.4293,-3.4221,-3.4197,-3.4197,-3.4197,-3.4197,-3.4197,-3.4197,-3.4197,-3.4197,-3.4197,-3.4197,-3.4148,-3.4023,-3.4124,-3.4074,-3.3726,-3.3643,-3.3473,-3.322,-3.3024,-3.2916,-3.2916,-3.2852,-3.2672,-3.2386,-3.2283,-3.2197,-3.2108,-3.191,-3.18,-3.18,-3.18,-3.1763,0.0,0.0,0.0,0.0,0.0,0.0,-3.5718,0.0,-3.5718,-3.5783,-3.6503,-3.7366,-3.8202,-3.915,-4.0033,-4.0753,-4.089,-4.0924,-4.0981,-4.0994,-4.1013,-4.1091,-4.111,-4.1078,-4.1015,-4.1064,-4.1038,-4.0917,-4.0954,-4.0971,-4.0894,-4.0888,-4.0873,-4.0803,-4.079,-4.079,-4.079,-4.079,-4.079,-4.079,-4.079,-4.079,-4.079,-4.079,-4.079,-4.079,-4.079,-4.0626,-4.0317,-4.0317,-4.0317,-4.0317,-4.03,-4.0136,-3.9929,-3.991,-3.9925,-3.9911,-3.9911,-3.9892,-3.974,-3.8965,-3.8681,-3.8319,-3.6689,-3.6079,-3.5767,-3.4851,-3.4495,-3.4363,-3.4221,-3.4293,-3.4386,-3.4386,-3.4386,-3.4386,-3.4386,-3.4293,-3.4197,-3.4197,-3.4197,-3.4197,-3.4197,-3.4197,-3.4197,-3.4197,-3.4197,-3.4197,-3.4197,-3.4197,-3.4197,-3.4197,-3.4197,-3.4124,-3.3921,-3.3726,-3.3473,-3.322,-3.3024,-3.2916,-3.2916,-3.2705,-3.2606,-3.2606,-3.2266,-3.2108,-3.2108,-3.191,-3.18,-3.18,-3.18,-3.1634,-3.5888,0.0,0.0,0.0,0.0,0.0,-3.585,0.0,-3.5774,-3.5805,-3.6492,-3.7172,-3.7416,-3.8747,-3.9877,-4.0072,-4.0584,-4.0986,-4.1007,-4.0994,-4.1013,-4.1091,-4.111,-4.1064,-4.1012,-4.1027,-4.098,-4.0917,-4.0917,-4.0907,-4.0829,-4.0839,-4.0815,-4.0803,-4.079,-4.079,-4.079,-4.079,-4.079,-4.079,-4.079,-4.079,-4.079,-4.079,-4.079,-4.079,-4.079,-4.0746,-4.064,-4.0496,-4.0446,-4.0431,-4.0351,-4.0302,-4.0325,-4.0172,-4.0005,-3.9946,-4.0234,-3.9642,-3.8736,-3.8822,-3.7887,-3.6663,-3.6209,-3.5477,-3.4798,-3.4529,-3.4363,-3.4245,-3.4221,-3.4221,-3.4245,-3.4245,-3.4245,-3.4245,-3.4245,-3.4221,-3.4197,-3.4197,-3.4197,-3.4197,-3.4197,-3.4197,-3.4197,-3.4197,-3.4197,-3.4197,-3.4197,-3.4197,-3.4197,-3.4197,-3.4197,-3.4124,-3.3921,-3.3726,-3.3473,-3.322,-3.3024,-3.2916,-3.2916,-3.2852,-3.2737,-3.2588,-3.2506,-3.2335,-3.2108,-3.191,-3.18,-3.18,-3.18,-3.1634,0.0,0.0,0.0,0.0,0.0,0.0,-3.5889,-3.5872,-3.5833,-3.5834,-3.6258,-3.6696,-3.7047,-3.7981,-3.8948,-3.9682,-4.0188,-4.0623,-4.0994,-4.1033,-4.1071,-4.111,-4.111,-4.1064,-4.1002,-4.1035,-4.1015,-4.0956,-4.0945,-4.0917,-4.0849,-4.0828,-4.0807,-4.08,-4.0803,-4.079,-4.079,-4.079,-4.079,-4.079,-4.079,-4.079,-4.079,-4.079,-4.079,-4.079,-4.079,-4.079,-4.079,-4.0668,-4.0621,-4.0621,-4.053,-4.0508,-4.0499,-4.046,-4.0319,-4.0118,-3.9863,-3.9165,-3.8326,-3.7966,-3.6995,-3.5941,-3.56,-3.498,-3.4386,-3.4386,-3.4293,-3.4197,-3.4197,-3.4197,-3.4197,-3.4197,-3.4197,-3.4197,-3.4197,-3.4197,-3.4197,-3.4197,-3.4197,-3.4197,-3.4197,-3.4197,-3.4197,-3.4197,-3.4197,-3.4197,-3.4197,-3.4197,-3.4197,-3.4197,-3.4197,-3.4148,-3.4049,-3.378,-3.353,-3.3386,-3.3086,-3.2916,-3.2916,-3.2802,-3.2705,-3.2606,-3.2521,-3.237,-3.2108,-3.1965,-3.1873,-3.18,-3.18,-3.1559,0.0,0.0,0.0,0.0,-3.586,0.0,-3.5912,-3.5898,-3.5903,-3.5892,-3.5891,-3.6111,-3.6825,-3.7092,-3.772,-3.9253,-3.9585,-4.0,-4.0955,-4.111,-4.111,-4.111,-4.111,-4.1078,-4.1015,-4.1045,-4.1071,-4.0988,-4.098,-4.0943,-4.0878,-4.0828,-4.0796,-4.0796,-4.0808,-4.079,-4.079,-4.079,-4.079,-4.079,-4.079,-4.079,-4.079,-4.079,-4.079,-4.079,-4.079,-4.079,-4.079,-4.079,-4.079,-4.079,-4.079,-4.07,-4.0545,-4.0733,-4.062,-4.0219,-3.9205,-3.8623,-3.8079,-3.6837,-3.6179,-3.5734,-3.5016,-3.4604,-3.4381,-3.4381,-3.4293,-3.4197,-3.4197,-3.4197,-3.4197,-3.4197,-3.4197,-3.4197,-3.4197,-3.4197,-3.4197,-3.4197,-3.4197,-3.4197,-3.4197,-3.4197,-3.4197,-3.4197,-3.4197,-3.4197,-3.4197,-3.4197,-3.4197,-3.4197,-3.4197,-3.4173,-3.4148,-3.3807,-3.3577,-3.3549,-3.3117,-3.2916,-3.2916,-3.2737,-3.2639,-3.2639,-3.242,-3.2214,-3.2108,-3.2073,-3.1965,-3.18,-3.1746,-3.1428,0.0,0.0,0.0,-3.5956,-3.5929,0.0,-3.5895,-3.5904,-3.5908,-3.5903,-3.5903,-3.5947,-3.6111,-3.6721,-3.7311,-3.7642,-3.8305,-3.9298,-4.0877,-4.111,-4.111,-4.111,-4.111,-4.1078,-4.1015,-4.1003,-4.0988,-4.0926,-4.0869,-4.0839,-4.0828,-4.0812,-4.0796,-4.0796,-4.0803,-4.079,-4.079,-4.079,-4.079,-4.079,-4.079,-4.079,-4.079,-4.079,-4.079,-4.079,-4.079,-4.079,-4.079,-4.079,-4.079,-4.079,-4.079,-4.0778,-4.0746,-4.0784,-4.0254,-3.9518,-3.9405,-3.8286,-3.6875,-3.6752,-3.5974,-3.5,-3.4849,-3.4542,-3.4245,-3.4245,-3.4221,-3.4197,-3.4197,-3.4197,-3.4197,-3.4197,-3.4197,-3.4197,-3.4197,-3.4197,-3.4197,-3.4197,-3.4197,-3.4197,-3.4197,-3.4197,-3.4197,-3.4197,-3.4197,-3.4197,-3.4197,-3.4197,-3.4197,-3.4197,-3.4197,-3.4074,-3.3753,-3.3661,-3.3444,-3.3055,-3.2948,-3.2916,-3.2916,-3.2852,-3.2852,-3.2852,-3.2488,-3.2214,-3.2108,-3.1946,-3.1837,-3.18,-3.1504,-3.1179,-3.5991,-3.6001,-3.6007,-3.6007,-3.5976,0.0,0.0,-3.5907,-3.5899,-3.5894,-3.5908,-3.5908,-3.5908,-3.6259,-3.6688,-3.7136,-3.7564,-3.8305,-3.963,-4.0175,-4.0442,-4.0402,-4.0825,-4.1078,-4.1015,-4.103,-4.103,-4.0943,-4.0917,-4.0869,-4.0787,-4.0804,-4.0808,-4.079,-4.079,-4.079,-4.079,-4.079,-4.079,-4.079,-4.079,-4.079,-4.079,-4.079,-4.079,-4.079,-4.079,-4.079,-4.079,-4.079,-4.079,-4.079,-4.079,-4.052,-4.0152,-4.0152,-3.9567,-3.8704,-3.8342,-3.752,-3.6594,-3.6227,-3.5576,-3.4945,-3.487,-3.4588,-3.4293,-3.4221,-3.4197,-3.4197,-3.4197,-3.4197,-3.4197,-3.4197,-3.4197,-3.4197,-3.4197,-3.4197,-3.4197,-3.4197,-3.4197,-3.4197,-3.4197,-3.4197,-3.4197,-3.4197,-3.4197,-3.4197,-3.4197,-3.4197,-3.4197,-3.4197,-3.4197,-3.4074,-3.378,-3.3661,-3.3444,-3.3086,-3.2979,-3.2916,-3.2916,-3.2916,-3.2834,-3.2737,-3.2454,-3.2214,-3.2108,-3.191,-3.18,-3.18,-3.1634,-3.1295,-3.5991,-3.5991,-3.5991,-3.5991,-3.5991,-3.5982,0.0,0.0,0.0,-3.5895,-3.5899,-3.5899,-3.5889,-3.5908,-3.6123,-3.6844,-3.6947,-3.72,-3.7896,-3.8753,-3.9345,-3.9454,-4.0137,-4.063,-4.0758,-4.0967,-4.1064,-4.0996,-4.0988,-4.0935,-4.0828,-4.0828,-4.0815,-4.0796,-4.0796,-4.0803,-4.079,-4.079,-4.079,-4.079,-4.079,-4.079,-4.079,-4.079,-4.079,-4.079,-4.079,-4.079,-4.079,-4.0616,-4.0539,-4.0539,-4.0539,-4.0113,-3.9487,-3.9301,-3.8702,-3.7851,-3.7135,-3.676,-3.6466,-3.5695,-3.5307,-3.5102,-3.4889,-3.4651,-3.4409,-3.4245,-3.4197,-3.4197,-3.4197,-3.4197,-3.4197,-3.4197,-3.4197,-3.4197,-3.4197,-3.4197,-3.4197,-3.4197,-3.4197,-3.4197,-3.4197,-3.4197,-3.4197,-3.4197,-3.4197,-3.4197,-3.4197,-3.4197,-3.4197,-3.4197,-3.4197,-3.4099,-3.3868,-3.3698,-3.3473,-3.316,-3.2993,-3.2916,-3.2916,-3.2916,-3.2787,-3.2539,-3.2386,-3.2214,-3.2037,-3.1873,-3.18,-3.18,-3.1709,-3.1372,-3.5991,-3.5991,-3.5991,-3.5991,-3.5991,-3.5999,-3.5994,0.0,-3.5973,-3.5907,0.0,-3.5908,-3.5894,0.0,0.0,-3.6025,-3.6045,-3.6084,-3.6181,-3.6947,-3.7784,-3.8552,-3.8727,-3.9104,-3.9857,-4.059,-4.1015,-4.0996,-4.0943,-4.0888,-4.0898,-4.0898,-4.0859,-4.0796,-4.0796,-4.0792,-4.079,-4.079,-4.079,-4.079,-4.079,-4.079,-4.079,-4.079,-4.079,-4.079,-4.079,-4.079,-4.0732,-3.9971,-3.9661,-3.9661,-3.9661,-3.9603,-3.941,-3.8624,-3.7812,-3.7038,-3.6942,-3.6427,-3.5809,-3.5712,-3.5477,-3.5209,-3.4756,-3.4612,-3.4526,-3.4274,-3.4197,-3.4197,-3.4197,-3.4197,-3.4197,-3.4197,-3.4197,-3.4197,-3.4197,-3.4197,-3.4197,-3.4197,-3.4197,-3.4197,-3.4197,-3.4197,-3.4197,-3.4197,-3.4197,-3.4197,-3.4197,-3.4197,-3.4197,-3.4197,-3.4197,-3.4049,-3.3671,-3.3587,-3.3415,-3.2961,-3.2916,-3.2916,-3.2916,-3.2916,-3.2705,-3.2352,-3.2318,-3.2161,-3.1819,-3.18,-3.18,-3.18,-3.1504,-3.1179,-3.5991,-3.5991,-3.5991,-3.5991,-3.5991,-3.5999,-3.5995,-3.5996,-3.5996,-3.5966,0.0,0.0,0.0,0.0,0.0,0.0,-3.5908,-3.5908,-3.5908,-3.6201,-3.6752,-3.759,-3.8168,-3.8636,-3.9006,-3.9345,-3.9733,-4.0217,-4.0221,-4.0401,-4.0829,-4.0839,-4.0837,-4.08,-4.08,-4.0808,-4.079,-4.079,-4.079,-4.079,-4.079,-4.079,-4.079,-4.079,-4.079,-4.0771,-4.028,-4.0048,-3.9978,-3.9108,-3.874,-3.8702,-3.8179,-3.7986,-3.7947,-3.758,-3.6922,-3.6207,-3.6207,-3.5974,-3.5684,-3.5643,-3.5502,-3.5316,-3.5083,-3.487,-3.4693,-3.4483,-3.4321,-3.4197,-3.4197,-3.4197,-3.4197,-3.4197,-3.4197,-3.4197,-3.4197,-3.4197,-3.4197,-3.4197,-3.4197,-3.4197,-3.4197,-3.4197,-3.4197,-3.4197,-3.4197,-3.4197,-3.4197,-3.4197,-3.4197,-3.4197,-3.4197,-3.4049,-3.3615,-3.3605,-3.3386,-3.2948,-3.2916,-3.2916,-3.2916,-3.2916,-3.277,-3.2488,-3.2352,-3.2197,-3.1965,-3.1873,-3.18,-3.18,-3.1671,-3.1295,-3.5991,-3.5991,-3.5991,-3.5991,-3.5991,-3.5999,-3.5993,-3.5993,-3.5994,-3.5995,-3.5994,0.0,0.0,0.0,-3.5928,-3.5908,0.0,-3.5908,-3.5908,-3.5908,-3.6123,-3.6693,-3.7584,-3.8149,-3.8149,-3.8338,-3.8702,-3.9268,-3.9326,-3.9546,-4.01,-4.013,-4.0245,-4.0459,-4.0479,-4.0583,-4.079,-4.079,-4.079,-4.079,-4.0558,-4.0435,-4.0447,-4.0203,-4.0094,-4.0055,-3.941,-3.9139,-3.9081,-3.8199,-3.7851,-3.7754,-3.6903,-3.6574,-3.6574,-3.6574,-3.6207,-3.5704,-3.5704,-3.5704,-3.5684,-3.5643,-3.5546,-3.5451,-3.5345,-3.5119,-3.4889,-3.4653,-3.4458,-3.4293,-3.4221,-3.4197,-3.4197,-3.4197,-3.4197,-3.4197,-3.4197,-3.4197,-3.4197,-3.4197,-3.4197,-3.4197,-3.4197,-3.4197,-3.4197,-3.4197,-3.4197,-3.4197,-3.4197,-3.4197,-3.4197,-3.4197,-3.4197,-3.4049,-3.3615,-3.3605,-3.3386,-3.2948,-3.2916,-3.2916,-3.2916,-3.2916,-3.277,-3.2521,-3.2386,-3.2197,-3.2018,-3.1873,-3.18,-3.18,-3.18,-3.1504,-3.5991,-3.5991,-3.5991,-3.5991,-3.5991,-3.5994,-3.5994,-3.5994,-3.5999,-3.5994,-3.5996,-3.5996,-3.5992,-3.5997,-3.5986,-3.5908,-3.5908,0.0,0.0,-3.5908,-3.5908,-3.5947,-3.6707,-3.7233,-3.7233,-3.7942,-3.8393,-3.8352,-3.8352,-3.8364,-3.8384,-3.8442,-3.883,-3.9615,-3.9644,-4.0009,-4.079,-4.079,-4.079,-4.079,-3.9952,-3.9549,-3.9506,-3.8667,-3.8276,-3.8276,-3.8237,-3.8249,-3.8172,-3.729,-3.6942,-3.6864,-3.6052,-3.5742,-3.5742,-3.5742,-3.5723,-3.5704,-3.5704,-3.5704,-3.5704,-3.5704,-3.5684,-3.5651,-3.5374,-3.5281,-3.5187,-3.4732,-3.4583,-3.4517,-3.4269,-3.4197,-3.4197,-3.4197,-3.4197,-3.4197,-3.4197,-3.4197,-3.4197,-3.4197,-3.4197,-3.4197,-3.4197,-3.4197,-3.4197,-3.4197,-3.4197,-3.4197,-3.4197,-3.4197,-3.4197,-3.4197,-3.4197,-3.4049,-3.3615,-3.3605,-3.3386,-3.2948,-3.2916,-3.2916,-3.2916,-3.2916,-3.2705,-3.2318,-3.2318,-3.2126,-3.18,-3.18,-3.18,-3.18,-3.18,-3.1634,-3.5991,-3.5991,-3.5991,-3.5991,-3.5991,-3.5991,-3.5991,-3.5991,-3.5994,-3.6001,-3.6003,-3.6007,-3.6009,-3.5995,-3.5996,-3.5976,-3.5929,-3.5908,0.0,-3.5908,-3.5908,-3.5908,-3.6162,-3.6337,-3.6337,-3.6579,-3.6956,-3.7478,-3.7508,-3.7725,-3.8214,-3.8274,-3.8391,-3.8659,-3.8678,-3.8802,-3.9088,-3.9088,-3.9088,-3.9076,-3.8786,-3.8636,-3.8623,-3.833,-3.8202,-3.816,-3.7591,-3.734,-3.727,-3.6458,-3.611,-3.6071,-3.58,-3.5704,-3.5704,-3.5704,-3.5704,-3.5704,-3.5704,-3.5704,-3.5704,-3.5704,-3.5704,-3.5673,-3.554,-3.5416,-3.5251,-3.5049,-3.4812,-3.458,-3.4495,-3.434,-3.4197,-3.4197,-3.4197,-3.4197,-3.4197,-3.4197,-3.4197,-3.4197,-3.4197,-3.4197,-3.4197,-3.4197,-3.4197,-3.4197,-3.4197,-3.4197,-3.4197,-3.4197,-3.4197,-3.4197,-3.4074,-3.3895,-3.3615,-3.3298,-3.3055,-3.2916,-3.2916,-3.2916,-3.2916,-3.2916,-3.277,-3.2488,-3.2352,-3.2197,-3.2001,-3.1856,-3.18,-3.18,-3.18,-3.1634,-3.6069,-3.5991,-3.5991,-3.5991,-3.5991,-3.5991,-3.5991,-3.5991,-3.5991,-3.5991,-3.5991,-3.5991,-3.5991,-3.5991,-3.5991,-3.5991,-3.5957,-3.5926,0.0,-3.5908,-3.5908,-3.5908,-3.5908,-3.5908,-3.5908,-3.5908,-3.6119,-3.6604,-3.6634,-3.6823,-3.729,-3.7309,-3.7444,-3.7735,-3.7735,-3.7889,-3.8199,-3.8187,-3.8206,-3.8187,-3.7897,-3.7735,-3.7741,-3.7439,-3.7312,-3.7282,-3.6721,-3.6469,-3.6439,-3.5916,-3.5704,-3.5704,-3.5704,-3.5704,-3.5704,-3.5704,-3.5704,-3.5704,-3.5704,-3.5704,-3.5704,-3.5704,-3.5684,-3.5662,-3.562,-3.5483,-3.5417,-3.558,-3.5191,-3.4764,-3.4983,-3.4633,-3.4197,-3.4197,-3.4197,-3.4197,-3.4197,-3.4197,-3.4197,-3.4197,-3.4197,-3.4197,-3.4197,-3.4197,-3.4197,-3.4197,-3.4197,-3.4197,-3.4197,-3.4197,-3.4197,-3.4197,-3.4074,-3.3895,-3.3615,-3.3238,-3.2979,-3.2916,-3.2916,-3.2916,-3.2916,-3.2852,-3.2705,-3.2506,-3.2335,-3.2161,-3.2001,-3.1856,-3.18,-3.18,-3.18,-3.1634]}]]